[[[{"header":{"parameterUnit":"kt","parameterCategory":2,"dx":1,"dy":1,"la1":29.587661999999998,"la2":31.0,"lo1":-88.76705300000003,"lo2":-86.6583820000003,"nx":115,"ny":88,"refTime":"2022-10-20T12:00:00:Z","depth":0,"parameterNumber":1,"parameterNumberName":"U-component_of_WINDS"},"data":[-11.8806,-11.8806,-11.8806,-11.8806,-11.8806,-11.8806,-11.8806,-11.8806,-11.8806,-11.8806,-11.8416,-11.7218,-11.7134,-11.8693,-11.8806,-11.7943,-11.5913,-11.5626,-11.3858,-11.243,-11.288,-11.0937,-10.9157,-10.8423,-10.6564,-10.4828,-10.3243,-10.1628,-10.0075,-9.9116,-9.8027,-9.6774,-9.6689,-9.6756,-9.6671,-9.6671,-9.6671,-9.6671,-9.6671,-9.6671,-9.6671,-9.6671,-9.6671,-9.6671,-9.6671,-9.6671,-9.6481,-9.6196,-9.5622,-9.4503,-9.2794,-9.0437,-8.9086,-8.8048,-8.7447,-8.6003,-8.3686,-8.1551,-7.9641,-7.7094,-7.5124,-7.4499,-7.4914,-7.5288,-7.4984,-7.5077,-7.4867,-7.4236,-7.3418,-7.2974,-7.2413,-7.2039,-7.1267,-6.9654,-6.8579,-6.8112,-6.7878,-6.7785,-6.7596,-6.7596,-6.7596,-6.7596,-6.7502,-6.6123,-6.4537,-6.364,-6.2168,-6.018,-5.8082,-5.7573,-5.7184,-5.6774,-5.6383,-5.5784,-5.6196,-5.6896,-5.5803,-5.5596,-5.5474,-5.5201,-5.5012,-5.5012,-5.5012,-5.5012,-5.5012,-5.5012,-5.5012,-5.5012,-5.5012,-5.5012,-5.5012,-5.5012,-5.5012,-5.5012,-5.5012,-11.8806,-11.8806,-11.8806,-11.8806,-11.8806,-11.8806,-11.8806,-11.8806,-11.8806,-11.8806,-11.8611,-11.8416,-11.8498,-11.8693,-11.8806,-11.853,-11.8139,-11.7384,-11.7664,-11.68,-11.6039,-11.3889,-11.2127,-11.0536,-10.8327,-10.613,-10.3545,-10.1176,-9.9003,-9.8382,-9.7801,-9.6925,-9.6671,-9.6671,-9.6671,-9.6671,-9.6671,-9.6671,-9.6671,-9.6671,-9.6671,-9.6671,-9.6671,-9.6671,-9.6671,-9.6671,-9.6576,-9.6358,-9.5854,-9.4307,-9.2091,-8.986,-8.8305,-8.7293,-8.6719,-8.5494,-8.3207,-8.1378,-7.9612,-7.7194,-7.5554,-7.4715,-7.5065,-7.5101,-7.4516,-7.4446,-7.4563,-7.3955,-7.2974,-7.2272,-7.1641,-7.1057,-7.0169,-6.9047,-6.8369,-6.7643,-6.7738,-6.7714,-6.7691,-6.7596,-6.7596,-6.7596,-6.6909,-6.5717,-6.473,-6.4126,-6.2639,-6.0559,-5.9276,-5.9557,-5.9074,-5.8285,-5.8082,-5.9095,-6.0101,-5.9196,-5.7286,-5.6774,-5.5784,-5.5286,-5.5012,-5.5012,-5.5012,-5.5012,-5.5012,-5.5012,-5.5012,-5.5012,-5.5012,-5.5012,-5.5012,-5.5012,-5.5012,-5.5012,-5.5012,-11.8806,-11.8806,-11.8806,-11.8806,-11.8806,-11.8806,-11.8806,-11.8806,-11.8806,-11.8806,-11.8806,-11.8806,-11.8774,-11.8774,-11.8806,-11.8693,-11.8611,-11.8498,-11.8498,-11.8139,-11.6967,-11.5922,-11.3712,-11.1091,-10.9127,-10.6678,-10.3758,-10.095,-9.8805,-9.7931,-9.7462,-9.6812,-9.6671,-9.6671,-9.6671,-9.6671,-9.6671,-9.6671,-9.6671,-9.6671,-9.6671,-9.6671,-9.6671,-9.6671,-9.6671,-9.6671,-9.6407,-9.5749,-9.523,-9.3757,-9.1487,-8.9337,-8.7934,-8.7047,-8.6264,-8.4844,-8.2899,-8.0512,-7.8435,-7.6489,-7.5023,-7.4871,-7.5193,-7.5159,-7.455,-7.4368,-7.4462,-7.3473,-7.2467,-7.1337,-7.0706,-7.0341,-6.9497,-6.8888,-6.8255,-6.788,-6.7974,-6.7903,-6.7691,-6.7691,-6.7785,-6.7785,-6.7407,-6.6314,-6.6219,-6.5717,-6.5909,-6.4321,-6.2933,-6.2442,-6.1078,-6.018,-6.018,-6.1,-6.1872,-6.0779,-5.9074,-5.7471,-5.6177,-5.5596,-5.4993,-5.4993,-5.5012,-5.5012,-5.5012,-5.5012,-5.5012,-5.5012,-5.5012,-5.5012,-5.5012,-5.5012,-5.5012,-5.5012,-5.5012,-11.8806,-11.8806,-11.8806,-11.8806,-11.8806,-11.8806,-11.8806,-11.8806,-11.8806,-11.8806,-11.8806,-11.8806,-11.8806,-11.8806,-11.8806,-11.8806,-11.8806,-11.8693,-11.8498,-11.8221,-11.7645,-11.6378,-11.459,-11.1733,-10.9173,-10.6688,-10.3695,-10.0526,-9.8664,-9.7366,-9.6699,-9.6671,-9.6671,-9.6671,-9.6671,-9.6671,-9.6671,-9.6671,-9.6671,-9.6671,-9.6671,-9.6671,-9.6671,-9.6671,-9.6558,-9.6558,-9.5758,-9.5072,-9.4397,-9.3267,-9.0997,-8.9233,-8.7764,-8.7397,-8.6182,-8.4116,-8.202,-7.9904,-7.7767,-7.5858,-7.4897,-7.4838,-7.4908,-7.4922,-7.4838,-7.466,-7.4022,-7.291,-7.1841,-7.0688,-6.9822,-6.9453,-6.9081,-6.8657,-6.821,-6.828,-6.8374,-6.8092,-6.7785,-6.788,-6.7974,-6.7998,-6.7903,-6.7785,-6.7785,-6.7785,-6.7785,-6.6886,-6.5117,-6.444,-6.3151,-6.3151,-6.2977,-6.266,-6.2759,-6.2245,-6.0858,-5.9356,-5.7471,-5.6177,-5.5097,-5.4993,-5.5012,-5.5012,-5.5012,-5.5012,-5.5012,-5.5012,-5.5012,-5.5012,-5.5012,-5.5012,-5.5012,-5.5012,-5.5012,-11.8806,-11.8806,-11.8806,-11.8806,-11.8806,-11.8806,-11.8806,-11.8806,-11.8806,-11.8806,-11.8806,-11.8806,-11.8806,-11.8806,-11.8806,-11.8806,-11.8806,-11.8806,-11.8693,-11.8693,-11.7843,-11.7281,-11.5345,-11.2518,-10.984,-10.6872,-10.3707,-10.0537,-9.8716,-9.7338,-9.6671,-9.6671,-9.6671,-9.6671,-9.6671,-9.6671,-9.6671,-9.6671,-9.6671,-9.6671,-9.6671,-9.6671,-9.6671,-9.6671,-9.6322,-9.604,-9.5194,-9.4452,-9.3928,-9.2499,-9.0957,-9.0056,-8.8942,-8.8262,-8.6264,-8.4089,-8.1899,-7.971,-7.7394,-7.5656,-7.4928,-7.4817,-7.4708,-7.4676,-7.4416,-7.4178,-7.3543,-7.251,-7.1246,-7.0113,-6.9671,-6.9319,-6.9201,-6.8963,-6.8773,-6.8679,-6.8656,-6.8562,-6.828,-6.8068,-6.8186,-6.8468,-6.8468,-6.8092,-6.8092,-6.8092,-6.7785,-6.6886,-6.6004,-6.641,-6.6219,-6.6528,-6.6219,-6.5813,-6.531,-6.3932,-6.2639,-6.0958,-5.8973,-5.7388,-5.5493,-5.4993,-5.5012,-5.5012,-5.5012,-5.5012,-5.5012,-5.5012,-5.5012,-5.5012,-5.5012,-5.5012,-5.5012,-5.5012,-5.5012,-11.8806,-11.8806,-11.8806,-11.8806,-11.8806,-11.8806,-11.8806,-11.8806,-11.8806,-11.8806,-11.8806,-11.8806,-11.8806,-11.8806,-11.8806,-11.8806,-11.8806,-11.8806,-11.8806,-11.853,-11.7811,-11.7531,-11.6378,-11.3739,-11.058,-10.7659,-10.436,-10.0454,-9.8756,-9.7338,-9.6671,-9.6671,-9.6671,-9.6671,-9.6671,-9.6671,-9.6671,-9.6671,-9.6671,-9.6671,-9.6671,-9.6671,-9.6671,-9.6435,-9.5645,-9.5307,-9.4686,-9.2789,-9.2191,-9.1425,-8.9942,-8.9236,-8.9246,-8.8577,-8.6851,-8.3503,-8.13,-7.8952,-7.7043,-7.55,-7.5678,-7.579,-7.5907,-7.5106,-7.4463,-7.3819,-7.2934,-7.2125,-7.0836,-6.9768,-6.9533,-6.927,-6.929,-6.9334,-6.9241,-6.9147,-6.9054,-6.896,-6.8656,-6.8374,-6.8468,-6.8843,-6.8843,-6.8562,-6.8374,-6.8374,-6.788,-6.7194,-6.7289,-6.7596,-6.7998,-6.8092,-6.8092,-6.8068,-6.7004,-6.5621,-6.3835,-6.185,-6.0159,-5.8183,-5.5803,-5.5012,-5.5116,-5.5116,-5.5012,-5.5012,-5.5012,-5.5012,-5.5012,-5.5012,-5.5012,-5.5012,-5.5012,-5.5012,-5.5012,-11.8806,-11.8806,-11.8806,-11.8806,-11.8806,-11.8806,-11.8806,-11.8806,-11.8806,-11.8806,-11.8806,-11.8806,-11.8806,-11.8806,-11.8806,-11.8806,-11.8806,-11.8806,-11.8806,-11.8449,-11.7843,-11.7563,-11.5935,-11.3217,-11.0306,-10.7125,-10.3781,-10.0076,-9.819,-9.7197,-9.6671,-9.6671,-9.6671,-9.6671,-9.6671,-9.6671,-9.6671,-9.6671,-9.6671,-9.6671,-9.6671,-9.6671,-9.6181,-9.5899,-9.5166,-9.4178,-9.3473,-9.1803,-9.0985,-9.0506,-8.9255,-8.8861,-8.9184,-8.8717,-8.739,-8.3663,-8.0654,-7.8015,-7.6186,-7.5704,-7.5919,-7.6381,-7.6234,-7.539,-7.4616,-7.3625,-7.2543,-7.1655,-7.0555,-6.9864,-6.9364,-6.9571,-6.9847,-6.9891,-6.9867,-6.9706,-6.952,-6.9427,-6.9334,-6.9054,-6.8843,-6.9123,-6.9427,-6.9054,-6.8749,-6.8656,-6.8445,-6.8163,-6.8186,-6.8562,-6.8867,-6.8679,-6.8656,-6.8656,-6.7762,-6.7194,-6.502,-6.2955,-6.1355,-5.9557,-5.7491,-5.6196,-5.5512,-5.522,-5.5116,-5.5012,-5.5012,-5.5012,-5.5012,-5.5012,-5.5012,-5.5012,-5.5012,-5.5012,-5.5012,-11.8806,-11.8806,-11.8806,-11.8806,-11.8806,-11.8806,-11.8806,-11.8806,-11.8806,-11.8806,-11.8806,-11.8806,-11.8806,-11.8806,-11.8806,-11.8806,-11.8806,-11.8806,-11.8806,-11.853,-11.7843,-11.7281,-11.5374,-11.1863,-10.8855,-10.5381,-10.2199,-9.9485,-9.702,-9.6671,-9.6671,-9.6671,-9.6671,-9.6671,-9.6671,-9.6671,-9.6671,-9.6671,-9.6671,-9.6671,-9.6671,-9.6643,-9.6012,-9.5222,-9.4517,-9.3445,-9.2056,-9.0985,-9.0313,-8.9777,-8.9181,-8.9241,-8.9213,-8.9213,-8.7864,-8.559,-8.2089,-7.9174,-7.6915,-7.663,-7.6698,-7.634,-7.5988,-7.5675,-7.4773,-7.3027,-7.2109,-7.1218,-7.0452,-6.9832,-6.9451,-6.9891,-7.033,-7.0422,-7.0422,-7.0169,-6.9891,-6.9891,-6.9916,-6.9706,-6.952,-6.9589,-6.9799,-6.9613,-6.9334,-6.9217,-6.903,-6.8843,-6.896,-6.9334,-6.9496,-6.931,-6.9123,-6.9123,-6.903,-6.8656,-6.6791,-6.4708,-6.3031,-6.1631,-5.9758,-5.8062,-5.7388,-5.6486,-5.57,-5.5116,-5.5012,-5.5012,-5.5012,-5.5012,-5.5012,-5.5012,-5.5012,-5.5012,-5.5012,-11.8806,-11.8806,-11.8806,-11.8806,-11.8806,-11.8806,-11.8806,-11.8806,-11.8806,-11.8806,-11.8806,-11.8806,-11.8806,-11.8806,-11.8806,-11.8806,-11.8806,-11.8806,-11.8806,-11.8611,-11.7811,-11.6621,-11.4844,-11.1825,-10.789,-10.4527,-10.1527,-9.9,-9.6728,-9.6671,-9.6671,-9.6671,-9.6671,-9.6671,-9.6671,-9.6671,-9.6671,-9.6671,-9.6671,-9.6671,-9.6671,-9.6322,-9.5899,-9.4799,-9.3755,-9.2739,-9.1329,-9.0313,-8.9608,-8.9382,-8.9213,-8.9184,-8.9184,-8.8805,-8.748,-8.5224,-8.24,-8.0537,-7.8112,-7.7402,-7.6985,-7.6086,-7.5748,-7.4895,-7.336,-7.2345,-7.1547,-7.0965,-7.0343,-7.0101,-7.0237,-7.033,-7.0606,-7.0606,-7.0606,-7.0354,-7.0169,-7.033,-7.033,-7.0169,-6.996,-7.0237,-7.0422,-7.0052,-6.9799,-6.9706,-6.9706,-6.9613,-6.973,-6.996,-7.0213,-6.9867,-6.9706,-6.9682,-6.9706,-6.9613,-6.8327,-6.6364,-6.5168,-6.4082,-6.2202,-6.0517,-5.9336,-5.8366,-5.7471,-5.6569,-5.5784,-5.5012,-5.5012,-5.5012,-5.5012,-5.5012,-5.5012,-5.5012,-5.5012,-11.8806,-11.8806,-11.8806,-11.8806,-11.8806,-11.8806,-11.8806,-11.8806,-11.8806,-11.8806,-11.8806,-11.8806,-11.8806,-11.8806,-11.8806,-11.8806,-11.8806,-11.8806,-11.8806,-11.8611,-11.7811,-11.601,-11.3296,-11.0494,-10.6957,-10.3388,-10.0516,-9.8089,-9.6671,-9.6671,-9.6671,-9.6671,-9.6671,-9.6671,-9.6671,-9.6671,-9.6671,-9.6671,-9.6671,-9.6671,-9.6492,-9.604,-9.5279,-9.4037,-9.2824,-9.1639,-9.0341,-8.972,-8.9325,-8.9213,-8.9184,-8.9184,-8.9184,-8.9184,-8.7686,-8.5224,-8.3181,-8.1569,-7.9475,-7.8099,-7.7778,-7.6238,-7.5139,-7.409,-7.2577,-7.1759,-7.1151,-7.0684,-7.047,-7.0538,-7.0674,-7.079,-7.079,-7.079,-7.0698,-7.0446,-7.0446,-7.0582,-7.0674,-7.0422,-7.0422,-7.0606,-7.0582,-7.0237,-7.0052,-7.0052,-7.0237,-7.0262,-7.0169,-7.0514,-7.0582,-7.033,-7.0169,-7.0169,-7.0237,-7.0145,-6.9169,-6.8186,-6.7291,-6.6223,-6.493,-6.3357,-6.2082,-6.0716,-5.9537,-5.8346,-5.6877,-5.57,-5.5408,-5.5097,-5.5012,-5.5012,-5.5012,-5.5012,-5.5012,-11.8806,-11.8806,-11.8806,-11.8806,-11.8806,-11.8806,-11.8806,-11.8806,-11.8806,-11.8806,-11.8806,-11.8806,-11.8806,-11.8806,-11.8806,-11.8806,-11.8806,-11.8806,-11.8806,-11.853,-11.7779,-11.5326,-11.2229,-10.8633,-10.5213,-10.1541,-9.8975,-9.7399,-9.6671,-9.6671,-9.6671,-9.6671,-9.6671,-9.6671,-9.6671,-9.6671,-9.6671,-9.6671,-9.6671,-9.6671,-9.6322,-9.5476,-9.4404,-9.3219,-9.2006,-9.0821,-8.9861,-8.9269,-8.9213,-8.9184,-8.9184,-8.9184,-8.9184,-8.9184,-8.8042,-8.6073,-8.4301,-8.2478,-8.0251,-7.9179,-7.7537,-7.5603,-7.4261,-7.3334,-7.2284,-7.1454,-7.0747,-7.0771,-7.0698,-7.0698,-7.079,-7.079,-7.079,-7.079,-7.079,-7.0698,-7.0698,-7.079,-7.0765,-7.0606,-7.0698,-7.079,-7.0514,-7.0422,-7.0422,-7.0514,-7.0698,-7.079,-7.0698,-7.079,-7.0698,-7.0514,-7.0514,-7.0514,-7.0514,-7.0606,-7.049,-7.0097,-6.9307,-6.835,-6.7078,-6.6295,-6.493,-6.3183,-6.1807,-6.0217,-5.8468,-5.6589,-5.6589,-5.6589,-5.599,-5.5116,-5.5116,-5.5116,-5.522,-11.8806,-11.8806,-11.8806,-11.8806,-11.8806,-11.8806,-11.8806,-11.8806,-11.8806,-11.8806,-11.8806,-11.8806,-11.8806,-11.8806,-11.8806,-11.8806,-11.8806,-11.8806,-11.8806,-11.8384,-11.7339,-11.4553,-11.0907,-10.7288,-10.3798,-9.9884,-9.7473,-9.6671,-9.6671,-9.6671,-9.6671,-9.6671,-9.6671,-9.6671,-9.6671,-9.6671,-9.6671,-9.6671,-9.6671,-9.6671,-9.6379,-9.5279,-9.4037,-9.2824,-9.1554,-9.0341,-8.9523,-8.9184,-8.9184,-8.9184,-8.9184,-8.9184,-8.9184,-8.8893,-8.8042,-8.6706,-8.5305,-8.398,-8.1472,-7.9231,-7.6679,-7.492,-7.3578,-7.2406,-7.1547,-7.0985,-7.079,-7.079,-7.079,-7.079,-7.079,-7.079,-7.079,-7.079,-7.079,-7.079,-7.079,-7.079,-7.079,-7.079,-7.079,-7.079,-7.0606,-7.0606,-7.0606,-7.0698,-7.079,-7.079,-7.079,-7.079,-7.079,-7.079,-7.079,-7.079,-7.079,-7.0698,-7.0582,-7.0398,-7.0189,-6.9541,-6.9424,-6.961,-6.8537,-6.6223,-6.4082,-6.2202,-6.0538,-5.8751,-5.8265,-5.796,-5.6691,-5.5531,-5.5427,-5.5427,-5.5427,-11.8806,-11.8806,-11.8806,-11.8806,-11.8806,-11.8806,-11.8806,-11.8806,-11.8806,-11.8806,-11.8806,-11.8806,-11.8806,-11.8806,-11.8806,-11.8806,-11.8806,-11.8806,-11.8806,-11.8352,-11.6797,-11.3483,-10.9701,-10.6088,-10.2901,-9.8659,-9.7151,-9.6671,-9.6671,-9.6671,-9.6671,-9.6671,-9.6671,-9.6671,-9.6671,-9.6671,-9.6671,-9.6671,-9.6671,-9.6238,-9.5843,-9.463,-9.3416,-9.2203,-9.0962,-8.9918,-8.9354,-8.9213,-8.9184,-8.9184,-8.9184,-8.9184,-8.9184,-8.9184,-8.8629,-8.7686,-8.5434,-8.4008,-8.2049,-8.0721,-7.7861,-7.5447,-7.3138,-7.1894,-7.1034,-7.079,-7.079,-7.079,-7.079,-7.079,-7.079,-7.079,-7.079,-7.079,-7.079,-7.079,-7.079,-7.079,-7.079,-7.079,-7.079,-7.079,-7.079,-7.079,-7.079,-7.079,-7.079,-7.079,-7.079,-7.079,-7.079,-7.079,-7.079,-7.079,-7.079,-7.079,-7.079,-7.0698,-7.0698,-7.0398,-7.0305,-7.0674,-7.0305,-6.8865,-6.6745,-6.4953,-6.3085,-6.1114,-5.9616,-5.8629,-5.7471,-5.6235,-5.5842,-5.5738,-5.5842,-11.8806,-11.8806,-11.8806,-11.8806,-11.8806,-11.8806,-11.8806,-11.8806,-11.8806,-11.8806,-11.8806,-11.8806,-11.8806,-11.8806,-11.8806,-11.8806,-11.8806,-11.8806,-11.8806,-11.7967,-11.6014,-11.2291,-10.8491,-10.489,-10.1537,-9.7427,-9.6756,-9.6671,-9.6671,-9.6671,-9.6671,-9.6671,-9.6671,-9.6671,-9.6671,-9.6671,-9.6671,-9.6671,-9.6671,-9.604,-9.4884,-9.3699,-9.2457,-9.1188,-9.0003,-8.9184,-8.9184,-8.9184,-8.9184,-8.9184,-8.9184,-8.9184,-8.9184,-8.9184,-8.9184,-8.8247,-8.6372,-8.4567,-8.2883,-8.1726,-7.9842,-7.6473,-7.3578,-7.1938,-7.0912,-7.079,-7.079,-7.079,-7.079,-7.079,-7.079,-7.079,-7.079,-7.079,-7.079,-7.079,-7.079,-7.079,-7.079,-7.079,-7.079,-7.079,-7.079,-7.079,-7.079,-7.079,-7.079,-7.079,-7.079,-7.079,-7.079,-7.079,-7.079,-7.079,-7.079,-7.079,-7.079,-7.079,-7.079,-7.079,-7.079,-7.0674,-7.0582,-6.9355,-6.8515,-6.7337,-6.584,-6.406,-6.218,-6.0217,-5.8447,-5.753,-5.6853,-5.6544,-5.6544,-11.8806,-11.8806,-11.8806,-11.8806,-11.8806,-11.8806,-11.8806,-11.8806,-11.8806,-11.8806,-11.8806,-11.8806,-11.8806,-11.8806,-11.8806,-11.8806,-11.8806,-11.8806,-11.8806,-11.7495,-11.4977,-11.1267,-10.7508,-10.3662,-10.0172,-9.6699,-9.6671,-9.6671,-9.6671,-9.6671,-9.6671,-9.6671,-9.6671,-9.6671,-9.6671,-9.6671,-9.6671,-9.6671,-9.6671,-9.5871,-9.4658,-9.3473,-9.2288,-9.1018,-8.9946,-8.9184,-8.9184,-8.9184,-8.9184,-8.9184,-8.9184,-8.9184,-8.9184,-8.9184,-8.9184,-8.8805,-8.7981,-8.5891,-8.3464,-8.0957,-7.7895,-7.5222,-7.2967,-7.182,-7.0985,-7.079,-7.079,-7.079,-7.079,-7.079,-7.079,-7.079,-7.079,-7.079,-7.079,-7.079,-7.079,-7.079,-7.079,-7.079,-7.079,-7.079,-7.079,-7.079,-7.079,-7.079,-7.079,-7.079,-7.079,-7.079,-7.079,-7.079,-7.079,-7.079,-7.079,-7.079,-7.079,-7.079,-7.079,-7.079,-7.079,-7.0698,-7.0674,-7.0422,-6.9867,-6.8702,-6.7503,-6.6436,-6.5242,-6.2803,-6.0611,-5.9134,-5.7858,-5.7468,-5.7022,-11.8806,-11.8806,-11.8806,-11.8806,-11.8806,-11.8806,-11.8806,-11.8806,-11.8806,-11.8806,-11.8806,-11.8806,-11.8806,-11.8806,-11.8806,-11.8806,-11.8806,-11.8806,-11.8516,-11.7131,-11.3634,-10.9886,-10.649,-10.2531,-9.9356,-9.7078,-9.6671,-9.6671,-9.6671,-9.6671,-9.6671,-9.6671,-9.6671,-9.6671,-9.6671,-9.6671,-9.6671,-9.6671,-9.6558,-9.5645,-9.4206,-9.3162,-9.2034,-9.0285,-8.9551,-8.9241,-8.9184,-8.9184,-8.9184,-8.9184,-8.9184,-8.9184,-8.9184,-8.9184,-8.9184,-8.9097,-8.8541,-8.6463,-8.3397,-8.0294,-7.7307,-7.4614,-7.2894,-7.1796,-7.1083,-7.079,-7.079,-7.079,-7.079,-7.079,-7.079,-7.079,-7.079,-7.079,-7.079,-7.079,-7.079,-7.079,-7.079,-7.079,-7.079,-7.079,-7.079,-7.079,-7.079,-7.079,-7.079,-7.079,-7.079,-7.079,-7.079,-7.079,-7.079,-7.079,-7.079,-7.079,-7.079,-7.079,-7.079,-7.079,-7.079,-7.079,-7.079,-7.0606,-7.0422,-6.9843,-6.8959,-6.7833,-6.6655,-6.4728,-6.2726,-6.0606,-5.8637,-5.8041,-5.6317,-11.8806,-11.8806,-11.8806,-11.8806,-11.8806,-11.8806,-11.8806,-11.8806,-11.8806,-11.8806,-11.8806,-11.8806,-11.8806,-11.8806,-11.8806,-11.8806,-11.8806,-11.8709,-11.8097,-11.6265,-11.2191,-10.8448,-10.5399,-10.117,-9.8108,-9.6983,-9.6671,-9.6671,-9.6671,-9.6671,-9.6671,-9.6671,-9.6671,-9.6671,-9.6671,-9.6671,-9.6671,-9.6671,-9.6671,-9.5617,-9.3896,-9.3162,-9.1583,-9.0003,-8.9213,-8.9184,-8.9184,-8.9184,-8.9184,-8.9184,-8.9184,-8.9184,-8.9184,-8.9184,-8.9184,-8.8629,-8.7273,-8.5234,-8.2866,-7.9907,-7.6854,-7.3981,-7.2528,-7.1767,-7.1083,-7.079,-7.079,-7.079,-7.079,-7.079,-7.079,-7.079,-7.079,-7.079,-7.079,-7.079,-7.079,-7.079,-7.079,-7.079,-7.079,-7.079,-7.079,-7.079,-7.079,-7.079,-7.079,-7.079,-7.079,-7.079,-7.079,-7.079,-7.079,-7.079,-7.079,-7.079,-7.079,-7.079,-7.079,-7.079,-7.079,-7.079,-7.079,-7.0692,-7.079,-7.0305,-6.9433,-6.8527,-6.7809,-6.5747,-6.2913,-6.1047,-5.9439,-5.7369,-5.5343,-11.8806,-11.8806,-11.8806,-11.8806,-11.8806,-11.8806,-11.8806,-11.8806,-11.8806,-11.8806,-11.8806,-11.8806,-11.8806,-11.8806,-11.8806,-11.8806,-11.8806,-11.8709,-11.784,-11.5607,-11.0915,-10.7366,-10.4316,-10.0503,-9.7087,-9.6671,-9.6671,-9.6671,-9.6671,-9.6671,-9.6671,-9.6671,-9.6671,-9.6671,-9.6671,-9.6671,-9.6671,-9.6671,-9.6671,-9.6464,-9.542,-9.3988,-9.1695,-8.9583,-8.9184,-8.9184,-8.9184,-8.9184,-8.9184,-8.9184,-8.9184,-8.9184,-8.9184,-8.9184,-8.9184,-8.8893,-8.7183,-8.4748,-8.2139,-7.9097,-7.5786,-7.3412,-7.1836,-7.1156,-7.079,-7.079,-7.079,-7.079,-7.079,-7.079,-7.079,-7.079,-7.079,-7.079,-7.079,-7.079,-7.079,-7.079,-7.079,-7.079,-7.079,-7.079,-7.079,-7.079,-7.079,-7.079,-7.079,-7.079,-7.079,-7.079,-7.079,-7.079,-7.079,-7.079,-7.079,-7.079,-7.079,-7.079,-7.079,-7.079,-7.079,-7.0765,-7.0521,-7.035,-7.0374,-6.9844,-6.9534,-6.8813,-6.7711,-6.6005,-6.3146,-6.0855,-5.9209,-5.7274,-5.504,-11.8806,-11.8806,-11.8806,-11.8806,-11.8806,-11.8806,-11.8806,-11.8806,-11.8806,-11.8806,-11.8806,-11.8806,-11.8806,-11.8806,-11.8806,-11.8806,-11.8516,-11.8162,-11.6938,-11.4583,-10.9623,-10.5845,-10.3847,-9.9177,-9.7143,-9.6671,-9.6671,-9.6671,-9.6671,-9.6671,-9.6671,-9.6671,-9.6671,-9.6671,-9.6671,-9.6671,-9.6671,-9.6671,-9.6671,-9.6548,-9.6417,-9.4094,-9.1695,-8.9978,-8.9184,-8.9184,-8.9184,-8.9184,-8.9184,-8.9184,-8.9184,-8.9184,-8.9184,-8.9184,-8.9184,-8.8605,-8.5888,-8.3399,-8.2665,-7.7589,-7.4865,-7.3399,-7.1746,-7.093,-7.079,-7.079,-7.079,-7.079,-7.079,-7.079,-7.079,-7.079,-7.079,-7.079,-7.079,-7.079,-7.079,-7.079,-7.079,-7.079,-7.079,-7.079,-7.079,-7.079,-7.079,-7.079,-7.079,-7.079,-7.079,-7.079,-7.079,-7.079,-7.079,-7.079,-7.079,-7.079,-7.079,-7.079,-7.079,-7.079,-7.0765,-7.0716,-7.0472,-6.9771,-6.916,-6.8672,-6.8364,-6.8217,-6.7368,-6.6206,-6.3285,-6.0694,-5.897,-5.7152,-5.4926,-11.8806,-11.8806,-11.8806,-11.8806,-11.8806,-11.8806,-11.8806,-11.8806,-11.8806,-11.8806,-11.8806,-11.8806,-11.8806,-11.8806,-11.8806,-11.8806,-11.8452,-11.7309,-11.5606,-11.2684,-10.8493,-10.4533,-10.2584,-9.8612,-9.6766,-9.6671,-9.6671,-9.6671,-9.6671,-9.6671,-9.6671,-9.6671,-9.6671,-9.6671,-9.6671,-9.6671,-9.6671,-9.6671,-9.6671,-9.6671,-9.604,-9.415,-9.1695,-8.9523,-8.9184,-8.9184,-8.9184,-8.9184,-8.9184,-8.9184,-8.9184,-8.9184,-8.9184,-8.9184,-8.9184,-8.8404,-8.5208,-8.2873,-8.2049,-7.6882,-7.4221,-7.337,-7.2058,-7.079,-7.079,-7.079,-7.079,-7.079,-7.079,-7.079,-7.079,-7.079,-7.079,-7.079,-7.079,-7.079,-7.079,-7.079,-7.079,-7.079,-7.079,-7.079,-7.079,-7.079,-7.079,-7.079,-7.079,-7.079,-7.079,-7.079,-7.079,-7.079,-7.079,-7.079,-7.0765,-7.0765,-7.0545,-7.0497,-7.0137,-7.0137,-6.9935,-7.0203,-6.9819,-6.877,-6.8038,-6.7647,-6.7403,-6.7257,-6.6518,-6.5565,-6.3174,-6.05,-5.8814,-5.7087,-5.4867,-11.8806,-11.8806,-11.8806,-11.8806,-11.8806,-11.8806,-11.8806,-11.8806,-11.8806,-11.8806,-11.8806,-11.8806,-11.8806,-11.8806,-11.8806,-11.8774,-11.8355,-11.7116,-11.42,-11.0868,-10.6942,-10.4028,-10.1055,-9.8491,-9.6671,-9.6671,-9.6671,-9.6671,-9.6671,-9.6671,-9.6671,-9.6671,-9.6671,-9.6671,-9.6671,-9.6671,-9.6671,-9.6671,-9.6576,-9.6548,-9.604,-9.4094,-9.1752,-8.9777,-8.9269,-8.9184,-8.9184,-8.9184,-8.9184,-8.9184,-8.9184,-8.9184,-8.9184,-8.9184,-8.9184,-8.8984,-8.5647,-8.2989,-8.0755,-7.7173,-7.3595,-7.131,-7.0882,-7.0882,-7.079,-7.079,-7.079,-7.079,-7.079,-7.079,-7.079,-7.079,-7.079,-7.079,-7.079,-7.079,-7.079,-7.079,-7.079,-7.079,-7.079,-7.079,-7.079,-7.079,-7.079,-7.079,-7.079,-7.079,-7.079,-7.079,-7.0765,-7.0857,-7.079,-7.079,-7.0716,-7.0643,-6.999,-6.9722,-6.9168,-6.8754,-6.8306,-6.8209,-6.7843,-6.7208,-6.6964,-6.672,-6.6452,-6.6232,-6.561,-6.4527,-6.2793,-6.0704,-5.8803,-5.6932,-5.5124,-11.8806,-11.8806,-11.8806,-11.8806,-11.8806,-11.8806,-11.8806,-11.8806,-11.8806,-11.8806,-11.8806,-11.8806,-11.8806,-11.8806,-11.8774,-11.8291,-11.7647,-11.6842,-11.3992,-10.9536,-10.5913,-10.3055,-10.0252,-9.8058,-9.6766,-9.6955,-9.6766,-9.6671,-9.6671,-9.6671,-9.6671,-9.6671,-9.6671,-9.6671,-9.6671,-9.6671,-9.6671,-9.6671,-9.6576,-9.621,-9.5476,-9.3783,-9.1893,-9.051,-8.9551,-8.9184,-8.9184,-8.9184,-8.9184,-8.9184,-8.9184,-8.9184,-8.9184,-8.9184,-8.8818,-8.788,-8.5259,-8.2509,-8.0356,-7.7458,-7.4564,-7.2494,-7.2289,-7.1745,-7.104,-7.079,-7.079,-7.079,-7.079,-7.079,-7.079,-7.079,-7.079,-7.079,-7.079,-7.079,-7.079,-7.079,-7.079,-7.079,-7.079,-7.079,-7.079,-7.079,-7.079,-7.0973,-7.0973,-7.0949,-7.0949,-7.0949,-7.0949,-7.104,-7.0949,-7.0735,-7.0637,-7.0154,-6.9544,-6.9006,-6.8493,-6.7769,-6.7198,-6.6549,-6.5988,-6.5695,-6.5475,-6.5353,-6.5549,-6.5207,-6.4792,-6.4115,-6.3018,-6.0957,-5.9107,-5.745,-5.5676,-11.8806,-11.8806,-11.8806,-11.8806,-11.8806,-11.8806,-11.8806,-11.8806,-11.8806,-11.8806,-11.8806,-11.8806,-11.8613,-11.8291,-11.813,-11.7518,-11.623,-11.5475,-11.3768,-10.9277,-10.5466,-10.2225,-9.956,-9.8022,-9.7143,-9.7143,-9.6955,-9.6766,-9.6671,-9.6671,-9.6671,-9.6671,-9.6671,-9.6671,-9.6671,-9.6671,-9.6671,-9.6615,-9.6238,-9.5617,-9.4658,-9.3275,-9.1893,-9.0901,-8.9805,-8.9241,-8.9184,-8.9184,-8.9184,-8.9184,-8.9184,-8.9184,-8.91,-8.8874,-8.8281,-8.6922,-8.429,-8.188,-8.0384,-7.7583,-7.4855,-7.3405,-7.2804,-7.2289,-7.0857,-7.079,-7.079,-7.079,-7.079,-7.079,-7.079,-7.079,-7.079,-7.079,-7.079,-7.0949,-7.129,-7.129,-7.104,-7.0949,-7.0949,-7.0949,-7.104,-7.104,-7.104,-7.1065,-7.1132,-7.1199,-7.1315,-7.1315,-7.1406,-7.1588,-7.1275,-7.0666,-7.0354,-6.9772,-6.9182,-6.8616,-6.7827,-6.7078,-6.638,-6.5792,-6.5292,-6.4827,-6.4388,-6.4485,-6.4827,-6.4559,-6.4632,-6.4006,-6.3163,-6.1731,-6.0155,-5.8116,-5.6264,-11.8806,-11.8806,-11.8806,-11.8806,-11.8806,-11.8806,-11.8806,-11.8806,-11.8806,-11.8806,-11.8741,-11.8774,-11.8033,-11.6874,-11.6938,-11.6069,-11.4652,-11.3719,-11.2412,-11.0205,-10.6201,-10.1701,-9.8975,-9.8043,-9.7763,-9.7548,-9.736,-9.7049,-9.6766,-9.6671,-9.6671,-9.6671,-9.6671,-9.6671,-9.6671,-9.6671,-9.6671,-9.6266,-9.5561,-9.4855,-9.4009,-9.2394,-9.13,-9.0619,-8.9692,-8.9241,-8.9184,-8.9184,-8.9184,-8.9184,-8.9184,-8.9128,-8.8959,-8.7999,-8.735,-8.6474,-8.3575,-8.1285,-8.0225,-7.6825,-7.3912,-7.3405,-7.2108,-7.0857,-7.0857,-7.079,-7.079,-7.079,-7.079,-7.079,-7.079,-7.079,-7.0857,-7.1199,-7.104,-7.1811,-7.2907,-7.2689,-7.177,-7.1381,-7.1265,-7.1563,-7.1654,-7.1654,-7.1472,-7.1588,-7.1679,-7.177,-7.1861,-7.1522,-7.1398,-7.1579,-7.1107,-7.0585,-6.9911,-6.924,-6.8597,-6.8103,-6.7288,-6.6403,-6.5763,-6.53,-6.4667,-6.4388,-6.4388,-6.4388,-6.4388,-6.4388,-6.4437,-6.4053,-6.3861,-6.28,-6.1388,-5.9283,-5.7339,-11.8806,-11.8806,-11.8806,-11.8806,-11.8806,-11.8806,-11.8806,-11.8806,-11.8806,-11.8806,-11.858,-11.7969,-11.7196,-11.6584,-11.5779,-11.462,-11.33,-11.2592,-11.1883,-11.0469,-10.6097,-10.1993,-9.922,-9.823,-9.823,-9.8079,-9.7641,-9.7266,-9.7049,-9.6766,-9.6671,-9.6671,-9.6671,-9.6671,-9.6671,-9.6643,-9.6238,-9.5504,-9.5053,-9.3924,-9.2592,-9.1408,-9.0647,-8.9918,-8.9551,-8.9184,-8.9184,-8.9184,-8.9184,-8.9184,-8.9156,-8.8846,-8.814,-8.7491,-8.6589,-8.5093,-8.3526,-8.1466,-7.98,-7.7991,-7.57,-7.3824,-7.2893,-7.1927,-7.104,-7.079,-7.079,-7.079,-7.079,-7.079,-7.079,-7.079,-7.1356,-7.2369,-7.2907,-7.3557,-7.4303,-7.3226,-7.2624,-7.2868,-7.2534,-7.1861,-7.2017,-7.1951,-7.1951,-7.2108,-7.2404,-7.2404,-7.2434,-7.1575,-7.1087,-7.0915,-7.0491,-6.9879,-6.9206,-6.8374,-6.7703,-6.7504,-6.6824,-6.5946,-6.5408,-6.5001,-6.453,-6.4388,-6.4388,-6.4388,-6.4388,-6.4388,-6.4388,-6.4388,-6.4388,-6.3585,-6.2096,-6.0265,-5.8491,-11.8806,-11.8806,-11.8806,-11.8806,-11.8806,-11.8806,-11.8806,-11.8774,-11.8387,-11.8097,-11.7872,-11.6713,-11.5811,-11.5393,-11.433,-11.3139,-11.2077,-11.1722,-11.1111,-10.9712,-10.6124,-10.2688,-10.016,-9.8912,-9.8572,-9.845,-9.7922,-9.7482,-9.7143,-9.6766,-9.6643,-9.6766,-9.686,-9.686,-9.6842,-9.6587,-9.5748,-9.4985,-9.4391,-9.2949,-9.1451,-9.0914,-9.0264,-8.9416,-8.93,-8.9184,-8.9184,-8.9184,-8.9184,-8.9184,-8.893,-8.8197,-8.7379,-8.6532,-8.5404,-8.3854,-8.2767,-8.1216,-7.9201,-7.7811,-7.6476,-7.4328,-7.3137,-7.2444,-7.1588,-7.1223,-7.0949,-7.0949,-7.0949,-7.0949,-7.0949,-7.0949,-7.2058,-7.3836,-7.504,-7.5734,-7.5561,-7.424,-7.3315,-7.414,-7.3519,-7.3034,-7.2764,-7.2519,-7.2559,-7.3073,-7.3073,-7.2804,-7.3023,-7.2401,-7.1081,-7.0716,-6.985,-6.909,-6.8454,-6.7544,-6.707,-6.7004,-6.6579,-6.5853,-6.5524,-6.5252,-6.4946,-6.453,-6.4613,-6.4447,-6.4447,-6.4388,-6.4388,-6.4388,-6.4137,-6.3669,-6.2352,-6.0871,-5.902,-11.8806,-11.8806,-11.8806,-11.8806,-11.8806,-11.8677,-11.8613,-11.8484,-11.7325,-11.6777,-11.6488,-11.5232,-11.3944,-11.2882,-11.2624,-11.1755,-11.0563,-11.0499,-11.037,-10.9343,-10.656,-10.3915,-10.1908,-10.0038,-9.9032,-9.8387,-9.8137,-9.7641,-9.7021,-9.686,-9.686,-9.7209,-9.7246,-9.7519,-9.7364,-9.6266,-9.5398,-9.4801,-9.3062,-9.2067,-9.1585,-9.0562,-8.991,-8.9795,-8.9506,-8.9272,-8.9272,-8.9359,-8.9272,-8.9015,-8.8142,-8.7464,-8.6871,-8.5009,-8.3965,-8.3403,-8.0747,-7.9478,-7.848,-7.6621,-7.4855,-7.544,-7.329,-7.1654,-7.3008,-7.1992,-7.129,-7.129,-7.1381,-7.129,-7.129,-7.129,-7.2599,-7.4592,-7.6192,-7.7419,-7.773,-7.6766,-7.544,-7.414,-7.4431,-7.4933,-7.3799,-7.3327,-7.3912,-7.469,-7.4251,-7.3624,-7.3466,-7.2168,-7.1344,-7.0249,-6.9126,-6.8477,-6.8116,-6.7277,-6.6867,-6.6823,-6.6704,-6.6319,-6.6074,-6.5992,-6.5771,-6.517,-6.4838,-6.4672,-6.453,-6.4388,-6.4388,-6.4388,-6.3945,-6.3223,-6.2096,-6.0675,-5.8821,-11.8806,-11.8806,-11.8806,-11.8806,-11.8709,-11.7775,-11.7421,-11.7228,-11.5908,-11.5296,-11.5007,-11.3751,-11.2817,-11.2238,-11.1368,-11.0692,-11.0241,-11.0209,-11.0209,-10.9692,-10.656,-10.4672,-10.3691,-10.0996,-9.9307,-9.9032,-9.8635,-9.8329,-9.7958,-9.7735,-9.7641,-9.7657,-9.7,-9.6813,-9.679,-9.5491,-9.4228,-9.3425,-9.2568,-9.1741,-9.1085,-9.0543,-9.0285,-9.0285,-9.0141,-8.994,-8.968,-8.9882,-8.9598,-8.8601,-8.809,-8.6786,-8.5092,-8.4134,-8.3231,-8.2229,-8.0414,-7.9534,-8.0274,-7.7388,-7.5847,-7.5787,-7.4126,-7.2933,-7.2264,-7.1927,-7.1563,-7.177,-7.1927,-7.1836,-7.1861,-7.1861,-7.3557,-7.6878,-7.6443,-7.6872,-7.9561,-7.8899,-7.7415,-7.6674,-7.6271,-7.5753,-7.5431,-7.503,-7.5231,-7.4981,-7.4619,-7.4142,-7.1911,-7.0802,-6.9954,-6.915,-6.8337,-6.7905,-6.7575,-6.7188,-6.6726,-6.6782,-6.6863,-6.6645,-6.6482,-6.6401,-6.6238,-6.5639,-6.5227,-6.5004,-6.453,-6.4471,-6.4388,-6.4388,-6.4304,-6.3247,-6.1987,-6.0502,-5.8734,-11.8516,-11.8162,-11.813,-11.7872,-11.7292,-11.6391,-11.5972,-11.5844,-11.4459,-11.3815,-11.3558,-11.2302,-11.169,-11.14,-11.066,-11.0209,-11.0209,-11.0177,-10.9876,-10.894,-10.6349,-10.4672,-10.3575,-10.0907,-9.9581,-9.9432,-9.8627,-9.792,-9.7242,-9.6968,-9.7054,-9.7031,-9.6198,-9.5915,-9.6071,-9.4651,-9.3528,-9.2638,-9.2149,-9.1634,-9.083,-9.0744,-9.0744,-9.0744,-9.0658,-9.0343,-8.9743,-9.0141,-8.9509,-8.7689,-8.78,-8.6636,-8.4322,-8.3476,-8.2882,-8.1986,-8.0682,-8.06,-8.0981,-7.8677,-7.6851,-7.6364,-7.4566,-7.3201,-7.2689,-7.2779,-7.2624,-7.2339,-7.2919,-7.2829,-7.2494,-7.2339,-7.3938,-7.7642,-7.6984,-7.7723,-7.9093,-7.9148,-7.8733,-7.8147,-7.7979,-7.7116,-7.6138,-7.5579,-7.536,-7.5018,-7.3752,-7.3081,-7.1454,-7.0206,-6.8674,-6.8083,-6.7549,-6.7041,-6.7117,-6.696,-6.6782,-6.6863,-6.6863,-6.6701,-6.6645,-6.6564,-6.6376,-6.6049,-6.5721,-6.5335,-6.478,-6.453,-6.4471,-6.4471,-6.4304,-6.3247,-6.1816,-6.0155,-5.8469,-11.7743,-11.6616,-11.6649,-11.5844,-11.491,-11.462,-11.4491,-11.4266,-11.2978,-11.2334,-11.2205,-11.095,-11.0435,-11.0306,-11.0274,-11.0209,-11.0145,-11.0016,-10.9208,-10.766,-10.5632,-10.3779,-10.2331,-10.0167,-9.9145,-9.9054,-9.7764,-9.6186,-9.4878,-9.4906,-9.4967,-9.518,-9.524,-9.5272,-9.5742,-9.4,-9.3075,-9.2786,-9.192,-9.1257,-9.1227,-9.1227,-9.1142,-9.1142,-9.0714,-9.0168,-8.9383,-8.9741,-8.8938,-8.7098,-8.72,-8.638,-8.4276,-8.3171,-8.246,-8.2403,-8.2244,-8.1599,-8.0354,-7.8677,-7.7446,-7.6707,-7.4266,-7.3341,-7.438,-7.4845,-7.4343,-7.3417,-7.4103,-7.4783,-7.3327,-7.2994,-7.3989,-7.6046,-7.8342,-7.8787,-7.7979,-7.8063,-7.8315,-7.7557,-7.8818,-7.9229,-7.6102,-7.5061,-7.5301,-7.4929,-7.3092,-7.149,-7.2379,-7.0138,-6.831,-6.7458,-6.7101,-6.6863,-6.6863,-6.6863,-6.6863,-6.6863,-6.6863,-6.6863,-6.6701,-6.6701,-6.6539,-6.6457,-6.6131,-6.5828,-6.5277,-6.5029,-6.4863,-6.453,-6.4196,-6.3669,-6.1816,-5.9807,-5.8116,-11.2399,-11.3622,-11.3719,-11.3976,-11.433,-11.3461,-11.3043,-11.2849,-11.1497,-11.0885,-11.0821,-11.0402,-11.0209,-11.0209,-11.0209,-11.0209,-11.0113,-10.9211,-10.8463,-10.7582,-10.3983,-10.1863,-10.0877,-9.8367,-9.6993,-9.6906,-9.6439,-9.5943,-9.5361,-9.5332,-9.5391,-9.548,-9.4696,-9.4405,-9.4259,-9.3012,-9.2374,-9.226,-9.1912,-9.168,-9.168,-9.168,-9.1651,-9.1564,-9.0755,-8.9658,-8.8518,-8.8623,-8.7799,-8.6187,-8.6066,-8.5329,-8.3594,-8.2971,-8.285,-8.2664,-8.1651,-8.0707,-8.0191,-7.8789,-7.7334,-7.5787,-7.4881,-7.4077,-7.3748,-7.3748,-7.3684,-7.3646,-7.4091,-7.4721,-7.4783,-7.4129,-7.4695,-7.733,-7.6872,-7.7495,-8.0923,-7.9972,-7.9314,-7.9505,-7.928,-7.7639,-7.5739,-7.6244,-7.6216,-7.5831,-7.4042,-7.2376,-7.2003,-6.9625,-6.7518,-6.8334,-6.7483,-6.6944,-6.6863,-6.6863,-6.6863,-6.6863,-6.6863,-6.6863,-6.6782,-6.6782,-6.6782,-6.6757,-6.6539,-6.6238,-6.5936,-6.5582,-6.5252,-6.4838,-6.43,-6.3103,-6.1053,-5.928,-5.7189,-10.9469,-11.1529,-11.1561,-11.2077,-11.2817,-11.198,-11.1561,-11.1465,-11.0563,-11.0209,-11.0209,-11.0209,-11.0209,-11.0113,-10.9147,-10.8664,-10.8599,-10.7762,-10.727,-10.6774,-10.2879,-10.0898,-10.0547,-9.7469,-9.583,-9.5772,-9.5393,-9.4957,-9.4463,-9.4405,-9.4375,-9.423,-9.3561,-9.3183,-9.3038,-9.234,-9.1962,-9.1962,-9.1962,-9.1962,-9.1962,-9.1962,-9.1438,-9.0566,-8.9751,-8.8704,-8.7395,-8.7366,-8.6626,-8.5141,-8.5084,-8.455,-8.3565,-8.3293,-8.3186,-8.3029,-8.1543,-8.0654,-8.0707,-7.9917,-7.8539,-7.6536,-7.6072,-7.5231,-7.4291,-7.4077,-7.3926,-7.3888,-7.4154,-7.537,-7.6417,-7.6185,-7.647,-7.8426,-7.8117,-7.9451,-8.1727,-8.1012,-7.9929,-8.0986,-7.9187,-7.6907,-7.6096,-7.5941,-7.5747,-7.4537,-7.2506,-7.12,-7.0376,-6.8706,-6.7238,-6.7938,-6.7563,-6.6863,-6.6863,-6.6863,-6.6863,-6.6863,-6.6863,-6.6863,-6.6863,-6.6863,-6.6863,-6.6782,-6.6782,-6.6482,-6.6351,-6.5942,-6.517,-6.4715,-6.3655,-6.2204,-5.9801,-5.7654,-5.5812,-10.8599,-10.9662,-10.9855,-10.9855,-11.0048,-11.0177,-11.0177,-11.0113,-11.0177,-11.0113,-11.0016,-11.0016,-11.0048,-10.9694,-10.7312,-10.6024,-10.5983,-10.5887,-10.5895,-10.5468,-10.2378,-10.0732,-10.0443,-9.7376,-9.5684,-9.5248,-9.423,-9.3241,-9.2194,-9.2078,-9.1962,-9.2049,-9.2107,-9.1962,-9.1874,-9.1787,-9.1816,-9.1525,-9.1496,-9.1642,-9.1671,-9.1671,-9.042,-8.8355,-8.7977,-8.7366,-8.6232,-8.6058,-8.5456,-8.4235,-8.4264,-8.41,-8.3994,-8.3732,-8.3499,-8.3129,-8.1891,-8.1196,-8.1302,-8.1193,-8.0326,-7.8733,-7.6963,-7.6106,-7.5553,-7.5726,-7.5318,-7.4002,-7.5431,-7.6733,-7.7922,-7.8033,-7.8677,-7.9065,-8.1618,-8.2249,-8.1853,-8.046,-8.0519,-8.1107,-7.919,-7.701,-7.5887,-7.4518,-7.3634,-7.2436,-6.9674,-6.8441,-6.9726,-6.8495,-6.7403,-6.7322,-6.7187,-6.6863,-6.6863,-6.6863,-6.6863,-6.6863,-6.6863,-6.6863,-6.6863,-6.6863,-6.6863,-6.6863,-6.6782,-6.6782,-6.665,-6.6087,-6.5062,-6.3639,-6.2455,-6.1036,-5.8514,-5.6302,-5.4725,-10.377,-10.4221,-10.5187,-10.6185,-10.7312,-10.9308,-10.9597,-10.8889,-10.9758,-10.963,-10.8654,-10.8696,-10.8149,-10.7118,-10.6346,-10.5991,-10.583,-10.4825,-10.4414,-10.4,-10.1205,-9.9163,-9.7794,-9.5761,-9.4238,-9.3091,-9.2689,-9.2311,-9.202,-9.1962,-9.1962,-9.1962,-9.1962,-9.1496,-9.0653,-9.0566,-9.01,-8.9257,-8.9111,-8.914,-8.9111,-8.9111,-8.8326,-8.6843,-8.6668,-8.6058,-8.4729,-8.47,-8.4497,-8.4177,-8.4177,-8.3577,-8.2527,-8.3392,-8.2815,-8.057,-8.0979,-8.0979,-7.9753,-7.9671,-7.8843,-7.7133,-7.6536,-7.5753,-7.4845,-7.5492,-7.59,-7.5579,-7.7075,-7.6904,-7.5952,-7.7442,-7.8816,-7.8928,-7.8735,-8.0004,-8.1672,-7.9787,-7.8532,-7.883,-7.7732,-7.5971,-7.4622,-7.4231,-7.4343,-7.4579,-7.3192,-7.2551,-7.2503,-7.0319,-6.8574,-6.8627,-6.7563,-6.6944,-6.6863,-6.6863,-6.6863,-6.6863,-6.6863,-6.6863,-6.6863,-6.6863,-6.6838,-6.6254,-6.6711,-6.6524,-6.5312,-6.4448,-6.3491,-6.1622,-6.0376,-5.9313,-5.6986,-5.6136,-5.4566,-10.1875,-10.1999,-10.3899,-10.5469,-10.6957,-10.8632,-10.8535,-10.727,-10.8116,-10.802,-10.7142,-10.653,-10.5573,-10.4285,-10.4285,-10.4285,-10.4221,-10.3384,-10.2997,-10.269,-9.9786,-9.7757,-9.6582,-9.455,-9.2958,-9.2046,-9.1962,-9.1962,-9.1874,-9.1409,-9.0885,-9.0391,-9.0362,-8.9984,-8.9315,-8.9228,-8.885,-8.8064,-8.8035,-8.7541,-8.6639,-8.6494,-8.6116,-8.5369,-8.5389,-8.4875,-8.4264,-8.4177,-8.4177,-8.4177,-8.4177,-8.3421,-8.1783,-8.2607,-8.1567,-7.8315,-7.9506,-7.9753,-7.7979,-7.851,-7.8147,-7.639,-7.6192,-7.6132,-7.5865,-7.5986,-7.6192,-7.6192,-7.6529,-7.6462,-7.5408,-7.6324,-7.7559,-7.8155,-7.7788,-7.8476,-8.1267,-7.9468,-7.8039,-7.7954,-7.7057,-7.5819,-7.5088,-7.5048,-7.5013,-7.4247,-7.2448,-7.0781,-7.1038,-6.9621,-6.8415,-6.8256,-6.7563,-6.6944,-6.6863,-6.6863,-6.6863,-6.6863,-6.6863,-6.6584,-6.6355,-6.6228,-6.5999,-6.5517,-6.5364,-6.4718,-6.3474,-6.3087,-6.2455,-6.1369,-5.9972,-5.7922,-5.5065,-5.4191,-5.3535,-10.1746,-10.2294,-10.4414,-10.6442,-10.7464,-10.7753,-10.7045,-10.5823,-10.5887,-10.5823,-10.5444,-10.415,-10.2965,-10.1811,-10.1714,-10.165,-10.142,-10.142,-10.1318,-10.0805,-9.8087,-9.6445,-9.5754,-9.3194,-9.1751,-9.1525,-9.1467,-9.1351,-9.1293,-9.0362,-8.9257,-8.8152,-8.8035,-8.8064,-8.7861,-8.7861,-8.7803,-8.7686,-8.7686,-8.6581,-8.4323,-8.4177,-8.4177,-8.4177,-8.4177,-8.4177,-8.4177,-8.4177,-8.4177,-8.4177,-8.3994,-8.3186,-8.1863,-8.1322,-7.967,-7.6436,-7.7488,-7.7655,-7.6191,-7.7488,-7.7545,-7.6205,-7.6007,-7.6547,-7.7838,-7.6776,-7.5849,-7.5684,-7.4806,-7.4974,-7.6005,-7.5952,-7.62,-7.7102,-7.7536,-7.8488,-7.9551,-7.9063,-7.838,-7.8351,-7.7207,-7.6465,-7.6015,-7.5957,-7.5028,-7.2617,-7.0293,-6.8706,-6.823,-6.7804,-6.7563,-6.7106,-6.6863,-6.6863,-6.6838,-6.6838,-6.6584,-6.6609,-6.6609,-6.5999,-6.5364,-6.506,-6.4882,-6.4323,-6.3737,-6.3377,-6.2737,-6.212,-6.1076,-5.9507,-5.8136,-5.6726,-5.4732,-5.3184,-5.2237,-10.0844,-10.1907,-10.2514,-10.3545,-10.4865,-10.5959,-10.5597,-10.4478,-10.5444,-10.4768,-10.2901,-10.2418,-10.1484,-10.0297,-10.0232,-9.9584,-9.8651,-9.8554,-9.7949,-9.6725,-9.5959,-9.4271,-9.2034,-9.129,-9.0137,-8.8989,-8.8937,-8.8937,-8.8879,-8.8646,-8.8326,-8.8093,-8.8035,-8.7541,-8.6581,-8.6581,-8.6087,-8.5078,-8.502,-8.4807,-8.4177,-8.4177,-8.4177,-8.4177,-8.4177,-8.4177,-8.4177,-8.4177,-8.4177,-8.41,-8.295,-8.2051,-8.1595,-7.9437,-7.7206,-7.5269,-7.4556,-7.4052,-7.3721,-7.4025,-7.4423,-7.4931,-7.5037,-7.4921,-7.4787,-7.407,-7.3638,-7.386,-7.5523,-7.528,-7.3046,-7.5811,-7.7718,-7.4524,-7.6569,-7.7809,-7.7195,-7.7052,-7.7071,-7.7042,-7.6739,-7.6113,-7.5157,-7.4768,-7.3984,-7.2168,-7.1159,-7.0111,-6.9073,-6.8785,-6.8256,-6.7322,-6.6863,-6.6762,-6.6812,-6.6203,-6.572,-6.5644,-6.4983,-6.4424,-6.412,-6.3942,-6.3739,-6.3433,-6.2816,-6.169,-5.9858,-5.8592,-5.728,-5.5951,-5.5087,-5.4106,-5.3401,-5.2827,-5.2535,-10.1199,-10.187,-10.2482,-10.3158,-10.3899,-10.4671,-10.4188,-10.2868,-10.1677,-9.9906,-9.8135,-9.9327,-9.9101,-9.7846,-9.8425,-9.8329,-9.762,-9.762,-9.6722,-9.5289,-9.4452,-9.2863,-9.0701,-8.9801,-8.8965,-8.8116,-8.8035,-8.8035,-8.7977,-8.7425,-8.7163,-8.7134,-8.6581,-8.597,-8.5301,-8.5194,-8.4846,-8.4177,-8.4177,-8.4177,-8.4177,-8.4177,-8.4177,-8.4177,-8.4177,-8.4177,-8.4177,-8.3449,-8.3343,-8.4148,-8.1218,-7.9601,-7.9492,-7.6825,-7.4459,-7.2733,-7.1526,-7.0904,-7.0904,-7.0385,-7.0592,-7.176,-7.2331,-7.2296,-7.1446,-7.107,-7.1137,-7.1662,-7.3229,-7.326,-7.1069,-7.3262,-7.4362,-7.251,-7.3444,-7.4494,-7.5032,-7.5427,-7.58,-7.6465,-7.6564,-7.5971,-7.4478,-7.4259,-7.347,-7.1164,-7.0677,-6.9983,-6.8495,-6.7762,-6.711,-6.6341,-6.5695,-6.5415,-6.5288,-6.4831,-6.4551,-6.4501,-6.3942,-6.3408,-6.2849,-6.2799,-6.257,-6.2088,-6.1079,-5.9763,-5.8785,-5.6894,-5.5376,-5.3826,-5.3386,-5.2853,-5.2853,-5.2853,-5.2853,-10.1001,-10.1323,-10.245,-10.2836,-10.2605,-10.2643,-10.187,-10.0325,-9.6783,-9.4465,-9.3467,-9.5914,-9.63,-9.5206,-9.6429,-9.6876,-9.6644,-9.6644,-9.5709,-9.3928,-9.2497,-9.1053,-8.9624,-8.8199,-8.7483,-8.7512,-8.7483,-8.7512,-8.7395,-8.6378,-8.5883,-8.5659,-8.47,-8.4206,-8.4177,-8.4177,-8.4177,-8.4177,-8.4177,-8.4177,-8.4177,-8.4177,-8.4235,-8.441,-8.4264,-8.4235,-8.441,-8.2613,-8.2369,-8.3626,-7.9486,-7.6961,-7.6878,-7.4063,-7.1572,-6.9932,-6.8502,-6.7651,-6.76,-6.6584,-6.6431,-6.7575,-6.8819,-6.8972,-6.7803,-6.7676,-6.8108,-6.9099,-6.9497,-6.9706,-6.9801,-6.9245,-6.9441,-7.0148,-6.9708,-7.022,-7.2516,-7.3292,-7.4129,-7.532,-7.5989,-7.5695,-7.4542,-7.4263,-7.3174,-7.0628,-6.9855,-6.8864,-6.7304,-6.5847,-6.5136,-6.4907,-6.417,-6.3612,-6.3739,-6.3485,-6.3332,-6.3332,-6.295,-6.2165,-6.1307,-6.0955,-6.0504,-5.9848,-5.8708,-5.7859,-5.766,-5.6066,-5.4666,-5.4275,-5.3544,-5.2933,-5.2853,-5.2474,-5.2318,-9.7266,-9.8393,-9.8618,-9.8039,-9.6944,-9.6944,-9.6139,-9.4755,0.0,0.0,0.0,-9.3853,-9.3918,-9.3725,-9.395,-9.3368,-9.2152,-9.2117,-9.0693,-8.8063,-8.7697,-8.6791,-8.5359,-8.5001,-8.4846,-8.4817,-8.4817,-8.4817,-8.4817,-8.4613,-8.4497,-8.4468,-8.4264,-8.4177,-8.4177,-8.4177,-8.4177,-8.4177,-8.4177,-8.4177,-8.4177,-8.4177,-8.4642,-8.5767,-8.47,-8.4671,-8.5688,-8.3149,-8.1783,-8.1943,-7.8459,-7.6209,-7.5786,-7.1807,-6.9071,-6.8156,-6.4944,-6.3002,-6.2976,-6.2036,-6.1884,-6.2951,-6.4983,-6.5288,-6.3154,-6.3002,-6.3535,-6.4653,-6.5948,-6.6177,-6.4969,-6.6927,-6.7569,-6.5276,-6.718,-6.8139,-6.7698,-6.9515,-7.1338,-7.1826,-7.3583,-7.4839,-7.4327,-7.41,-7.347,-7.1538,-6.9797,-6.8759,-6.7092,-6.5136,-6.3942,-6.3866,-6.3535,-6.3408,-6.3383,-6.2722,-6.2164,-6.1937,-6.0529,-5.923,-5.8857,-5.8132,-5.753,-5.7463,-5.6248,-5.5635,-5.535,-5.4248,-5.3307,-5.3228,-5.299,-5.2853,-5.2719,-5.1583,-5.0634,-9.4819,-9.5431,-9.5431,-9.5012,0.0,-9.4368,-9.2308,-8.8963,-8.8992,-8.8992,-8.912,-9.0505,-9.073,-9.0086,-9.0075,-9.0074,-8.9889,-8.9221,-8.8082,-8.6521,-8.6521,-8.5658,-8.4177,-8.4177,-8.4177,-8.4177,-8.4177,-8.4177,-8.4177,-8.4177,-8.4177,-8.4177,-8.4177,-8.4177,-8.4177,-8.4177,-8.4177,-8.4177,-8.4177,-8.4177,-8.4177,-8.4177,-8.4468,-8.5127,-8.4468,0.0,0.0,0.0,0.0,0.0,0.0,0.0,0.0,0.0,0.0,-6.4003,-6.1565,-5.9881,-5.9369,-5.8302,-5.7896,-5.848,-6.0106,-6.008,-5.7775,-5.8663,-6.008,-6.1756,-6.2553,-6.2933,-6.2798,-6.4123,-6.4655,-6.3843,-6.5007,-6.6373,-6.7007,-6.7806,-6.8782,-7.0257,-7.1154,-7.1114,-7.0379,-7.0097,-6.9369,-6.782,-6.6878,-6.6051,-6.5217,-6.4221,-6.3307,-6.2799,-6.2316,-6.1884,-6.1833,-6.0878,-6.0028,-5.9878,-5.8582,-5.7587,-5.7439,-5.691,-5.6606,-5.6506,-5.5135,-5.409,-5.389,-5.2578,-5.1338,-5.136,-5.136,-5.136,-5.1393,-5.0603,-4.9987,-9.2501,-9.2501,-9.2501,-9.234,-9.205,-9.1825,-8.9217,-8.5102,-8.4555,-8.4491,-8.4909,-8.7221,-8.7584,-8.6546,-8.6618,-8.6991,-8.7621,-8.6814,-8.6191,-8.5719,-8.5987,-8.5387,-8.4225,-8.4177,-8.4177,-8.4177,-8.4177,-8.4177,-8.4177,-8.4177,-8.4177,-8.4177,-8.4177,-8.4177,-8.4148,0.0,0.0,0.0,-8.4061,-8.4177,-8.4177,-8.4177,-8.411,-8.4001,-8.3616,0.0,-8.1137,-7.8049,-7.6282,-7.5902,-7.0164,0.0,0.0,0.0,0.0,0.0,0.0,0.0,0.0,0.0,0.0,0.0,-5.4364,-5.4237,-5.2472,-5.472,-5.7108,-5.911,-5.9064,-5.942,-6.0414,-6.054,-6.1071,-6.2138,-6.2291,-6.3314,-6.5647,-6.5207,-6.5495,-6.811,-6.8054,-6.7243,-6.6164,-6.6154,-6.5854,-6.4683,-6.4047,-6.374,-6.3104,-6.2951,-6.2545,-6.1682,-6.0944,-6.0382,-6.0306,-5.9303,-5.856,-5.8114,-5.7116,-5.5992,-5.5868,-5.5621,-5.5228,-5.5081,-5.3884,-5.2595,-5.2595,-5.1203,-5.0121,-5.0009,-5.0032,-4.9711,-4.8858,-4.8828,-4.8886,-8.9571,-8.9571,-8.9539,-8.8831,-8.7667,-8.6325,-8.6158,-8.6416,-8.4001,-8.359,-8.478,-8.5102,-8.5219,-8.5199,-8.5202,-8.4583,-8.3512,-8.4436,-8.4158,-8.3003,-8.4008,-8.435,-8.4177,-8.4177,-8.4177,-8.4177,-8.4177,-8.4177,-8.4177,-8.4177,-8.4177,-8.4177,-8.4177,-8.4177,-8.4061,-8.2015,-8.1462,-8.2672,-8.3673,-8.4177,-8.4177,-8.4177,-8.4047,-8.3578,-8.1563,-8.0093,-7.9369,-7.5601,-7.3043,-7.2087,-6.8764,-6.5192,-6.1466,-5.9746,-5.8048,0.0,-5.3922,0.0,0.0,0.0,0.0,0.0,0.0,0.0,0.0,-5.1482,-5.4466,-5.5711,-5.4923,-5.4822,-5.5914,-5.6016,-5.6498,-5.7686,-5.7769,-5.7953,-5.837,-5.9298,-6.0125,-6.0553,-6.3297,-6.5162,-6.4887,-6.6812,-6.7463,-6.5569,-6.4965,-6.3815,-6.1466,-6.0741,-6.0715,-6.0512,-6.0382,-6.0087,-5.9915,-5.8981,-5.8089,-5.7842,-5.5639,-5.3762,-5.3663,-5.2261,-5.0917,-5.0894,-5.0684,-5.0399,-5.0391,-5.0159,-4.9875,-4.9697,-4.9481,-4.8304,-4.5273,-4.4828,-4.4862,-8.9024,-8.8927,-8.8154,-8.6062,-8.3293,-8.2681,-8.2721,-8.3228,-8.2005,-8.1419,-8.1391,-8.1391,-8.1033,-8.0423,-7.9649,-7.9396,-7.9371,-7.9885,-8.0165,-8.0343,-8.155,-8.248,-8.3178,-8.3149,-8.3527,-8.4119,-8.3527,-8.3178,-8.3149,-8.248,-8.2131,-8.2131,-8.2131,-8.1782,-8.1055,-7.9921,-7.9688,-8.0212,-8.216,-8.3527,-8.4148,-8.4177,-8.3334,-8.1608,-8.0505,-7.8289,-7.4875,-7.238,-6.9809,-6.714,-6.3894,-6.0792,-5.7591,-5.5203,-5.3411,0.0,0.0,0.0,0.0,0.0,0.0,0.0,0.0,0.0,0.0,0.0,-5.0046,-5.0528,-5.1178,-5.2066,-5.3286,-5.3387,-5.3845,-5.4923,-5.5025,-5.5357,-5.6228,-5.6097,-5.6828,-5.8937,-5.9368,-6.0175,-6.2063,-6.2644,-6.2858,-6.2811,-6.1158,-5.9995,-6.0073,-5.9674,-5.9232,-5.9227,-5.9154,-5.9006,-5.8288,-5.6678,-5.5278,-5.4609,-5.2822,-5.1444,-5.1444,-5.0631,-4.9786,-4.9206,-4.8693,-4.8202,-4.755,-4.7108,-4.6707,-4.6496,-4.5512,-4.3719,-4.1722,-4.2079,-4.2597,-8.7478,-8.7317,-8.4693,-8.2252,-7.9922,-7.8746,-7.8787,-7.9529,-7.8581,-7.793,-7.7388,-7.6986,-7.6337,-7.5338,-7.4041,-7.4042,-7.4999,-7.5426,-7.6198,-7.7216,-7.8787,-8.0241,-8.1479,-8.1508,-8.1928,-8.2771,-8.1899,-8.1362,-8.1013,-8.0008,-7.9688,-7.9892,-7.8729,-7.7711,-7.678,-7.7013,-7.7449,-7.806,-7.9686,-8.1343,-8.3057,-8.2698,-8.1273,-7.8679,-7.8173,-7.5453,-7.0465,-6.8942,-6.6335,-6.2519,-5.9348,-5.6473,-5.3794,-5.0681,0.0,0.0,0.0,0.0,0.0,0.0,0.0,0.0,0.0,-3.9213,-3.8661,0.0,-4.5105,0.0,-4.7302,-4.9182,-5.0564,-5.0681,0.0,0.0,-5.2675,-5.3159,-5.43,-5.3412,-5.3822,-5.6806,-5.5733,-5.5705,-5.8103,-5.7985,-5.7972,-5.8505,-5.6669,-5.616,-5.8556,-5.848,-5.7982,-5.7596,-5.7302,-5.6862,-5.5635,-5.3906,-5.2331,-5.1176,-4.9811,-4.8938,-4.8865,-4.8444,-4.7804,-4.7031,-4.6047,-4.5086,-4.4249,-4.3622,-4.2945,-4.1875,-4.0558,-3.9174,-3.8786,-3.9527,-4.0182,-8.3164,-8.2608,-7.6811,-7.6022,-7.8206,-7.3771,-7.3872,-7.6764,-7.3251,-7.2407,-7.3403,-7.214,-7.1584,-7.1522,-7.0104,0.0,-6.9665,-7.2018,-7.3057,-7.329,-7.5791,-7.7623,-7.8816,-7.8816,-7.8874,-7.8961,-7.8874,-7.8234,-7.7129,-7.6955,-7.7507,-7.8525,-7.4017,-7.1632,-7.1603,-7.2621,-7.4366,-7.6623,-7.5499,-7.6628,-7.9896,-7.8499,-7.6825,-7.5118,-7.3071,-7.0572,-6.7314,-6.5168,-6.2467,-5.9043,-5.6727,-5.3566,-4.9369,0.0,0.0,0.0,0.0,0.0,0.0,0.0,0.0,0.0,0.0,0.0,0.0,0.0,0.0,0.0,-4.2755,0.0,-4.7074,-4.7277,0.0,0.0,0.0,-5.0427,-5.0574,-5.0513,-5.0539,-5.0798,0.0,0.0,-5.2675,-5.4292,-5.5101,-5.4096,-5.4695,-5.5346,-5.56,-5.6397,-5.6711,-5.552,-5.4705,-5.3811,-5.2584,-5.1584,-5.041,-4.916,-4.7225,-4.5923,-4.5696,-4.4209,-4.2828,-4.2478,-4.1416,-4.0385,-4.0316,-4.016,-3.9213,-3.6107,-3.6468,-3.7045,-3.5849,-3.6665,-3.7382,-7.8335,-7.2927,-6.9654,-6.8607,-6.893,-6.6968,-6.6969,-6.8367,-6.6711,-6.6392,-6.7076,-6.6535,-6.5826,-6.5112,-6.4579,0.0,0.0,0.0,-6.7386,-6.82,-6.9975,-7.1952,-7.3872,-7.3998,-7.4308,-7.4977,-7.4279,-7.3668,-7.3174,-7.2418,-7.0425,-6.7262,0.0,0.0,-6.5266,-6.7135,-6.9074,-7.083,-7.2326,-7.4174,-7.6328,-7.6267,-7.4738,-7.1687,-7.076,-6.7896,-6.3053,-6.1376,-5.8917,-5.5593,-5.2764,-4.9801,0.0,0.0,0.0,0.0,0.0,0.0,0.0,0.0,0.0,0.0,0.0,-2.871,-2.9096,0.0,0.0,0.0,-3.9198,-4.1358,-4.3566,-4.3822,0.0,0.0,0.0,0.0,0.0,0.0,0.0,-4.633,-4.8791,-5.1115,-5.2788,-5.1385,-5.0503,-5.133,-5.0732,-5.1138,-5.378,0.0,-5.2779,-5.2312,-5.1429,-5.041,-4.9229,-4.8789,-4.8121,-4.6953,-4.5101,-4.3387,-4.2093,-4.1138,-3.9998,-3.8783,-3.7996,-3.7426,-3.677,-3.5731,-3.4268,-3.2548,-3.2742,-3.3173,-3.3113,-3.3868,-3.4751,-7.1023,0.0,0.0,0.0,0.0,-6.0353,-6.0365,-6.1063,-6.0285,-6.0079,-6.0309,-6.0309,0.0,0.0,0.0,0.0,0.0,0.0,-6.2238,-6.3489,-6.4798,-6.6543,-6.8695,-6.8724,-6.916,-6.9945,-6.9102,-6.8395,-6.7617,-6.5062,-6.1723,-5.7814,0.0,0.0,0.0,0.0,-6.4324,-6.6014,-6.8625,-7.0909,-7.2849,-7.3324,-7.2061,-6.8942,-6.7869,-6.4986,-5.9903,-5.8378,-5.5821,-5.2231,-4.9063,0.0,0.0,0.0,0.0,0.0,0.0,0.0,0.0,0.0,0.0,0.0,0.0,0.0,0.0,0.0,0.0,0.0,0.0,0.0,-3.8292,-3.9323,-4.0428,0.0,0.0,0.0,0.0,0.0,0.0,0.0,0.0,0.0,-5.0615,-4.8094,-4.6704,0.0,0.0,-4.7958,-5.0779,-5.0432,-4.9784,-4.9519,-4.8439,0.0,-4.613,-4.4959,-4.3898,-4.3156,-4.1528,-3.9885,-3.862,-3.7886,-3.7095,-3.5791,-3.5171,-3.4602,-3.3532,-3.1665,-3.0085,-2.9566,-2.9504,-2.9837,-3.0497,-3.1655,-3.2707,0.0,0.0,0.0,0.0,0.0,0.0,0.0,0.0,-5.4083,-5.3272,0.0,-5.3557,0.0,0.0,0.0,0.0,-5.5782,-5.7003,0.0,0.0,-6.0702,-6.2123,-6.3344,-6.3402,-6.3402,-6.3431,-6.3402,-6.2184,-5.9766,-5.4141,0.0,0.0,0.0,0.0,0.0,0.0,-6.0854,-6.3182,-6.4065,-6.6129,-6.9384,-6.91,-6.8304,-6.6974,-6.3816,-6.1069,-5.8612,-5.6397,-5.3286,-4.8962,-4.5873,0.0,0.0,0.0,0.0,0.0,0.0,0.0,0.0,0.0,0.0,0.0,0.0,0.0,0.0,0.0,0.0,0.0,0.0,0.0,0.0,-3.3409,0.0,0.0,0.0,0.0,0.0,0.0,0.0,0.0,0.0,0.0,-4.4159,-4.4065,-4.4452,-4.5168,0.0,0.0,0.0,0.0,-4.8406,-4.746,-4.6001,-4.4568,-4.3434,-3.9949,-3.7349,-3.7309,0.0,0.0,-3.5798,-3.4248,-3.3212,-3.3752,-3.2762,-3.157,-3.0774,-2.8414,-2.669,-2.6749,-2.7179,-2.7511,-2.7975,-2.9784,-3.1407,0.0,0.0,0.0,0.0,0.0,0.0,0.0,0.0,0.0,-4.5699,0.0,-4.6425,0.0,0.0,0.0,0.0,0.0,0.0,0.0,0.0,-5.4419,-5.5618,-5.6261,-5.7694,-5.7923,0.0,-5.6543,-5.3753,0.0,0.0,0.0,0.0,0.0,0.0,0.0,0.0,-5.589,-5.8292,-5.9939,-6.2407,-6.5753,-6.5536,-6.5491,-6.5796,-6.257,-5.8993,-5.5339,-5.1848,-4.9257,0.0,0.0,0.0,0.0,0.0,0.0,0.0,0.0,0.0,0.0,0.0,0.0,0.0,0.0,0.0,0.0,0.0,0.0,0.0,0.0,0.0,0.0,0.0,-3.1477,0.0,0.0,0.0,0.0,0.0,0.0,0.0,0.0,0.0,-3.8702,-4.0,-4.1331,-4.1649,-4.2432,-4.2897,-4.2591,0.0,0.0,0.0,0.0,0.0,0.0,0.0,-3.6946,-3.6277,-3.6093,-3.6013,-3.5711,-3.3799,-3.1939,-3.0564,0.0,0.0,-2.6946,-2.607,-2.5606,-2.5189,-2.4667,-2.4709,-2.5967,-2.6406,-2.6819,0.0,0.0,0.0,0.0,0.0,0.0,0.0,0.0,0.0,-3.8537,-3.9227,0.0,0.0,0.0,0.0,0.0,0.0,0.0,0.0,0.0,0.0,0.0,-5.0122,-5.1628,0.0,0.0,0.0,0.0,0.0,0.0,0.0,0.0,0.0,0.0,0.0,0.0,-5.1691,-5.4457,-5.6554,-5.9353,-6.2713,-6.2919,-6.318,-6.3561,-6.1046,-5.7743,-5.3563,0.0,0.0,0.0,0.0,0.0,0.0,0.0,0.0,0.0,0.0,0.0,0.0,0.0,0.0,0.0,0.0,0.0,0.0,0.0,0.0,0.0,0.0,0.0,0.0,0.0,-2.6424,0.0,0.0,0.0,0.0,0.0,0.0,0.0,0.0,0.0,0.0,0.0,-3.8459,-3.9793,-4.0008,-4.0082,-4.0113,-4.0031,-3.9966,0.0,0.0,0.0,0.0,0.0,0.0,0.0,0.0,0.0,0.0,0.0,0.0,0.0,0.0,-2.6332,-2.4325,-2.3599,-2.3172,-2.2659,0.0,0.0,0.0,0.0,0.0,0.0,0.0,0.0,0.0,0.0,0.0,0.0,0.0,0.0,0.0,-3.2178,0.0,0.0,-3.2648,0.0,0.0,0.0,0.0,0.0,0.0,0.0,0.0,0.0,0.0,0.0,0.0,0.0,0.0,0.0,0.0,0.0,0.0,0.0,0.0,0.0,0.0,-4.8504,-5.176,-5.4038,-5.677,-6.0051,-6.1224,-6.1251,-6.0357,-5.9043,-5.6836,-5.3487,0.0,0.0,0.0,0.0,0.0,0.0,0.0,0.0,0.0,0.0,0.0,0.0,0.0,0.0,0.0,0.0,0.0,0.0,0.0,0.0,0.0,0.0,0.0,0.0,0.0,0.0,-2.2036,-2.3802,-2.5631,0.0,0.0,0.0,0.0,0.0,0.0,0.0,0.0,0.0,-3.9439,-3.9102,-3.8357,-3.8226,-3.7961,-3.7881,-3.7841,-3.6274,-3.5105,-3.5093,-3.2495,-3.0223,0.0,0.0,0.0,0.0,0.0,0.0,0.0,0.0,0.0,0.0,0.0,0.0,0.0,0.0,0.0,0.0,0.0,0.0,0.0,0.0,0.0,0.0,0.0,0.0,0.0,0.0,0.0,0.0,0.0,0.0,0.0,0.0,0.0,0.0,0.0,0.0,0.0,0.0,0.0,0.0,0.0,0.0,0.0,0.0,0.0,0.0,0.0,0.0,0.0,0.0,0.0,0.0,0.0,0.0,-4.6484,-4.8369,-5.1316,-5.4151,-5.6625,-5.8511,-5.9348,-5.9039,-5.7184,-5.4615,0.0,0.0,0.0,0.0,0.0,0.0,0.0,0.0,0.0,0.0,0.0,0.0,0.0,0.0,0.0,0.0,0.0,0.0,0.0,0.0,0.0,0.0,0.0,0.0,0.0,0.0,0.0,0.0,-2.1579,-2.2289,-2.3141,0.0,0.0,0.0,0.0,0.0,0.0,0.0,0.0,0.0,0.0,-3.5358,-3.5455,-3.5672,-3.5867,-3.5867,-3.4002,-3.2613,-3.2594,-3.0215,-2.8301,-2.8085,0.0,0.0,0.0,0.0,0.0,0.0,0.0,0.0,0.0,0.0,0.0,0.0,0.0,0.0,0.0,0.0,0.0,0.0,0.0,0.0,0.0,0.0,0.0,0.0,0.0,0.0,0.0,0.0,0.0,0.0,0.0,0.0,0.0,0.0,0.0,0.0,0.0,0.0,0.0,0.0,0.0,0.0,0.0,0.0,0.0,0.0,0.0,0.0,0.0,0.0,0.0,0.0,0.0,-4.4566,-4.6839,-4.9369,-5.1912,-5.4415,-5.5482,-5.6014,-5.6049,-5.3911,-5.1225,0.0,0.0,0.0,0.0,0.0,0.0,0.0,0.0,0.0,0.0,0.0,0.0,0.0,0.0,0.0,0.0,0.0,0.0,0.0,0.0,0.0,0.0,0.0,0.0,0.0,0.0,0.0,0.0,-1.9541,-1.9987,-1.9882,0.0,0.0,0.0,0.0,0.0,0.0,0.0,0.0,0.0,0.0,-3.186,-3.2926,-3.3233,0.0,0.0,-3.1854,-3.0741,-3.0265,-2.8797,-2.7325,-2.6113,-2.5269,0.0,0.0,0.0,0.0,0.0,0.0,0.0,0.0,0.0,0.0,0.0,0.0,0.0,0.0,0.0,0.0,0.0,0.0,0.0,0.0,0.0,0.0,0.0,0.0,0.0,0.0,0.0,0.0,0.0,0.0,0.0,0.0,0.0,0.0,0.0,0.0,0.0,0.0,0.0,0.0,0.0,0.0,0.0,0.0,0.0,0.0,0.0,0.0,0.0,0.0,0.0,0.0,-4.2702,-4.6339,-4.7828,-4.9975,-5.2862,-5.2142,-5.1759,-5.1796,-4.987,-4.7234,0.0,0.0,0.0,0.0,0.0,0.0,0.0,0.0,0.0,0.0,0.0,0.0,0.0,0.0,0.0,0.0,0.0,0.0,0.0,0.0,0.0,0.0,0.0,0.0,0.0,0.0,0.0,0.0,0.0,0.0,0.0,0.0,0.0,0.0,0.0,0.0,0.0,0.0,0.0,0.0,0.0,-2.8336,-3.084,-3.0723,-3.0313,0.0,-2.9674,-2.926,-2.7988,-2.7753,-2.671,-2.3758,0.0,0.0,0.0,0.0,0.0,0.0,0.0,0.0,0.0,0.0,0.0,0.0,0.0,0.0,0.0,0.0,0.0,0.0,0.0,0.0,0.0,0.0,0.0,0.0,0.0,0.0,0.0,0.0,0.0,0.0,0.0,0.0,0.0,0.0,0.0,0.0,0.0,0.0,0.0,0.0,0.0,0.0,0.0,0.0,0.0,0.0,0.0,0.0,0.0,0.0,0.0,0.0,0.0,0.0,-4.2363,-4.5723,-4.7809,-4.8641,-4.9313,-4.9687,-4.9602,-4.8395,0.0,0.0,0.0,0.0,0.0,0.0,0.0,0.0,0.0,0.0,0.0,0.0,0.0,0.0,0.0,0.0,0.0,0.0,0.0,0.0,0.0,0.0,0.0,0.0,0.0,0.0,0.0,-1.5572,0.0,0.0,0.0,0.0,0.0,0.0,0.0,0.0,0.0,0.0,0.0,0.0,0.0,0.0,-2.7852,-2.9834,-2.9976,-2.9132,0.0,0.0,-2.6504,-2.4298,-2.3445,-2.2543,0.0,0.0,0.0,0.0,0.0,0.0,0.0,0.0,0.0,0.0,0.0,0.0,0.0,0.0,0.0,0.0,0.0,0.0,0.0,0.0,0.0,0.0,0.0,0.0,0.0,0.0,0.0,0.0,0.0,0.0,0.0,0.0,0.0,0.0,0.0,0.0,0.0,0.0,0.0,0.0,0.0,0.0,0.0,0.0,0.0,0.0,0.0,0.0,0.0,0.0,0.0,0.0,0.0,0.0,-3.9187,-4.0904,-4.401,-4.5896,-4.6438,-4.6668,-4.679,-4.6819,-4.585,-4.3298,0.0,0.0,0.0,0.0,0.0,0.0,0.0,0.0,0.0,0.0,0.0,0.0,0.0,0.0,0.0,0.0,0.0,0.0,0.0,0.0,0.0,0.0,0.0,0.0,0.0,0.0,0.0,0.0,0.0,0.0,0.0,0.0,0.0,0.0,0.0,0.0,0.0,0.0,0.0,0.0,0.0,0.0,-2.7843,-2.8111,0.0,0.0,0.0,-2.5862,-2.3213,0.0,0.0,0.0,0.0,0.0,0.0,0.0,0.0,0.0,0.0,0.0,0.0,0.0,0.0,0.0,0.0,0.0,0.0,0.0,0.0,0.0,0.0,0.0,0.0,0.0,0.0,0.0,0.0,0.0,0.0,0.0,0.0,0.0,0.0,0.0,0.0,0.0,0.0,0.0,0.0,0.0,0.0,0.0,0.0,0.0,0.0,0.0,0.0,0.0,0.0,0.0,0.0,0.0,0.0,0.0,0.0,0.0,-4.0257,-4.2489,-4.4094,-4.5008,-4.4045,-4.3661,-4.4075,-4.2981,-4.052,0.0,0.0,0.0,0.0,0.0,0.0,0.0,0.0,0.0,0.0,0.0,0.0,0.0,0.0,0.0,0.0,0.0,0.0,0.0,0.0,0.0,0.0,0.0,0.0,0.0,0.0,0.0,0.0,0.0,0.0,0.0,0.0,0.0,0.0,0.0,0.0,0.0,0.0,0.0,0.0,0.0,-2.3772,-2.5448,-2.5896,-2.567,0.0,0.0,-2.5406,-2.2586,-2.229,0.0,0.0,0.0,0.0,0.0,0.0,0.0,0.0,0.0,0.0,0.0,0.0,0.0,0.0,0.0,0.0,0.0,0.0,0.0,0.0,0.0,0.0,0.0,0.0,0.0,0.0,0.0,0.0,0.0,0.0,0.0,0.0,0.0,0.0,0.0,0.0,0.0,0.0,0.0,0.0,0.0,0.0,0.0,0.0,0.0,0.0,0.0,0.0,0.0,0.0,0.0,0.0,0.0,0.0,0.0,0.0,-3.7608,-4.025,-4.1773,-4.207,-4.1041,-4.1281,-4.283,-4.1993,-3.9483,0.0,0.0,0.0,0.0,0.0,0.0,0.0,0.0,0.0,0.0,0.0,0.0,0.0,0.0,0.0,0.0,0.0,0.0,0.0,0.0,0.0,0.0,0.0,0.0,0.0,0.0,0.0,0.0,0.0,0.0,0.0,0.0,0.0,0.0,0.0,0.0,0.0,0.0,0.0,0.0,0.0,-2.2858,-2.4498,-2.4377,0.0,0.0,0.0,0.0,-1.691,-1.6708,0.0,0.0,0.0,0.0,0.0,0.0,0.0,0.0,0.0,0.0,0.0,0.0,0.0,0.0,0.0,0.0,0.0,0.0,0.0,0.0,0.0,0.0,0.0,0.0,0.0,0.0,0.0,0.0,0.0,0.0,0.0,0.0,0.0,0.0,0.0,0.0,0.0,0.0,0.0,0.0,0.0,0.0,0.0,0.0,0.0,0.0,0.0,0.0,0.0,0.0,0.0,0.0,0.0,0.0,0.0,0.0,-3.739,-3.891,-4.0211,-4.11,-3.9744,-3.9923,-4.1797,-4.1011,-3.8749,0.0,0.0,0.0,0.0,0.0,0.0,0.0,0.0,0.0,0.0,0.0,0.0,0.0,0.0,0.0,0.0,0.0,0.0,0.0,0.0,0.0,0.0,0.0,0.0,0.0,0.0,0.0,0.0,0.0,0.0,0.0,0.0,0.0,0.0,0.0,0.0,0.0,0.0,0.0,0.0,-2.0571,-2.1116,-2.2671,0.0,0.0,0.0,0.0,0.0,0.0,-1.4709,-1.3964,0.0,0.0,0.0,0.0,0.0,0.0,0.0,0.0,0.0,0.0,0.0,0.0,0.0,0.0,0.0,0.0,0.0,0.0,0.0,0.0,0.0,0.0,0.0,0.0,0.0,0.0,0.0,0.0,0.0,0.0,0.0,0.0,0.0,0.0,0.0,0.0,0.0,0.0,0.0,0.0,0.0,0.0,0.0,0.0,0.0,0.0,0.0,0.0,0.0,0.0,0.0,0.0,0.0,0.0,0.0,-3.7736,-3.778,-3.8718,-4.0631,-3.8977,-3.891,-4.0631,-3.9878,-3.7924,-3.4827,0.0,0.0,0.0,0.0,0.0,0.0,0.0,0.0,0.0,0.0,0.0,0.0,0.0,0.0,0.0,0.0,0.0,0.0,0.0,0.0,0.0,0.0,0.0,0.0,0.0,0.0,0.0,0.0,0.0,0.0,0.0,0.0,0.0,0.0,0.0,0.0,0.0,0.0,0.0,-1.8152,-1.895,0.0,0.0,0.0,0.0,0.0,0.0,0.0,0.0,-1.2578,0.0,0.0,0.0,0.0,0.0,0.0,0.0,0.0,0.0,0.0,0.0,0.0,0.0,0.0,0.0,0.0,0.0,0.0,0.0,0.0,0.0,0.0,0.0,0.0,0.0,0.0,0.0,0.0,0.0,0.0,0.0,0.0,0.0,0.0,0.0,0.0,0.0,0.0,0.0,0.0,0.0,0.0,0.0,0.0,0.0,0.0,0.0,0.0,0.0,0.0,0.0,0.0,0.0,0.0,0.0,0.0,-3.5674,-3.6709,-3.8584,-3.7557,-3.7535,-3.8731,-3.8584,-3.6654,-3.2866,0.0,0.0,0.0,0.0,0.0,0.0,0.0,0.0,0.0,0.0,0.0,0.0,0.0,0.0,0.0,0.0,0.0,0.0,0.0,0.0,0.0,0.0,0.0,0.0,0.0,0.0,0.0,0.0,0.0,0.0,0.0,0.0,0.0,0.0,0.0,0.0,0.0,0.0,-1.3819,-1.5142,0.0,0.0,0.0,0.0,0.0,0.0,0.0,0.0,-1.1238,0.0,0.0,0.0,0.0,0.0,0.0,0.0,0.0,0.0,0.0,0.0,0.0,0.0,0.0,0.0,0.0,0.0,0.0,0.0,0.0,0.0,0.0,0.0,0.0,0.0,0.0,0.0,0.0,0.0,0.0,0.0,0.0,0.0,0.0,0.0,0.0,0.0,0.0,0.0,0.0,0.0,0.0,0.0,0.0,0.0,0.0,0.0,0.0,0.0,0.0,0.0,0.0,0.0,0.0,0.0,0.0,0.0,0.0,-3.595,-3.8852,-3.7022,-3.6654,-3.8137,-3.6732,-3.4768,0.0,0.0,0.0,0.0,0.0,0.0,0.0,0.0,0.0,0.0,0.0,0.0,0.0,0.0,0.0,0.0,0.0,0.0,0.0,0.0,0.0,0.0,0.0,0.0,0.0,0.0,0.0,0.0,0.0,0.0,0.0,0.0,0.0,0.0,0.0,0.0,0.0,0.0,0.0,0.0,0.0,0.0,0.0,0.0,0.0,0.0,0.0,0.0,0.0,0.0,0.0,0.0,0.0,0.0,0.0,0.0,0.0,0.0,0.0,0.0,0.0,0.0,0.0,0.0,0.0,0.0,0.0,0.0,0.0,0.0,0.0,0.0,0.0,0.0,0.0,0.0,0.0,0.0,0.0,0.0,0.0,0.0,0.0,0.0,0.0,0.0,0.0,0.0,0.0,0.0,0.0,0.0,0.0,0.0,0.0,0.0,0.0,0.0,0.0,0.0,0.0,0.0,0.0,0.0,0.0,0.0,0.0,0.0,-3.511,-3.8793,-3.652,-3.6075,-3.7892,-3.5036,-3.2893,0.0,0.0,0.0,0.0,0.0,0.0,0.0,0.0,0.0,0.0,0.0,0.0,0.0,0.0,0.0,0.0,0.0,0.0,0.0,0.0,0.0,0.0,0.0,0.0,0.0,0.0,0.0,0.0,0.0,0.0,0.0,0.0,0.0,0.0,0.0,0.0,0.0,0.0,0.0,0.0,0.0,0.0,0.0,0.0,0.0,0.0,0.0,0.0,-1.0946,0.0,0.0,0.0,0.0,0.0,0.0,0.0,0.0,0.0,0.0,0.0,0.0,0.0,0.0,0.0,0.0,0.0,0.0,0.0,0.0,0.0,0.0,0.0,0.0,0.0,0.0,0.0,0.0,0.0,0.0,0.0,0.0,0.0,0.0,0.0,0.0,0.0,0.0,0.0,0.0,0.0,0.0,0.0,0.0,0.0,0.0,0.0,0.0,0.0,0.0,0.0,0.0,0.0,0.0,0.0,0.0,0.0,0.0,0.0,-3.3149,-3.6932,-3.583,-3.5741,-3.6732,-3.4009,-3.1551,0.0,0.0,0.0,0.0,0.0,0.0,0.0,0.0,0.0,0.0,0.0,0.0,0.0,0.0,0.0,0.0,0.0,0.0,0.0,0.0,0.0,0.0,0.0,0.0,0.0,0.0,0.0,0.0,0.0,0.0,0.0,0.0,0.0,0.0,0.0,0.0,0.0,0.0,0.0,0.0,0.0,0.0,0.0,0.0,0.0,0.0,0.0,0.0,0.0,0.0,0.0,0.0,0.0,0.0,0.0,0.0,0.0,0.0,0.0,0.0,0.0,0.0,0.0,0.0,0.0,0.0,0.0,0.0,0.0,0.0,0.0,0.0,0.0,0.0,0.0,0.0,0.0,0.0,0.0,0.0,0.0,0.0,0.0,0.0,0.0,0.0,0.0,0.0,0.0,0.0,0.0,0.0,0.0,0.0,0.0,0.0,0.0,0.0,0.0,0.0,0.0,0.0,0.0,0.0,0.0,0.0,0.0,0.0,-3.2518,-3.5741,-3.5406,-3.5406,-3.5861,-3.3005,-3.0796,0.0,0.0,0.0,0.0,0.0,0.0,0.0,0.0,0.0,0.0,0.0,0.0,0.0,0.0,0.0,0.0,0.0,0.0,0.0,0.0,0.0,0.0,0.0,0.0,0.0,0.0,0.0,0.0,0.0,0.0,0.0,0.0,0.0,0.0,0.0,0.0,0.0,0.0,0.0,0.0,0.0,0.0,0.0,0.0,0.0,0.0,0.0,0.0,0.0,0.0,0.0,0.0,0.0,0.0,0.0,0.0,0.0,0.0,0.0,0.0,0.0,0.0,0.0,0.0,0.0,0.0,0.0,0.0,0.0,0.0,0.0,0.0,0.0,0.0,0.0,0.0,0.0,0.0,0.0,0.0,0.0,0.0,0.0,0.0,0.0,0.0,0.0,0.0,0.0,0.0,0.0,0.0,0.0,0.0,0.0,0.0,0.0,0.0,0.0,0.0,0.0,0.0,0.0,0.0,0.0,0.0,0.0,0.0,0.0,-3.3958,-3.4263,-3.4314,-3.4003,-3.1487,-2.9568,0.0,0.0,0.0,0.0,0.0,0.0,0.0,0.0,0.0,0.0,0.0,0.0,0.0,0.0,0.0,0.0,0.0,0.0,0.0,0.0,0.0,0.0,0.0,0.0,0.0,0.0,0.0,0.0,0.0,0.0,0.0,0.0,0.0,0.0,0.0,0.0,0.0,0.0,0.0,0.0,0.0,0.0,0.0,0.0,0.0,0.0,0.0,0.0,0.0,0.0,0.0,0.0,0.0,0.0,0.0,0.0,0.0,0.0,0.0,0.0,0.0,0.0,0.0,0.0,0.0,0.0,0.0,0.0,0.0,0.0,0.0,0.0,0.0,0.0,0.0,0.0,0.0,0.0,0.0,0.0,0.0,0.0,0.0,0.0,0.0,0.0,0.0,0.0,0.0,0.0,0.0,0.0,0.0,0.0,0.0,0.0,0.0,0.0,0.0,0.0,0.0,0.0,0.0,0.0,0.0,0.0,0.0,0.0,0.0,-3.1153,-3.1975,-3.2045,-3.1155,-2.921,-2.7266,0.0,0.0,0.0,0.0,0.0,0.0,0.0,0.0,0.0,0.0,0.0,0.0,0.0,0.0,0.0,0.0,0.0,0.0,0.0,0.0,0.0,0.0,0.0,0.0,0.0,0.0,0.0,0.0,0.0,0.0,0.0,0.0,0.0,0.0,0.0,0.0,0.0,0.0,0.0,0.0,0.0,0.0,0.0,0.0,0.0,0.0,0.0,0.0,0.0,0.0,0.0,0.0,0.0,0.0,0.0,0.0,0.0,0.0,0.0,0.0,0.0,0.0,0.0,0.0,0.0,0.0,0.0,0.0,0.0,0.0,0.0,0.0,0.0,0.0,0.0,0.0,0.0,0.0,0.0,0.0,0.0,0.0,0.0,0.0,0.0,0.0,0.0,0.0,0.0,0.0,0.0,0.0,0.0,0.0,0.0,0.0,0.0,0.0,0.0,0.0,0.0,0.0,0.0,0.0,0.0,0.0,0.0,0.0,0.0,-2.7359,-2.9345,-3.0237,-2.997,-2.7489,-2.5791,-2.5009,0.0,0.0,0.0,0.0,0.0,0.0,0.0,0.0,0.0,0.0,0.0,0.0,0.0,0.0,0.0,0.0,0.0,0.0,0.0,0.0,0.0,0.0,0.0,0.0,0.0,0.0,0.0,0.0,0.0,0.0,0.0,0.0,0.0,0.0,0.0,0.0,0.0,0.0,0.0,0.0,0.0,0.0,0.0,0.0,0.0,0.0,0.0,0.0,0.0,0.0,0.0,0.0,0.0,0.0,0.0,0.0,0.0,0.0,0.0,0.0,0.0,0.0,0.0,0.0,0.0,0.0,0.0,0.0,0.0,0.0,0.0,0.0,0.0,0.0,0.0,0.0,0.0,0.0,0.0,0.0,0.0,0.0,0.0,0.0,0.0,0.0,0.0,0.0,0.0,0.0,0.0,0.0,0.0,0.0,0.0,0.0,0.0,0.0,0.0,0.0,0.0,0.0,0.0,0.0,0.0,0.0,0.0,0.0,-2.512,-2.7624,-2.8653,-2.7984,-2.5791,-2.4137,0.0,0.0,0.0,0.0,0.0,0.0,0.0,0.0,0.0,0.0,0.0,0.0,0.0,0.0,0.0,0.0,0.0,0.0,0.0,0.0,0.0,0.0,0.0,0.0,0.0,0.0,0.0,0.0,0.0,0.0,0.0,0.0,0.0,0.0,0.0,0.0,0.0,0.0,0.0,0.0,0.0,0.0,0.0,0.0,0.0,0.0,0.0,0.0,0.0,0.0,0.0,0.0,0.0,0.0,0.0,0.0,0.0,0.0,0.0,0.0,0.0,0.0,0.0,0.0,0.0,0.0,0.0,0.0,0.0,0.0,0.0,0.0,0.0,0.0,0.0,0.0,0.0,0.0,0.0,0.0,0.0,0.0,0.0,0.0,0.0,0.0,0.0,0.0,0.0,0.0,0.0,0.0,0.0,0.0,0.0,0.0,0.0,0.0,0.0,0.0,0.0,0.0,0.0,0.0,0.0,0.0,0.0,0.0,-2.1224,-2.4912,-2.6886,-2.6998,-2.5187,-2.4092,-2.2137,0.0,0.0,0.0,0.0,0.0,0.0,0.0,0.0,0.0,0.0,0.0,0.0,0.0,0.0,0.0,0.0,0.0,0.0,0.0,0.0,0.0,0.0,0.0,0.0,0.0,0.0,0.0,0.0,0.0,0.0,0.0,0.0,0.0,0.0,0.0,0.0,0.0,0.0,0.0,0.0,0.0,0.0,0.0,0.0,0.0,0.0,0.0,0.0,0.0,0.0,0.0,0.0,0.0,0.0,0.0,0.0,0.0,0.0,0.0,0.0,0.0,0.0,0.0,0.0,0.0,0.0,0.0,0.0,0.0,0.0,0.0,0.0,0.0,0.0,0.0,0.0,0.0,0.0,0.0,0.0,0.0,0.0,0.0,0.0,0.0,0.0,0.0,0.0,0.0,0.0,0.0,0.0,0.0,0.0,0.0,0.0,0.0,0.0,0.0,0.0,0.0,0.0,0.0,0.0,0.0,0.0,0.0,0.0,0.0,-2.1273,0.0,-2.4425,0.0,-2.2864,-2.1378,0.0,0.0,0.0,0.0,0.0,0.0,0.0,0.0,0.0,0.0,0.0,0.0,0.0,0.0,0.0,0.0,0.0,0.0,0.0,0.0,0.0,0.0,0.0,0.0,0.0,0.0,0.0,0.0,0.0,0.0,0.0,0.0,0.0,0.0,0.0,0.0,0.0,0.0,0.0,0.0,0.0,0.0,0.0,0.0,0.0,0.0,0.0,0.0,0.0,0.0,0.0,0.0,0.0,0.0,0.0,0.0,0.0,0.0,0.0,0.0,0.0,0.0,0.0,0.0,0.0,0.0,0.0,0.0,0.0,0.0,0.0,0.0,0.0,0.0,0.0,0.0,0.0,0.0,0.0,0.0,0.0,0.0,0.0,0.0,0.0,0.0,0.0,0.0,0.0,0.0,0.0,0.0,0.0,0.0,0.0,0.0,0.0,0.0,0.0,0.0,0.0,0.0,0.0,0.0,0.0,0.0,0.0,0.0,0.0,-2.052,-2.1282,-2.2471,-2.3944,-2.1845,-2.0709,0.0,0.0,0.0,0.0,0.0,0.0,0.0,0.0,0.0,0.0,0.0,0.0,0.0,0.0,0.0,0.0,0.0,0.0,0.0,0.0,0.0,0.0,0.0,0.0,0.0,0.0,0.0,0.0,0.0,0.0,0.0,0.0,0.0,0.0,0.0,0.0,0.0,0.0,0.0,0.0,0.0,0.0,0.0,0.0,0.0,0.0,0.0,0.0,0.0,0.0,0.0,0.0,0.0,0.0,0.0,0.0,0.0,0.0,0.0,0.0,0.0,0.0,0.0,0.0,0.0,0.0,0.0,0.0,0.0,0.0,0.0,0.0,0.0,0.0,0.0,0.0,0.0,0.0,0.0,0.0,0.0,0.0,0.0,0.0,0.0,0.0,0.0,0.0,0.0,0.0,0.0,0.0,0.0,0.0,0.0,0.0,0.0,0.0,0.0,0.0,0.0,0.0,0.0,0.0,0.0,0.0,0.0,0.0,0.0,0.0,-2.1299,-2.1134,-2.1847,-2.1021,-2.0084,0.0,0.0,0.0,0.0,0.0,0.0,0.0,0.0,0.0,0.0,0.0,0.0,0.0,0.0,0.0,0.0,0.0,0.0,0.0,0.0,0.0,0.0,0.0,0.0,0.0,0.0,0.0,0.0,0.0,0.0,0.0,0.0,0.0,0.0,0.0,0.0,0.0,0.0,0.0,0.0,0.0,0.0,0.0,0.0,0.0,0.0,0.0,0.0,0.0,0.0,0.0,0.0,0.0,0.0,0.0,0.0,0.0,0.0,0.0,0.0,0.0,0.0,0.0,0.0,0.0,0.0,0.0,0.0,0.0,0.0,0.0,0.0,0.0,0.0,0.0,0.0,0.0,0.0,0.0,0.0,0.0,0.0,0.0,0.0,0.0,0.0,0.0,0.0,0.0,0.0,0.0,0.0,0.0,0.0,0.0,0.0,0.0,0.0,0.0,0.0,0.0,0.0,0.0,0.0,0.0,0.0,0.0,0.0,0.0,0.0,-2.002,0.0,-2.0151,-1.9697,-1.937,-1.9058,0.0,0.0,0.0,0.0,0.0,0.0,0.0,0.0,0.0,0.0,0.0,0.0,0.0,0.0,0.0,0.0,0.0,0.0,0.0,0.0,0.0,0.0,0.0,0.0,0.0,0.0,0.0,0.0,0.0,0.0,0.0,0.0,0.0,0.0,0.0,0.0,0.0,0.0,0.0,0.0,0.0,0.0,0.0,0.0,0.0,0.0,0.0,0.0,0.0,0.0,0.0,0.0,0.0,0.0,0.0,0.0,0.0,0.0,0.0,0.0,0.0,0.0,0.0,0.0,0.0,0.0,0.0,0.0,0.0,0.0,0.0,0.0,0.0,0.0,0.0,0.0,0.0,0.0,0.0,0.0,0.0,0.0,0.0,0.0,0.0,0.0,0.0,0.0,0.0,0.0,0.0,0.0,0.0,0.0,0.0,0.0,0.0,0.0,0.0,0.0,0.0,0.0,0.0,0.0,0.0,0.0,0.0,0.0,0.0,0.0,-1.9368,-1.9445,-1.928,-1.9172,0.0,0.0,0.0,0.0,0.0,0.0,0.0,0.0,0.0,0.0,0.0,0.0,0.0,0.0,0.0,0.0,0.0,0.0,0.0,0.0,0.0,0.0,0.0,0.0,0.0,0.0,0.0,0.0,0.0,0.0,0.0,0.0,0.0,0.0,0.0,0.0,0.0,0.0,0.0,0.0,0.0,0.0,0.0,0.0,0.0,0.0,0.0,0.0,0.0,0.0,0.0,0.0,0.0,0.0,0.0,0.0,0.0,0.0,0.0,0.0,0.0,0.0,0.0,0.0,0.0,0.0,0.0,0.0,0.0,0.0,0.0,0.0,0.0,0.0,0.0,0.0,0.0,0.0,0.0,0.0,0.0,0.0,0.0,0.0,0.0,0.0,0.0,0.0,0.0,0.0,0.0,0.0,0.0,0.0,0.0,0.0,0.0,0.0,0.0,0.0,0.0,0.0,0.0,0.0,0.0,0.0,0.0,0.0,0.0,0.0,0.0,-1.8714,-1.9291,-1.9519,0.0,-1.9331,0.0,0.0,0.0,0.0,0.0,0.0,0.0,0.0,0.0,0.0,0.0,0.0,0.0,0.0,0.0,0.0,0.0,0.0,0.0,0.0,0.0,0.0,0.0,0.0,0.0,0.0,0.0,0.0,0.0,0.0,0.0,0.0,0.0,0.0,0.0,0.0,0.0,0.0,0.0,0.0,0.0,0.0,0.0,0.0,0.0,0.0,0.0,0.0,0.0,0.0,0.0,0.0,0.0,0.0,0.0,0.0,0.0,0.0,0.0,0.0,0.0,0.0,0.0,0.0,0.0,0.0,0.0,0.0,0.0,0.0,0.0,0.0,0.0,0.0,0.0,0.0,0.0,0.0,0.0,0.0,0.0,0.0,0.0,0.0,0.0,0.0,0.0,0.0,0.0,0.0,0.0,0.0,0.0,0.0,0.0,0.0,0.0,0.0,0.0,0.0,0.0,0.0,0.0,0.0,0.0,0.0,0.0,0.0,0.0,0.0,0.0,0.0,-2.0073,-2.0131,-1.8484,0.0,0.0,0.0,0.0,0.0,0.0,0.0,0.0,0.0,0.0,0.0,0.0,0.0,0.0,0.0,0.0,0.0,0.0,0.0,0.0,0.0,0.0,0.0,0.0,0.0,0.0,0.0,0.0,0.0,0.0,0.0,0.0,0.0,0.0,0.0,0.0,0.0,0.0,0.0,0.0,0.0,0.0,0.0,0.0,0.0,0.0,0.0,0.0,0.0,0.0,0.0,0.0,0.0,0.0,0.0,0.0,0.0,0.0,0.0,0.0,0.0,0.0,0.0,0.0,0.0,0.0,0.0,0.0,0.0,0.0,0.0,0.0,0.0,0.0,0.0,0.0,0.0,0.0,0.0,0.0,0.0,0.0,0.0,0.0,0.0,0.0,0.0,0.0,0.0,0.0,0.0,0.0,0.0,0.0,0.0,0.0,0.0,0.0,0.0,0.0,0.0,0.0,0.0,0.0,0.0,0.0,0.0,0.0,0.0,0.0,-1.9486,-1.8406,-1.9919,-1.9984,-1.8325,0.0,0.0,0.0,0.0,0.0,0.0,0.0,0.0,0.0,0.0,0.0,0.0,0.0,0.0,0.0,0.0,0.0,0.0,0.0,0.0,0.0,0.0,0.0,0.0,0.0,0.0,0.0,0.0,0.0,0.0,0.0,0.0,0.0,0.0,0.0,0.0,0.0,0.0,0.0,0.0,0.0,0.0,0.0,0.0,0.0,0.0,0.0,0.0,0.0,0.0,0.0,0.0,0.0,0.0,0.0,0.0,0.0,0.0,0.0,0.0,0.0,0.0,0.0,0.0,0.0,0.0,0.0,0.0,0.0,0.0,0.0,0.0,0.0,0.0,0.0,0.0,0.0,0.0,0.0,0.0,0.0,0.0,0.0,0.0,0.0,0.0,0.0,0.0,0.0,0.0,0.0,0.0,0.0,0.0,0.0,0.0,0.0,0.0,0.0,0.0,0.0,0.0,0.0,0.0,0.0,0.0,0.0,0.0,0.0,0.0,0.0,0.0,0.0,0.0,-1.8743,0.0,0.0,0.0,0.0,0.0,0.0,0.0,0.0,0.0,0.0,0.0,0.0,0.0,0.0,0.0,0.0,0.0,0.0,0.0,0.0,0.0,0.0,0.0,0.0,0.0,0.0,0.0,0.0,0.0,0.0,0.0,0.0,0.0,0.0,0.0,0.0,0.0,0.0,0.0,0.0,0.0,0.0,0.0,0.0,0.0,0.0,0.0,0.0,0.0,0.0,0.0,0.0,0.0,0.0,0.0,0.0,0.0,0.0,0.0,0.0,0.0,0.0,0.0,0.0,0.0,0.0,0.0,0.0,0.0,0.0,0.0,0.0,0.0,0.0,0.0,0.0,0.0,0.0,0.0,0.0,0.0,0.0,0.0,0.0,0.0,0.0,0.0,0.0,0.0,0.0,0.0,0.0,0.0,0.0,0.0,0.0,0.0,0.0,0.0,0.0,0.0,0.0,0.0,0.0,0.0,0.0,0.0,0.0,0.0,0.0,0.0,0.0,0.0,0.0,0.0,0.0,0.0,0.0,0.0,0.0,0.0,0.0,0.0,0.0,0.0,0.0,0.0,0.0,0.0,0.0,0.0,0.0,0.0,0.0,0.0,0.0,0.0,0.0,0.0,0.0,0.0,0.0,0.0,0.0,0.0,0.0,0.0,0.0,0.0,0.0,0.0,0.0,0.0,0.0,0.0,0.0,0.0,0.0,0.0,0.0,0.0,0.0,0.0,0.0,0.0,0.0,0.0,0.0,0.0,0.0,0.0,0.0,0.0,0.0,0.0,0.0,0.0,0.0,0.0,0.0,0.0,0.0,0.0,0.0,0.0,0.0,0.0,0.0,0.0,0.0,0.0,0.0,0.0,0.0,0.0,0.0,0.0,0.0,0.0,0.0,0.0,0.0,0.0,0.0,0.0,0.0,0.0,0.0,0.0,0.0,0.0,0.0,0.0,0.0,0.0,0.0,0.0,0.0,0.0,0.0,0.0,0.0,0.0,0.0,0.0,0.0,0.0,0.0,0.0,0.0,0.0,0.0,0.0,0.0,0.0,0.0,0.0,0.0,0.0,0.0,0.0,0.0,0.0,0.0,0.0,0.0,0.0,0.0,0.0,0.0,0.0,0.0,0.0,0.0,0.0,0.0,0.0,0.0,0.0,0.0,0.0,0.0,0.0,0.0,0.0,0.0,0.0,0.0,0.0,0.0,0.0,0.0,0.0,0.0,0.0,0.0,0.0,0.0,0.0,0.0,0.0,0.0,0.0,0.0,0.0,0.0,0.0,0.0,0.0,0.0,0.0,0.0,0.0,0.0,0.0,0.0,0.0,0.0,0.0,0.0,0.0,0.0,0.0,0.0,0.0,0.0,0.0,0.0,0.0,0.0,0.0,0.0,0.0,0.0,0.0,0.0,0.0,0.0,0.0,0.0,0.0,0.0,0.0,0.0,0.0,0.0,0.0,0.0,0.0,0.0,0.0,0.0,0.0,0.0,0.0,0.0,0.0,0.0,0.0,0.0,0.0,0.0,0.0,0.0,0.0,0.0,0.0,0.0,0.0,0.0,0.0,0.0,0.0,0.0,0.0,0.0,0.0,0.0,0.0,0.0,0.0,0.0,0.0,0.0,0.0,0.0,0.0,0.0,0.0,0.0,0.0,0.0,0.0,0.0,0.0,0.0,0.0,0.0,0.0,0.0,0.0,0.0,0.0,0.0,0.0,0.0,0.0,0.0,0.0,0.0,0.0,0.0,0.0,0.0,0.0,0.0,0.0,0.0,0.0,0.0,0.0,0.0,0.0,0.0,0.0,0.0,0.0,0.0,0.0,0.0,0.0,0.0,0.0,0.0,0.0,0.0,0.0,0.0,0.0,0.0,0.0,0.0,0.0,0.0,0.0,0.0,0.0,0.0,0.0,0.0,0.0,0.0,0.0,0.0,0.0,0.0,0.0,0.0,0.0,0.0,0.0,0.0,0.0,0.0,0.0,0.0,0.0,0.0,0.0,0.0,0.0,0.0,0.0,0.0,0.0,0.0,0.0,0.0,0.0,0.0,0.0,0.0,0.0,0.0,0.0,0.0,0.0,0.0,0.0,0.0,0.0,0.0,0.0,0.0,0.0,0.0,0.0,0.0,0.0,0.0,0.0,0.0,0.0,0.0,0.0,0.0,0.0,0.0,0.0,0.0,0.0,0.0,0.0,0.0,0.0,0.0,0.0,0.0,0.0,0.0,0.0,0.0,0.0,0.0,0.0,0.0,0.0,0.0,0.0,0.0,0.0,0.0,0.0,0.0,0.0,0.0,0.0,0.0,0.0,0.0,0.0,0.0,0.0,0.0,0.0,0.0,0.0,0.0,0.0,0.0,0.0,0.0,0.0,0.0,0.0,0.0,0.0,0.0,0.0,0.0,0.0,0.0,0.0,0.0,0.0,0.0,0.0,0.0,0.0,0.0,0.0,0.0,0.0,0.0,0.0,0.0,0.0,0.0,0.0,0.0,0.0,0.0,0.0,0.0,0.0,0.0,0.0,0.0,0.0,0.0,0.0,0.0,0.0,0.0,0.0,0.0,0.0,0.0,0.0,0.0,0.0,0.0,0.0,0.0,0.0,0.0,0.0,0.0,0.0,0.0,0.0,0.0,0.0,0.0,0.0,0.0,0.0,0.0,0.0,0.0,0.0,0.0,0.0,0.0,0.0,0.0,0.0,0.0,0.0,0.0,0.0,0.0,0.0,0.0,0.0,0.0,0.0,0.0,0.0,0.0,0.0,0.0,0.0,0.0,0.0,0.0,0.0,0.0,0.0,0.0,0.0,0.0,0.0,0.0,0.0,0.0,0.0,0.0,0.0,0.0,0.0,0.0,0.0,0.0,0.0,0.0,0.0,0.0,0.0,0.0,0.0,0.0,0.0,0.0,0.0,0.0,0.0,0.0,0.0,0.0,0.0,0.0,0.0,0.0,0.0,0.0,0.0,0.0,0.0,0.0,0.0,0.0,0.0,0.0,0.0,0.0,0.0,0.0,0.0,0.0,0.0,0.0,0.0,0.0,0.0,0.0,0.0,0.0,0.0,0.0,0.0,0.0,0.0,0.0,0.0,0.0,0.0,0.0,0.0,0.0,0.0,0.0,0.0,0.0,0.0,0.0,0.0,0.0,0.0,0.0,0.0,0.0,0.0,0.0,0.0,0.0,0.0,0.0,0.0,0.0,0.0,0.0,0.0,0.0,0.0,0.0,0.0,0.0,0.0,0.0,0.0,0.0,0.0,0.0,0.0,0.0,0.0,0.0,0.0,0.0,0.0,0.0,0.0,0.0,0.0,0.0,0.0,0.0,0.0,0.0,0.0,0.0,0.0,0.0,0.0,0.0,0.0,0.0,0.0,0.0,0.0,0.0,0.0,0.0,0.0,0.0,0.0,0.0,0.0,0.0,0.0,0.0,0.0,0.0,0.0,0.0,0.0,0.0,0.0,0.0,0.0,0.0,0.0,0.0,0.0,0.0,0.0,0.0,0.0,0.0,0.0,0.0,0.0,0.0,0.0,0.0,0.0,0.0,0.0,0.0,0.0,0.0,0.0,0.0,0.0,0.0,0.0,0.0,0.0,0.0,0.0,0.0,0.0,0.0,0.0,0.0,0.0,0.0,0.0,0.0,0.0,0.0,0.0,0.0,0.0,0.0,0.0,0.0,0.0,0.0,0.0,0.0,0.0,0.0,0.0,0.0,0.0,0.0,0.0,0.0,0.0,0.0,0.0,0.0,0.0,0.0,0.0,0.0,0.0,0.0,0.0,0.0,0.0,0.0,0.0,0.0,0.0,0.0,0.0,0.0,0.0,0.0,0.0,0.0,0.0,0.0,0.0,0.0,0.0,0.0,0.0,0.0,0.0,0.0,0.0,0.0,0.0,0.0,0.0,0.0,0.0,0.0,0.0,0.0,0.0,0.0,0.0,0.0,0.0,0.0,0.0,0.0,0.0,0.0,0.0,0.0,0.0,0.0,0.0,0.0,0.0,0.0,0.0,0.0,0.0,0.0,0.0,0.0,0.0,0.0,0.0,0.0,0.0,0.0,0.0,0.0,0.0,0.0,0.0,0.0,0.0,0.0,0.0,0.0,0.0,0.0,0.0,0.0,0.0,0.0,0.0,0.0,0.0,0.0,0.0,0.0,0.0,0.0,0.0,0.0,0.0,0.0,0.0,0.0,0.0,0.0,0.0,0.0,0.0,0.0,0.0,0.0,0.0,0.0,0.0,0.0,0.0,0.0,0.0,0.0,0.0,0.0,0.0,0.0,0.0,0.0,0.0,0.0,0.0,0.0,0.0,0.0,0.0,0.0,0.0,0.0,0.0,0.0,0.0,0.0,0.0,0.0,0.0,0.0,0.0,0.0,0.0,0.0]}],[{"header":{"parameterUnit":"kt","parameterCategory":2,"dx":1,"dy":1,"la1":29.587661999999998,"la2":31.0,"lo1":-88.76705300000003,"lo2":-86.6583820000003,"nx":115,"ny":88,"refTime":"2022-10-20T12:00:00:Z","depth":0,"parameterNumber":2,"parameterNumberName":"V-component_of_WINDS"},"data":[7.4238,7.4238,7.4238,7.4238,7.4238,7.4238,7.4238,7.4238,7.4238,7.4238,7.4715,7.6304,7.6432,7.4347,7.4238,7.5319,7.8,7.8358,8.084,8.2815,8.22,8.4741,8.7022,8.7995,9.0413,9.173,9.2148,9.1106,9.0108,8.9244,8.807,8.7136,8.7059,8.6928,8.6852,8.6852,8.6852,8.6852,8.6852,8.6852,8.6852,8.6852,8.6852,8.6852,8.6852,8.6852,8.7063,8.7378,8.8006,8.8319,8.8251,8.7144,8.6029,8.5027,8.4447,8.4515,8.6282,8.7836,8.9623,9.1674,9.3393,9.4714,9.5885,9.6364,9.5975,9.6094,9.5825,9.5017,9.397,9.3402,9.2684,9.2205,9.1218,8.9154,8.7777,8.7179,8.688,8.676,8.6714,8.6714,8.6714,8.6714,8.6788,8.7748,8.8827,8.9426,9.0455,9.179,9.3176,9.3492,9.3774,9.4023,9.4302,9.4702,9.4458,9.3993,9.4735,9.4856,9.4884,9.5131,9.5284,9.5284,9.5284,9.5284,9.5284,9.5284,9.5284,9.5284,9.5284,9.5284,9.5284,9.5284,9.5284,9.5284,9.5284,7.4238,7.4238,7.4238,7.4238,7.4238,7.4238,7.4238,7.4238,7.4238,7.4238,7.4477,7.4715,7.4586,7.4347,7.4238,7.4606,7.5082,7.6048,7.5684,7.6942,7.8085,8.0862,8.3159,8.5201,8.8113,9.0045,9.1407,9.07,8.9143,8.8584,8.7867,8.7081,8.6852,8.6852,8.6852,8.6852,8.6852,8.6852,8.6852,8.6852,8.6852,8.6852,8.6852,8.6852,8.6852,8.6852,8.6958,8.7143,8.7641,8.775,8.7391,8.621,8.5089,8.4114,8.3561,8.4382,8.6164,8.7842,8.9394,9.159,9.3094,9.4351,9.5863,9.6124,9.5376,9.5287,9.5436,9.4658,9.3402,9.2504,9.1697,9.0949,8.9812,8.8376,8.7508,8.6774,8.67,8.667,8.6641,8.6714,8.6714,8.6714,8.7198,8.8005,8.8686,8.9077,9.0083,9.1495,9.2376,9.215,9.2505,9.3049,9.3176,9.2537,9.1887,9.2473,9.3712,9.4023,9.4702,9.5038,9.5284,9.5284,9.5284,9.5284,9.5284,9.5284,9.5284,9.5284,9.5284,9.5284,9.5284,9.5284,9.5284,9.5284,9.5284,7.4238,7.4238,7.4238,7.4238,7.4238,7.4238,7.4238,7.4238,7.4238,7.4238,7.4238,7.4238,7.4218,7.4218,7.4238,7.4347,7.4477,7.4586,7.4586,7.5082,7.6687,7.819,8.111,8.4476,8.6998,8.9513,9.0993,9.0895,8.8965,8.8177,8.7563,8.6979,8.6852,8.6852,8.6852,8.6852,8.6852,8.6852,8.6852,8.6852,8.6852,8.6852,8.6852,8.6852,8.6852,8.6852,8.6805,8.6402,8.6691,8.6668,8.5875,8.4778,8.3995,8.3329,8.3486,8.466,8.6408,8.8636,9.0429,9.2377,9.4106,9.476,9.5811,9.5983,9.5205,9.4335,9.4454,9.383,9.2545,9.1308,9.05,8.9629,8.8553,8.7777,8.6971,8.6493,8.6419,8.6523,8.6641,8.6641,8.6567,8.6567,8.6862,8.7604,8.7676,8.8005,8.7862,8.8937,8.9878,9.022,9.1194,9.179,9.179,9.1293,9.0658,9.1394,9.2505,9.3554,9.4425,9.4856,9.5251,9.5251,9.5284,9.5284,9.5284,9.5284,9.5284,9.5284,9.5284,9.5284,9.5284,9.5284,9.5284,9.5284,9.5284,7.4238,7.4238,7.4238,7.4238,7.4238,7.4238,7.4238,7.4238,7.4238,7.4238,7.4238,7.4238,7.4238,7.4238,7.4238,7.4238,7.4238,7.4347,7.4586,7.4953,7.5854,7.7578,7.9865,8.3625,8.6452,8.8731,9.0141,9.0514,8.8838,8.7669,8.6878,8.6852,8.6852,8.6852,8.6852,8.6852,8.6852,8.6852,8.6852,8.6852,8.6852,8.6852,8.6852,8.6852,8.6751,8.6751,8.6221,8.5791,8.5745,8.5463,8.4117,8.3394,8.274,8.2575,8.3407,8.5224,8.719,8.9133,9.1054,9.2846,9.4158,9.4931,9.5021,9.5251,9.4931,9.3861,9.3059,9.2486,9.154,9.0273,8.9167,8.8299,8.7432,8.6896,8.633,8.6225,8.6151,8.6374,8.6567,8.6493,8.6419,8.6448,8.6523,8.6567,8.6567,8.6567,8.6567,8.7168,8.8403,8.8898,8.9771,8.9771,8.994,9.0115,9.0046,9.0356,9.1296,9.2279,9.3554,9.4425,9.5191,9.5251,9.5284,9.5284,9.5284,9.5284,9.5284,9.5284,9.5284,9.5284,9.5284,9.5284,9.5284,9.5284,9.5284,7.4238,7.4238,7.4238,7.4238,7.4238,7.4238,7.4238,7.4238,7.4238,7.4238,7.4238,7.4238,7.4238,7.4238,7.4238,7.4238,7.4238,7.4238,7.4347,7.4347,7.5617,7.6345,7.8905,8.2502,8.5047,8.6351,8.7795,8.9535,8.8495,8.7644,8.6852,8.6852,8.6852,8.6852,8.6852,8.6852,8.6852,8.6852,8.6852,8.6852,8.6852,8.6852,8.6852,8.6852,8.6729,8.6475,8.5713,8.5232,8.5132,8.4389,8.3712,8.3065,8.2759,8.2486,8.3486,8.5197,8.7252,8.9307,9.1421,9.3011,9.3987,9.4269,9.392,9.4091,9.3764,9.2838,9.1838,9.1157,9.0172,8.8938,8.7981,8.7146,8.6609,8.6118,8.5881,8.5956,8.5927,8.6002,8.6225,8.6344,8.63,8.6076,8.6076,8.6374,8.6374,8.6374,8.6567,8.7168,8.779,8.7531,8.7676,8.7489,8.7676,8.7934,8.8261,8.9217,9.0083,9.1229,9.2569,9.3649,9.4917,9.5251,9.5284,9.5284,9.5284,9.5284,9.5284,9.5284,9.5284,9.5284,9.5284,9.5284,9.5284,9.5284,9.5284,7.4238,7.4238,7.4238,7.4238,7.4238,7.4238,7.4238,7.4238,7.4238,7.4238,7.4238,7.4238,7.4238,7.4238,7.4238,7.4238,7.4238,7.4238,7.4238,7.4606,7.5597,7.5961,7.7578,8.0942,8.3517,8.5062,8.6603,8.8484,8.8337,8.7644,8.6852,8.6852,8.6852,8.6852,8.6852,8.6852,8.6852,8.6852,8.6852,8.6852,8.6852,8.6852,8.6852,8.6831,8.6119,8.5815,8.5256,8.3731,8.3374,8.2863,8.2236,8.177,8.1421,8.1701,8.2599,8.5718,8.7758,9.0028,9.1816,9.3235,9.3873,9.4221,9.3737,9.3163,9.2365,9.1567,9.0671,8.9666,8.8655,8.771,8.683,8.6116,8.5758,8.5429,8.5505,8.558,8.5656,8.5731,8.5927,8.6151,8.6076,8.5777,8.5777,8.6002,8.6151,8.6151,8.6493,8.6978,8.6905,8.6714,8.6448,8.6374,8.6374,8.6344,8.7125,8.8077,8.9287,9.0627,9.1758,9.3113,9.4735,9.5284,9.5224,9.5224,9.5284,9.5284,9.5284,9.5284,9.5284,9.5284,9.5284,9.5284,9.5284,9.5284,9.5284,7.4238,7.4238,7.4238,7.4238,7.4238,7.4238,7.4238,7.4238,7.4238,7.4238,7.4238,7.4238,7.4238,7.4238,7.4238,7.4238,7.4238,7.4238,7.4238,7.4735,7.5617,7.5982,7.7832,8.0757,8.2745,8.4451,8.5932,8.7764,8.7831,8.7517,8.6852,8.6852,8.6852,8.6852,8.6852,8.6852,8.6852,8.6852,8.6852,8.6852,8.6852,8.6852,8.6602,8.6348,8.5688,8.4798,8.4163,8.2841,8.2103,8.1671,8.1073,8.0716,8.0302,8.0762,8.2029,8.5509,8.8404,9.0941,9.2627,9.307,9.3335,9.3694,9.2685,9.1659,9.092,9.0112,8.8986,8.8093,8.7128,8.6661,8.604,8.553,8.5109,8.4974,8.4944,8.5126,8.5278,8.5354,8.5429,8.5656,8.5777,8.5551,8.5354,8.5656,8.5852,8.5927,8.6047,8.627,8.63,8.6002,8.5806,8.5956,8.5927,8.5927,8.6537,8.6978,8.8474,8.9909,9.0963,9.215,9.3587,9.4458,9.495,9.5164,9.5224,9.5284,9.5284,9.5284,9.5284,9.5284,9.5284,9.5284,9.5284,9.5284,9.5284,7.4238,7.4238,7.4238,7.4238,7.4238,7.4238,7.4238,7.4238,7.4238,7.4238,7.4238,7.4238,7.4238,7.4238,7.4238,7.4238,7.4238,7.4238,7.4238,7.4606,7.5617,7.6345,7.8188,8.1274,8.2963,8.4388,8.5755,8.7055,8.6975,8.6852,8.6852,8.6852,8.6852,8.6852,8.6852,8.6852,8.6852,8.6852,8.6852,8.6852,8.6852,8.6827,8.645,8.5738,8.5103,8.4138,8.307,8.2103,8.1318,8.0835,8.0475,8.0353,8.0327,8.0327,8.1577,8.3743,8.7073,8.9884,9.2071,9.2753,9.3042,9.2402,9.1164,9.0386,8.9507,8.8392,8.7475,8.6586,8.6037,8.566,8.5383,8.4974,8.4562,8.4485,8.4485,8.4745,8.4974,8.4974,8.5003,8.5126,8.5278,8.5173,8.505,8.5202,8.5429,8.5476,8.5626,8.5777,8.5731,8.5429,8.5249,8.54,8.5551,8.5551,8.5626,8.5927,8.7241,8.8656,8.9809,9.073,9.2019,9.3144,9.3649,9.4241,9.4796,9.5224,9.5284,9.5284,9.5284,9.5284,9.5284,9.5284,9.5284,9.5284,9.5284,7.4238,7.4238,7.4238,7.4238,7.4238,7.4238,7.4238,7.4238,7.4238,7.4238,7.4238,7.4238,7.4238,7.4238,7.4238,7.4238,7.4238,7.4238,7.4238,7.4477,7.5597,7.7007,7.8562,8.0874,8.2974,8.5023,8.6139,8.663,8.6903,8.6852,8.6852,8.6852,8.6852,8.6852,8.6852,8.6852,8.6852,8.6852,8.6852,8.6852,8.6852,8.6729,8.6348,8.5357,8.4417,8.3503,8.2233,8.1318,8.0683,8.048,8.0327,8.0302,8.0302,8.0665,8.1934,8.4116,8.6831,8.8664,9.1458,9.2654,9.2359,9.128,9.0474,8.9257,8.7621,8.6985,8.6216,8.5515,8.5143,8.485,8.4639,8.4562,8.4332,8.4332,8.4332,8.4591,8.4745,8.4562,8.4562,8.4745,8.4868,8.4639,8.4485,8.4792,8.505,8.5126,8.5126,8.5202,8.5155,8.4868,8.461,8.4944,8.5126,8.5097,8.5126,8.5202,8.6091,8.7471,8.8271,8.9016,9.0293,9.1431,9.2247,9.2953,9.3554,9.4147,9.4702,9.5284,9.5284,9.5284,9.5284,9.5284,9.5284,9.5284,9.5284,7.4238,7.4238,7.4238,7.4238,7.4238,7.4238,7.4238,7.4238,7.4238,7.4238,7.4238,7.4238,7.4238,7.4238,7.4238,7.4238,7.4238,7.4238,7.4238,7.4477,7.5597,7.7515,7.9331,8.0832,8.3002,8.5037,8.6038,8.6401,8.6852,8.6852,8.6852,8.6852,8.6852,8.6852,8.6852,8.6852,8.6852,8.6852,8.6852,8.6852,8.6882,8.6475,8.5789,8.4671,8.3579,8.2512,8.1343,8.0785,8.0429,8.0327,8.0302,8.0302,8.0302,8.0302,8.1768,8.4116,8.6136,8.7664,9.0226,9.2664,9.2488,9.0856,8.9548,8.8297,8.6494,8.6089,8.536,8.4612,8.4544,8.4438,8.4225,8.4177,8.4177,8.4177,8.4254,8.4515,8.4515,8.4302,8.4225,8.4485,8.4485,8.4332,8.4302,8.4639,8.4792,8.4792,8.4639,8.4668,8.4745,8.4409,8.4302,8.4562,8.4745,8.4745,8.4639,8.4715,8.5416,8.6106,8.6712,8.7483,8.8352,8.944,9.033,9.1299,9.2118,9.2921,9.3961,9.4796,9.501,9.5191,9.5284,9.5284,9.5284,9.5284,9.5284,7.4238,7.4238,7.4238,7.4238,7.4238,7.4238,7.4238,7.4238,7.4238,7.4238,7.4238,7.4238,7.4238,7.4238,7.4238,7.4238,7.4238,7.4238,7.4238,7.4606,7.5576,7.724,7.9132,8.1305,8.3503,8.4826,8.5849,8.6551,8.6852,8.6852,8.6852,8.6852,8.6852,8.6852,8.6852,8.6852,8.6852,8.6852,8.6852,8.6852,8.6729,8.5967,8.5002,8.3935,8.2842,8.1775,8.0912,8.0378,8.0327,8.0302,8.0302,8.0302,8.0302,8.0302,8.1385,8.3301,8.504,8.6914,8.9128,9.2094,9.1996,9.01,8.8501,8.7395,8.6145,8.5156,8.4313,8.4342,8.4254,8.4254,8.4177,8.4177,8.4177,8.4177,8.4177,8.4254,8.4254,8.4177,8.4148,8.4332,8.4254,8.4177,8.4409,8.4485,8.4485,8.4409,8.4254,8.4177,8.4254,8.4177,8.4254,8.4409,8.4409,8.4409,8.4409,8.4332,8.4379,8.4657,8.5206,8.5928,8.6828,8.738,8.8352,8.9609,9.0564,9.1629,9.289,9.4179,9.4179,9.4179,9.458,9.5224,9.5224,9.5224,9.5164,7.4238,7.4238,7.4238,7.4238,7.4238,7.4238,7.4238,7.4238,7.4238,7.4238,7.4238,7.4238,7.4238,7.4238,7.4238,7.4238,7.4238,7.4238,7.4238,7.4695,7.5838,7.818,8.0394,8.2325,8.4054,8.6828,8.738,8.6852,8.6852,8.6852,8.6852,8.6852,8.6852,8.6852,8.6852,8.6852,8.6852,8.6852,8.6852,8.6852,8.678,8.5789,8.4671,8.3579,8.2436,8.1343,8.0607,8.0302,8.0302,8.0302,8.0302,8.0302,8.0302,8.0568,8.1385,8.2642,8.4196,8.6208,8.9302,9.1548,9.118,8.9286,8.7686,8.629,8.5078,8.441,8.4177,8.4177,8.4177,8.4177,8.4177,8.4177,8.4177,8.4177,8.4177,8.4177,8.4177,8.4177,8.4177,8.4177,8.4177,8.4177,8.4332,8.4332,8.4332,8.4254,8.4177,8.4177,8.4177,8.4177,8.4177,8.4177,8.4177,8.4177,8.4177,8.4254,8.4302,8.4456,8.458,8.5114,8.516,8.5009,8.5778,8.7483,8.9016,9.0293,9.1463,9.2666,9.3017,9.3207,9.4117,9.4982,9.5043,9.5043,9.5043,7.4238,7.4238,7.4238,7.4238,7.4238,7.4238,7.4238,7.4238,7.4238,7.4238,7.4238,7.4238,7.4238,7.4238,7.4238,7.4238,7.4238,7.4238,7.4238,7.4675,7.5487,7.7995,8.0436,8.2327,8.4074,8.6903,8.7284,8.6852,8.6852,8.6852,8.6852,8.6852,8.6852,8.6852,8.6852,8.6852,8.6852,8.6852,8.6852,8.6653,8.6297,8.5205,8.4113,8.302,8.1902,8.0962,8.0454,8.0327,8.0302,8.0302,8.0302,8.0302,8.0302,8.0302,8.0858,8.1768,8.3956,8.5861,8.8566,8.9062,8.9569,8.8142,8.7163,8.568,8.4468,8.4177,8.4177,8.4177,8.4177,8.4177,8.4177,8.4177,8.4177,8.4177,8.4177,8.4177,8.4177,8.4177,8.4177,8.4177,8.4177,8.4177,8.4177,8.4177,8.4177,8.4177,8.4177,8.4177,8.4177,8.4177,8.4177,8.4177,8.4177,8.4177,8.4177,8.4177,8.4177,8.4254,8.4254,8.4456,8.4533,8.4225,8.4533,8.5613,8.718,8.8382,8.9678,9.1033,9.2021,9.2698,9.3554,9.4523,9.48,9.4861,9.48,7.4238,7.4238,7.4238,7.4238,7.4238,7.4238,7.4238,7.4238,7.4238,7.4238,7.4238,7.4238,7.4238,7.4238,7.4238,7.4238,7.4238,7.4238,7.4238,7.4432,7.516,7.7718,8.0096,8.2134,8.3701,8.6576,8.6928,8.6852,8.6852,8.6852,8.6852,8.6852,8.6852,8.6852,8.6852,8.6852,8.6852,8.6852,8.6852,8.6475,8.5434,8.4367,8.3249,8.2106,8.1039,8.0302,8.0302,8.0302,8.0302,8.0302,8.0302,8.0302,8.0302,8.0302,8.0302,8.1219,8.3045,8.4937,8.6581,8.7258,8.7706,8.8361,8.7686,8.5543,8.4323,8.4177,8.4177,8.4177,8.4177,8.4177,8.4177,8.4177,8.4177,8.4177,8.4177,8.4177,8.4177,8.4177,8.4177,8.4177,8.4177,8.4177,8.4177,8.4177,8.4177,8.4177,8.4177,8.4177,8.4177,8.4177,8.4177,8.4177,8.4177,8.4177,8.4177,8.4177,8.4177,8.4177,8.4177,8.4177,8.4177,8.4225,8.4302,8.5265,8.5942,8.6772,8.7771,8.8985,9.0262,9.1629,9.2858,9.3651,9.4153,9.4338,9.4338,7.4238,7.4238,7.4238,7.4238,7.4238,7.4238,7.4238,7.4238,7.4238,7.4238,7.4238,7.4238,7.4238,7.4238,7.4238,7.4238,7.4238,7.4238,7.4238,7.5033,7.6463,7.8454,8.0463,8.3012,8.4802,8.6878,8.6852,8.6852,8.6852,8.6852,8.6852,8.6852,8.6852,8.6852,8.6852,8.6852,8.6852,8.6852,8.6852,8.6323,8.523,8.4163,8.3096,8.1953,8.0988,8.0302,8.0302,8.0302,8.0302,8.0302,8.0302,8.0302,8.0302,8.0302,8.0302,8.0665,8.1507,8.3489,8.5491,8.6626,8.7466,8.7685,8.6959,8.5592,8.441,8.4177,8.4177,8.4177,8.4177,8.4177,8.4177,8.4177,8.4177,8.4177,8.4177,8.4177,8.4177,8.4177,8.4177,8.4177,8.4177,8.4177,8.4177,8.4177,8.4177,8.4177,8.4177,8.4177,8.4177,8.4177,8.4177,8.4177,8.4177,8.4177,8.4177,8.4177,8.4177,8.4177,8.4177,8.4177,8.4177,8.4254,8.4225,8.4485,8.4944,8.5792,8.6595,8.7368,8.8169,8.9691,9.1141,9.2377,9.327,9.3779,9.3739,7.4238,7.4238,7.4238,7.4238,7.4238,7.4238,7.4238,7.4238,7.4238,7.4238,7.4238,7.4238,7.4238,7.4238,7.4238,7.4238,7.4238,7.4238,7.4057,7.4262,7.6287,7.8562,8.0428,8.2843,8.5233,8.6455,8.6852,8.6852,8.6852,8.6852,8.6852,8.6852,8.6852,8.6852,8.6852,8.6852,8.6852,8.6852,8.6751,8.6119,8.4824,8.3884,8.2868,8.1293,8.0632,8.0353,8.0302,8.0302,8.0302,8.0302,8.0302,8.0302,8.0302,8.0302,8.0302,8.0399,8.0955,8.2951,8.5609,8.6672,8.7379,8.7555,8.6872,8.5563,8.4526,8.4177,8.4177,8.4177,8.4177,8.4177,8.4177,8.4177,8.4177,8.4177,8.4177,8.4177,8.4177,8.4177,8.4177,8.4177,8.4177,8.4177,8.4177,8.4177,8.4177,8.4177,8.4177,8.4177,8.4177,8.4177,8.4177,8.4177,8.4177,8.4177,8.4177,8.4177,8.4177,8.4177,8.4177,8.4177,8.4177,8.4177,8.4177,8.4332,8.4485,8.4915,8.5538,8.624,8.6867,8.8076,8.9374,9.0277,9.1162,9.1767,9.1901,7.4238,7.4238,7.4238,7.4238,7.4238,7.4238,7.4238,7.4238,7.4238,7.4238,7.4238,7.4238,7.4238,7.4238,7.4238,7.4238,7.4238,7.4178,7.3795,7.3713,7.6388,7.8611,7.9604,8.2292,8.5284,8.6561,8.6852,8.6852,8.6852,8.6852,8.6852,8.6852,8.6852,8.6852,8.6852,8.6852,8.6852,8.6852,8.6852,8.6094,8.4544,8.3884,8.2461,8.1039,8.0327,8.0302,8.0302,8.0302,8.0302,8.0302,8.0302,8.0302,8.0302,8.0302,8.0302,8.0858,8.2098,8.3943,8.5437,8.6254,8.6868,8.7197,8.6436,8.534,8.4526,8.4177,8.4177,8.4177,8.4177,8.4177,8.4177,8.4177,8.4177,8.4177,8.4177,8.4177,8.4177,8.4177,8.4177,8.4177,8.4177,8.4177,8.4177,8.4177,8.4177,8.4177,8.4177,8.4177,8.4177,8.4177,8.4177,8.4177,8.4177,8.4177,8.4177,8.4177,8.4177,8.4177,8.4177,8.4177,8.4177,8.4177,8.4177,8.4061,8.4177,8.4533,8.4417,8.4813,8.563,8.6461,8.7191,8.7999,8.8957,8.9404,8.9871,7.4238,7.4238,7.4238,7.4238,7.4238,7.4238,7.4238,7.4238,7.4238,7.4238,7.4238,7.4238,7.4238,7.4238,7.4238,7.4238,7.4238,7.4178,7.3635,7.3827,7.7303,7.9446,8.077,8.3402,8.6273,8.6852,8.6852,8.6852,8.6852,8.6852,8.6852,8.6852,8.6852,8.6852,8.6852,8.6852,8.6852,8.6852,8.6852,8.6856,8.5916,8.4442,8.2563,8.0484,8.0302,8.0302,8.0302,8.0302,8.0302,8.0302,8.0302,8.0302,8.0302,8.0302,8.0302,8.0568,8.2193,8.3463,8.4502,8.5193,8.6038,8.6335,8.5232,8.4613,8.4177,8.4177,8.4177,8.4177,8.4177,8.4177,8.4177,8.4177,8.4177,8.4177,8.4177,8.4177,8.4177,8.4177,8.4177,8.4177,8.4177,8.4177,8.4177,8.4177,8.4177,8.4177,8.4177,8.4177,8.4177,8.4177,8.4177,8.4177,8.4177,8.4177,8.4177,8.4177,8.4177,8.4177,8.4177,8.4177,8.4177,8.4148,8.3858,8.3654,8.3683,8.3237,8.3051,8.3107,8.3617,8.4103,8.4949,8.5909,8.696,8.7566,8.7869,7.4238,7.4238,7.4238,7.4238,7.4238,7.4238,7.4238,7.4238,7.4238,7.4238,7.4238,7.4238,7.4238,7.4238,7.4238,7.4238,7.4057,7.3836,7.3071,7.3526,7.7294,7.9579,7.9325,8.4332,8.6324,8.6852,8.6852,8.6852,8.6852,8.6852,8.6852,8.6852,8.6852,8.6852,8.6852,8.6852,8.6852,8.6852,8.6852,8.6932,8.6624,8.4722,8.2563,8.0839,8.0302,8.0302,8.0302,8.0302,8.0302,8.0302,8.0302,8.0302,8.0302,8.0302,8.0302,8.0659,8.2399,8.3581,8.3027,8.4673,8.518,8.4996,8.4562,8.4158,8.4177,8.4177,8.4177,8.4177,8.4177,8.4177,8.4177,8.4177,8.4177,8.4177,8.4177,8.4177,8.4177,8.4177,8.4177,8.4177,8.4177,8.4177,8.4177,8.4177,8.4177,8.4177,8.4177,8.4177,8.4177,8.4177,8.4177,8.4177,8.4177,8.4177,8.4177,8.4177,8.4177,8.4177,8.4177,8.4177,8.4148,8.409,8.38,8.3149,8.2422,8.1841,8.1653,8.1479,8.1543,8.1758,8.2848,8.3923,8.5005,8.5736,8.601,7.4238,7.4238,7.4238,7.4238,7.4238,7.4238,7.4238,7.4238,7.4238,7.4238,7.4238,7.4238,7.4238,7.4238,7.4238,7.4238,7.4017,7.3481,7.2766,7.3178,7.6853,7.9489,7.9967,8.4409,8.6747,8.6852,8.6852,8.6852,8.6852,8.6852,8.6852,8.6852,8.6852,8.6852,8.6852,8.6852,8.6852,8.6852,8.6852,8.6852,8.6475,8.4773,8.2563,8.0607,8.0302,8.0302,8.0302,8.0302,8.0302,8.0302,8.0302,8.0302,8.0302,8.0302,8.0302,8.0654,8.2284,8.2873,8.2408,8.4085,8.4633,8.4217,8.3997,8.4177,8.4177,8.4177,8.4177,8.4177,8.4177,8.4177,8.4177,8.4177,8.4177,8.4177,8.4177,8.4177,8.4177,8.4177,8.4177,8.4177,8.4177,8.4177,8.4177,8.4177,8.4177,8.4177,8.4177,8.4177,8.4177,8.4177,8.4177,8.4177,8.4177,8.4177,8.4148,8.4148,8.3887,8.3829,8.3586,8.3586,8.316,8.348,8.3207,8.1957,8.1084,8.0619,8.0328,8.0154,7.9979,7.9536,8.0678,8.1948,8.3027,8.4041,8.4286,7.4238,7.4238,7.4238,7.4238,7.4238,7.4238,7.4238,7.4238,7.4238,7.4238,7.4238,7.4238,7.4238,7.4238,7.4238,7.4218,7.3956,7.336,7.328,7.373,7.7519,7.9463,8.165,8.4492,8.6852,8.6852,8.6852,8.6852,8.6852,8.6852,8.6852,8.6852,8.6852,8.6852,8.6852,8.6852,8.6852,8.6852,8.6958,8.6932,8.6475,8.4722,8.2614,8.0835,8.0378,8.0302,8.0302,8.0302,8.0302,8.0302,8.0302,8.0302,8.0302,8.0302,8.0302,8.0297,8.1276,8.1731,8.1819,8.2939,8.392,8.4235,8.41,8.41,8.4177,8.4177,8.4177,8.4177,8.4177,8.4177,8.4177,8.4177,8.4177,8.4177,8.4177,8.4177,8.4177,8.4177,8.4177,8.4177,8.4177,8.4177,8.4177,8.4177,8.4177,8.4177,8.4177,8.4177,8.4177,8.4177,8.4148,8.4071,8.4177,8.4177,8.409,8.4003,8.3411,8.3091,8.2614,8.2119,8.1404,8.1288,8.0852,8.0096,7.9805,7.9514,7.9194,7.8932,7.8364,7.7586,7.8413,8.0375,8.1495,8.2259,8.3482,7.4238,7.4238,7.4238,7.4238,7.4238,7.4238,7.4238,7.4238,7.4238,7.4238,7.4238,7.4238,7.4238,7.4238,7.4218,7.3916,7.3514,7.3011,7.3322,7.4755,7.7127,7.9794,8.2275,8.5052,8.6747,8.6536,8.6747,8.6852,8.6852,8.6852,8.6852,8.6852,8.6852,8.6852,8.6852,8.6852,8.6852,8.6852,8.6958,8.6628,8.5967,8.4443,8.2741,8.1496,8.0632,8.0302,8.0302,8.0302,8.0302,8.0302,8.0302,8.0302,8.0302,8.0302,7.9972,7.965,8.0028,8.0377,8.0181,8.0737,8.1729,8.2664,8.2793,8.3264,8.3916,8.4177,8.4177,8.4177,8.4177,8.4177,8.4177,8.4177,8.4177,8.4177,8.4177,8.4177,8.4177,8.4177,8.4177,8.4177,8.4177,8.4177,8.4177,8.4177,8.4177,8.4023,8.4023,8.3994,8.3994,8.3994,8.3994,8.3916,8.3994,8.3926,8.381,8.3422,8.2695,8.2056,8.1446,8.0764,7.9906,7.931,7.8641,7.8292,7.8031,7.7885,7.8118,7.7711,7.7216,7.709,7.7647,7.9083,8.0428,8.1667,8.2932,7.4238,7.4238,7.4238,7.4238,7.4238,7.4238,7.4238,7.4238,7.4238,7.4238,7.4238,7.4238,7.4117,7.3916,7.3816,7.3433,7.2629,7.2332,7.2828,7.4056,7.645,7.9687,8.3171,8.5209,8.6324,8.6324,8.6536,8.6747,8.6852,8.6852,8.6852,8.6852,8.6852,8.6852,8.6852,8.6852,8.6852,8.6802,8.6653,8.6094,8.523,8.3986,8.2741,8.2027,8.0861,8.0353,8.0302,8.0302,8.0302,8.0302,8.0302,8.0302,8.0226,8.0022,7.9489,7.8954,7.9119,7.8898,7.8478,7.9294,8.0272,8.1703,8.229,8.2793,8.4071,8.4177,8.4177,8.4177,8.4177,8.4177,8.4177,8.4177,8.4177,8.4177,8.4177,8.3994,8.3654,8.3654,8.3916,8.3994,8.3994,8.3994,8.3916,8.3916,8.3916,8.3945,8.3839,8.3732,8.3683,8.3683,8.3605,8.3449,8.3268,8.2739,8.2556,8.2055,8.136,8.0695,8.012,7.9411,7.8759,7.8062,7.764,7.7087,7.6564,7.6681,7.7087,7.6768,7.6855,7.713,7.748,7.8481,7.9648,8.1101,8.2442,7.4238,7.4238,7.4238,7.4238,7.4238,7.4238,7.4238,7.4238,7.4238,7.4238,7.4198,7.4218,7.3755,7.3031,7.3071,7.2528,7.1643,7.1059,7.0927,7.2253,7.5753,8.0355,8.4159,8.5416,8.5736,8.5924,8.6137,8.643,8.6747,8.6852,8.6852,8.6852,8.6852,8.6852,8.6852,8.6852,8.6852,8.6678,8.6043,8.5408,8.4646,8.3375,8.2207,8.1773,8.0759,8.0353,8.0302,8.0302,8.0302,8.0302,8.0302,8.0251,8.0099,7.9235,7.8651,7.8375,7.8105,7.7984,7.8152,7.9555,8.1193,8.1703,8.295,8.4071,8.4071,8.4177,8.4177,8.4177,8.4177,8.4177,8.4177,8.4177,8.4071,8.3732,8.3916,8.3157,8.2045,8.2341,8.3293,8.3577,8.3626,8.3421,8.3343,8.3343,8.3499,8.3449,8.3371,8.3293,8.3215,8.3005,8.2862,8.2706,8.216,8.1557,8.1136,8.0712,7.9963,7.9387,7.8784,7.8092,7.734,7.7136,7.6726,7.6564,7.6564,7.6564,7.6564,7.6564,7.6623,7.6845,7.6955,7.7725,7.875,8.0299,8.1698,7.4238,7.4238,7.4238,7.4238,7.4238,7.4238,7.4238,7.4238,7.4238,7.4238,7.4097,7.3715,7.3232,7.285,7.2347,7.1623,7.0798,7.0355,6.9913,7.0376,7.4982,8.0045,8.3811,8.5202,8.5202,8.5259,8.5818,8.6243,8.643,8.6747,8.6852,8.6852,8.6852,8.6852,8.6852,8.6827,8.6653,8.5992,8.5586,8.457,8.3553,8.2485,8.1798,8.0962,8.0632,8.0302,8.0302,8.0302,8.0302,8.0302,8.0277,7.9997,7.9362,7.8778,7.7965,7.6618,7.6537,7.6635,7.7062,7.7821,7.9424,8.1273,8.221,8.3108,8.3916,8.4177,8.4177,8.4177,8.4177,8.4177,8.4177,8.4177,8.3548,8.2521,8.2045,8.1515,8.0733,8.1863,8.2448,8.2182,8.2527,8.3215,8.3029,8.3136,8.3136,8.295,8.2743,8.2743,8.2413,8.2156,8.1776,8.122,8.0734,8.021,7.9788,7.9002,7.8227,7.7998,7.7382,7.6534,7.6246,7.6444,7.6395,7.6564,7.6564,7.6564,7.6564,7.6564,7.6564,7.6564,7.6564,7.7134,7.8241,7.9612,8.0877,7.4238,7.4238,7.4238,7.4238,7.4238,7.4238,7.4238,7.4218,7.3977,7.3795,7.3655,7.293,7.2367,7.2105,7.1442,7.0697,7.0033,6.9812,6.943,6.9726,7.4481,7.9152,8.2566,8.4292,8.4748,8.483,8.5498,8.6056,8.6324,8.6747,8.6827,8.6747,8.6641,8.6641,8.6434,8.6207,8.5835,8.515,8.4618,8.3326,8.1982,8.1501,8.0918,8.0158,8.023,8.0302,8.0302,8.0302,8.0302,8.0302,8.0073,7.9413,7.8676,7.7914,7.6898,7.5668,7.551,7.5736,7.6317,7.7303,7.8677,8.0761,8.1943,8.2607,8.3449,8.3761,8.3994,8.3994,8.3994,8.3994,8.3994,8.3994,8.2893,8.1109,7.9944,7.9286,7.9451,8.0842,8.1783,8.1087,8.1651,8.2187,8.2426,8.2692,8.2556,8.2051,8.2051,8.229,8.0923,8.041,8.0519,7.993,7.9124,7.8782,7.8228,7.7359,7.6816,7.6571,7.6086,7.5257,7.5544,7.5729,7.6042,7.6395,7.6324,7.6465,7.6465,7.6564,7.6564,7.6564,7.6775,7.7065,7.8037,7.915,8.0493,7.4238,7.4238,7.4238,7.4238,7.4238,7.4158,7.4117,7.4037,7.3313,7.2971,7.279,7.2005,7.12,7.0536,7.0375,6.9832,6.9088,6.9047,6.8967,7.0163,7.3923,7.7597,8.0338,8.2833,8.4209,8.4962,8.5309,8.5818,8.6404,8.6641,8.6641,8.6193,8.6036,8.5899,8.5386,8.4795,8.4401,8.3873,8.2515,8.1634,8.1205,8.0299,7.9546,7.9619,7.9887,8.0205,8.0205,8.0107,8.0205,8.015,7.919,7.8581,7.8048,7.6542,7.5602,7.5261,7.5793,7.6083,7.6786,7.8482,8.0272,7.9671,8.1755,8.3343,8.2159,8.3,8.3654,8.3654,8.3577,8.3654,8.3654,8.3654,8.242,8.0517,7.8899,7.7588,7.7223,7.8288,7.9671,8.1087,8.0872,8.0356,8.1603,8.1976,8.1193,8.0271,8.0677,8.017,7.9128,7.893,7.9062,7.8363,7.7279,7.6891,7.6653,7.5875,7.5579,7.5364,7.5064,7.4796,7.5013,7.5085,7.5329,7.58,7.6084,7.6225,7.6395,7.6564,7.6564,7.6564,7.6885,7.7382,7.8241,7.9252,8.059,7.4238,7.4238,7.4238,7.4238,7.4178,7.3594,7.3373,7.3252,7.2427,7.2045,7.1864,7.1079,7.0496,7.0134,6.9591,6.9168,6.8886,6.8866,6.8866,6.9546,7.3923,7.6573,7.796,8.1602,8.3884,8.4209,8.4615,8.4913,8.5341,8.5711,8.5818,8.5455,8.4879,8.4343,8.4138,8.3375,8.2454,8.1931,8.118,8.0454,7.9704,7.9229,7.9004,7.9004,7.9226,7.9397,7.9691,7.9521,7.9096,7.8733,7.8279,7.746,7.6449,7.5755,7.4942,7.4691,7.5316,7.564,7.502,7.7726,7.9231,7.9341,8.0895,8.2074,8.2764,8.3108,8.3421,8.3293,8.3108,8.3186,8.3215,8.3215,8.1515,7.8231,7.8814,7.8396,7.5501,7.6192,7.7753,7.8537,7.8981,7.9479,7.9836,8.0109,7.945,7.8326,7.8461,7.8129,7.8135,7.7606,7.7351,7.6798,7.5896,7.5416,7.5049,7.4784,7.4433,7.4332,7.4259,7.4506,7.4651,7.4724,7.4868,7.5343,7.57,7.5942,7.6395,7.6494,7.6564,7.6564,7.6635,7.7411,7.8279,7.9384,8.0655,7.4057,7.3836,7.3816,7.3655,7.3292,7.2729,7.2468,7.2387,7.1522,7.112,7.0959,7.0174,6.9792,6.9611,6.9148,6.8866,6.8866,6.8846,6.9326,7.0578,7.4293,7.6573,7.805,8.1712,8.3559,8.3618,8.3864,8.3816,8.3789,8.4107,8.4182,8.3977,8.3256,8.2828,8.2415,8.1737,8.0945,8.0175,7.9928,7.9306,7.861,7.8535,7.8535,7.8535,7.8634,7.8534,7.8529,7.8014,7.7467,7.7071,7.6829,7.6313,7.526,7.4669,7.4137,7.3658,7.4582,7.467,7.4368,7.6476,7.8204,7.8733,8.0489,8.1835,8.2341,8.2261,8.2448,8.285,8.2239,8.2318,8.2664,8.285,8.1221,7.7473,7.834,7.7553,7.6046,7.5933,7.6364,7.6963,7.7133,7.7622,7.8158,7.8435,7.7697,7.6173,7.6874,7.6675,7.6124,7.5782,7.6103,7.5613,7.5021,7.4457,7.4541,7.453,7.4332,7.4259,7.4259,7.4405,7.4506,7.4579,7.4695,7.4984,7.5272,7.5658,7.6183,7.6395,7.6494,7.6494,7.6635,7.7411,7.8414,7.9648,8.0846,7.3574,7.287,7.289,7.2387,7.1804,7.1623,7.1542,7.1401,7.0597,7.0194,7.0114,6.9329,6.9007,6.8927,6.8907,6.8866,6.8826,6.8746,6.9741,7.1766,7.4653,7.7144,7.9055,8.184,8.3193,8.3301,8.2946,8.2514,8.2113,8.2138,8.201,8.1471,8.1342,8.1012,8.0337,7.9929,7.9493,7.9247,7.8507,7.8113,7.7915,7.7915,7.8015,7.8015,7.8337,7.7866,7.6509,7.5971,7.5626,7.538,7.4971,7.4759,7.4397,7.3584,7.2955,7.2904,7.3084,7.3634,7.4768,7.6476,7.7615,7.8399,8.087,8.1811,8.0816,8.0437,8.0953,8.1896,8.1224,8.0547,8.1976,8.2324,8.1277,7.9093,7.6819,7.6417,7.7133,7.7048,7.6792,7.7557,7.5948,7.4858,7.6435,7.6716,7.5465,7.3954,7.5031,7.583,7.2695,7.4234,7.5203,7.4592,7.4198,7.4259,7.4259,7.4259,7.4259,7.4259,7.4259,7.4259,7.4405,7.4405,7.455,7.4623,7.4912,7.5228,7.5758,7.5971,7.6113,7.6395,7.6676,7.7065,7.8414,7.9909,8.1101,7.0234,7.0999,7.1059,7.122,7.1442,7.0898,7.0637,7.0516,6.9671,6.9289,6.9249,6.8987,6.8866,6.8866,6.8866,6.8866,6.8806,6.8243,6.8435,6.9532,7.2641,7.4689,7.6016,7.9479,8.1387,8.1314,8.1102,8.1042,8.0908,8.0883,8.0754,8.0473,7.9812,7.9391,7.9093,7.8393,7.7855,7.7931,7.7637,7.7441,7.7441,7.7441,7.7416,7.7343,7.683,7.6069,7.4771,7.4528,7.4327,7.3936,7.367,7.3362,7.2988,7.2604,7.2339,7.2494,7.3519,7.4442,7.4943,7.6252,7.7673,7.9341,8.03,8.1196,8.1547,8.1547,8.1656,8.1792,8.1389,8.0656,8.0547,8.1252,8.0628,7.7838,7.8396,7.7834,7.4152,7.5066,7.5761,7.5283,7.4416,7.4161,7.4105,7.3147,7.1854,7.0097,7.1658,7.2376,7.0757,7.2573,7.4332,7.296,7.3645,7.4186,7.4259,7.4259,7.4259,7.4259,7.4259,7.4259,7.4332,7.4332,7.4332,7.4304,7.455,7.4868,7.5185,7.5443,7.5729,7.6084,7.6291,7.6891,7.8673,8.0112,8.1108,6.8404,6.9691,6.9711,7.0033,7.0496,6.9973,6.9711,6.9651,6.9088,6.8866,6.8866,6.8866,6.8866,6.8806,6.8202,6.7901,6.786,6.7337,6.7193,6.7696,7.137,7.3307,7.3724,7.8052,8.0233,8.0184,7.9867,7.9502,7.9264,7.9215,7.919,7.9068,7.8507,7.819,7.8068,7.7482,7.7165,7.7165,7.7165,7.7165,7.7165,7.7165,7.6726,7.5994,7.531,7.4432,7.3334,7.3309,7.301,7.2237,7.2188,7.2053,7.1687,7.177,7.1836,7.2017,7.3583,7.4556,7.4442,7.5179,7.6509,7.8566,7.912,7.9973,8.0898,8.1196,8.1386,8.1523,8.128,7.9946,7.8787,7.9064,7.8842,7.6733,7.7101,7.5726,7.3265,7.3264,7.3886,7.2442,7.2562,7.2505,7.1428,7.0816,7.002,6.9204,7.0786,7.1512,7.0993,7.2401,7.4023,7.3174,7.3571,7.4259,7.4259,7.4259,7.4259,7.4259,7.4259,7.4259,7.4259,7.4259,7.4259,7.4332,7.4332,7.4651,7.4667,7.5028,7.58,7.5939,7.5693,7.6645,7.882,7.881,8.0079,6.786,6.8524,6.8645,6.8645,6.8766,6.8846,6.8846,6.8806,6.8846,6.8806,6.8746,6.8746,6.8766,6.8544,6.7056,6.6251,6.6387,6.6326,6.617,6.6706,7.0692,7.3018,7.348,7.7804,7.9934,7.9745,7.9068,7.8239,7.736,7.7263,7.7165,7.7238,7.7287,7.7165,7.7092,7.7019,7.7043,7.6799,7.6774,7.6896,7.6921,7.6921,7.5872,7.4139,7.3822,7.3309,7.2357,7.2211,7.1865,7.0839,7.0863,7.0882,7.0949,7.1199,7.1472,7.1786,7.3251,7.4077,7.3849,7.3912,7.4742,7.6364,7.8147,7.8982,7.9616,7.9451,7.9891,8.147,7.9836,7.8426,7.7245,7.7187,7.6476,7.602,7.3328,7.2448,7.2896,7.2288,7.1081,6.9886,7.0062,7.0104,6.9082,6.9947,6.9723,6.9494,7.1522,7.2755,7.1419,7.2653,7.3718,7.3792,7.3967,7.4259,7.4259,7.4259,7.4259,7.4259,7.4259,7.4259,7.4259,7.4259,7.4259,7.4259,7.4332,7.4332,7.4348,7.4698,7.5342,7.5507,7.526,7.588,7.7651,7.7494,7.8337,6.4843,6.5124,6.5728,6.6352,6.7056,6.8303,6.8484,6.8041,6.8585,6.8504,6.8059,6.7921,6.7579,6.6935,6.6452,6.6231,6.613,6.5661,6.5245,6.5619,6.7623,6.9596,7.1378,7.4146,7.6313,7.7767,7.7775,7.7458,7.7214,7.7165,7.7165,7.7165,7.7165,7.6774,7.6067,7.5994,7.5603,7.4895,7.4773,7.4798,7.4773,7.4773,7.4114,7.287,7.2723,7.2211,7.1254,7.123,7.1059,7.079,7.079,7.1381,7.2534,7.1539,7.2148,7.4478,7.4203,7.4203,7.5353,7.544,7.6304,7.7979,7.8566,7.9479,8.0437,7.9726,7.9286,7.9644,7.809,7.8258,7.9341,7.778,7.6278,7.6053,7.4717,7.2511,7.0684,7.059,7.0401,6.9896,6.9074,6.9159,6.9891,6.8919,6.7676,6.6564,6.7806,6.8548,6.8653,7.0781,7.2578,7.2476,7.3571,7.4186,7.4259,7.4259,7.4259,7.4259,7.4259,7.4259,7.4259,7.4259,7.4231,7.3582,7.409,7.4207,7.366,7.3813,7.4338,7.4422,7.4559,7.5069,7.6661,7.6911,7.7568,6.3504,6.3736,6.4923,6.6064,6.6834,6.7881,6.782,6.7193,6.7559,6.7498,6.7112,6.6729,6.5969,6.5165,6.5165,6.5165,6.5124,6.4601,6.436,6.4636,6.7148,6.9088,7.0655,7.3539,7.5781,7.7065,7.7165,7.7165,7.7092,7.6701,7.6262,7.5847,7.5823,7.5505,7.4944,7.4871,7.4554,7.3895,7.387,7.3456,7.2699,7.2577,7.226,7.1792,7.165,7.1376,7.0863,7.079,7.079,7.079,7.079,7.1563,7.3315,7.2444,7.3443,7.6792,7.5613,7.5353,7.7133,7.6648,7.6963,7.876,7.8899,7.901,7.9423,7.9203,7.8899,7.8899,7.8731,7.8319,7.86,7.7498,7.5719,7.4004,7.3176,7.1595,6.8646,6.8474,6.8439,6.8364,6.7429,6.7226,6.7758,6.6836,6.6074,6.6706,6.8601,7.0319,7.0114,7.1468,7.2728,7.2877,7.3571,7.4186,7.4259,7.4259,7.4259,7.4259,7.4259,7.3949,7.3695,7.3554,7.33,7.2764,7.2595,7.2511,7.2698,7.2733,7.3126,7.3299,7.3566,7.4807,7.614,7.5973,7.5926,6.3424,6.3765,6.5245,6.6512,6.7314,6.7495,6.7052,6.6286,6.6326,6.6286,6.5889,6.5238,6.434,6.3464,6.3404,6.3364,6.3374,6.3374,6.3464,6.4065,6.7887,7.0071,7.0693,7.4462,7.6648,7.6799,7.675,7.6652,7.6604,7.5823,7.4895,7.3968,7.387,7.3895,7.3724,7.3724,7.3675,7.3578,7.3578,7.265,7.0912,7.079,7.079,7.079,7.079,7.079,7.079,7.079,7.079,7.079,7.0949,7.1836,7.3226,7.3544,7.511,7.8292,7.6982,7.6813,7.8212,7.6982,7.6871,7.8569,7.8708,7.8236,7.733,7.7958,7.8544,7.8545,7.9695,7.849,7.5674,7.5457,7.4393,7.1742,7.0429,6.9136,6.7793,6.6489,6.5768,6.5744,6.5216,6.4447,6.521,6.5161,6.5942,6.8311,7.0754,7.2401,7.2849,7.335,7.3571,7.404,7.4259,7.4259,7.4231,7.4231,7.3949,7.3977,7.3977,7.33,7.2595,7.2256,7.2058,7.1438,7.0943,7.1164,7.1223,7.1461,7.2305,7.2671,7.358,7.4768,7.4645,7.4219,7.3914,6.2862,6.3524,6.4058,6.4702,6.5527,6.6211,6.6145,6.5285,6.5889,6.5466,6.4299,6.3998,6.3414,6.252,6.248,6.2227,6.1644,6.1583,6.24,6.3869,6.4878,6.7243,7.0461,7.1484,7.2992,7.4505,7.4627,7.4627,7.4578,7.4383,7.4114,7.3919,7.387,7.3456,7.265,7.265,7.2235,7.1547,7.1498,7.1162,7.079,7.079,7.079,7.079,7.079,7.079,7.079,7.079,7.079,7.0882,7.2108,7.3073,7.3468,7.3914,7.5211,7.7097,7.6201,7.5685,7.6007,7.5658,7.6065,7.7425,7.7534,7.8435,8.0024,7.7883,7.6088,7.5819,7.4379,7.4301,7.5973,7.305,7.0905,7.3554,6.9855,6.749,6.7847,6.61,6.467,6.4646,6.4534,6.4863,6.5911,6.6294,6.7055,6.8785,6.9775,7.088,7.1998,7.2326,7.2877,7.3792,7.4259,7.4146,7.4203,7.3526,7.299,7.2905,7.2171,7.1551,7.1212,7.1015,7.0789,7.0604,7.1001,7.128,7.1494,7.2193,7.2659,7.2588,7.3103,7.3455,7.3501,7.3213,7.3143,6.3083,6.3656,6.4038,6.446,6.4923,6.5406,6.5104,6.4279,6.3535,6.2428,6.1322,6.2066,6.1925,6.1141,6.1503,6.1443,6.1,6.1,6.2064,6.3971,6.5067,6.7314,7.0386,7.1591,7.2688,7.3774,7.387,7.387,7.3822,7.3358,7.3138,7.3114,7.265,7.2138,7.1576,7.1645,7.1352,7.079,7.079,7.079,7.079,7.079,7.079,7.079,7.079,7.079,7.079,7.1588,7.1654,7.0765,7.2809,7.3905,7.3966,7.4514,7.5605,7.7318,7.6368,7.5703,7.5703,7.5149,7.5371,7.6617,7.7227,7.8038,7.9175,7.7052,7.5952,7.6345,7.4844,7.4387,7.5548,7.3262,7.1654,7.251,7.0307,6.8411,6.7707,6.6293,6.517,6.4447,6.4388,6.5029,6.662,6.6863,6.7618,6.9932,7.037,7.106,7.2653,7.2507,7.244,7.3196,7.2961,7.2651,7.251,7.2002,7.1692,7.1635,7.1015,7.0422,6.9801,6.9745,6.9491,6.9107,6.9648,7.0283,7.0213,7.1366,7.2168,7.2246,7.2477,7.2913,7.2913,7.2913,7.2913,6.3112,6.3314,6.4018,6.4259,6.4271,6.4138,6.3656,6.269,6.0477,5.9028,5.8405,5.9934,6.0175,5.9491,6.0256,6.0829,6.1126,6.1126,6.2303,6.4555,6.6589,6.8613,7.0654,7.2544,7.3407,7.3431,7.3407,7.3431,7.3334,7.2479,7.2065,7.2036,7.123,7.0814,7.079,7.079,7.079,7.079,7.079,7.079,7.079,7.079,7.0839,7.0985,7.0863,7.0839,7.0985,7.2609,7.2714,7.1265,7.3637,7.4809,7.424,7.4875,7.5752,7.6653,7.5746,7.5134,7.5077,7.3949,7.3779,7.5049,7.6432,7.6601,7.5303,7.5162,7.5642,7.6742,7.6176,7.5572,7.3716,7.3771,7.2697,7.0148,7.0319,6.9914,6.7474,6.6574,6.5584,6.4329,6.4187,6.465,6.5804,6.6574,6.7938,7.0474,7.124,7.2251,7.3449,7.3131,7.2341,7.2087,7.1268,7.0648,7.0789,7.0507,7.0337,7.0337,7.0221,6.9803,6.8991,6.9049,6.8839,6.7646,6.8587,6.9107,6.9175,7.0327,7.1564,7.1862,7.236,7.2856,7.2913,7.2391,7.2176,6.0779,6.1483,6.1624,6.1261,6.0577,6.0577,6.0074,5.9209,0.0,0.0,0.0,5.8646,5.8686,5.8566,5.8706,5.9769,6.1284,6.1405,6.3357,6.6965,6.7444,6.8728,7.0678,7.1167,7.1352,7.1327,7.1327,7.1327,7.1327,7.1156,7.1059,7.1034,7.0863,7.079,7.079,7.079,7.079,7.079,7.079,7.079,7.079,7.079,7.1181,7.1967,7.123,7.1205,7.206,7.292,7.3315,7.3137,7.6265,7.6543,7.3185,7.4847,7.4557,7.1509,7.0564,7.0124,7.0096,6.8898,6.8729,7.0068,7.2171,7.251,7.0293,7.0124,7.0563,7.1805,7.0566,7.0194,7.1057,6.9004,6.8162,7.0153,6.8066,6.7106,6.7551,6.568,6.4093,6.3546,6.3264,6.3077,6.3621,6.5559,6.7618,6.9386,7.0871,7.2298,7.3539,7.2341,7.1015,7.093,7.0563,7.0422,7.0394,6.9813,6.9192,6.9243,6.902,6.874,6.861,6.9126,6.948,6.9092,7.0084,7.0572,7.0844,7.1501,7.2535,7.2593,7.2767,7.2913,7.2729,7.1161,6.9692,5.925,5.9632,5.9632,5.937,0.0,5.8968,5.768,5.5725,5.5608,5.5608,5.5689,5.6554,5.6695,5.6292,5.78,5.9196,6.0774,6.1751,6.4142,6.7598,6.7598,6.8748,7.079,7.079,7.079,7.079,7.079,7.079,7.079,7.079,7.079,7.079,7.079,7.079,7.079,7.079,7.079,7.079,7.079,7.079,7.079,7.079,7.1034,7.143,7.1034,0.0,0.0,0.0,0.0,0.0,0.0,0.0,0.0,0.0,0.0,6.8485,6.7481,6.665,6.5936,6.4751,6.43,6.4949,6.6754,6.6726,6.4306,6.5295,6.6726,6.8436,6.7966,6.8081,6.9439,6.8165,6.8132,7.0131,6.9105,6.7689,6.7007,6.6198,6.5129,6.3817,6.3787,6.4454,6.52,6.6665,6.8021,6.9619,7.0629,7.1454,7.2114,7.1325,7.0309,6.9745,6.9209,6.8729,6.8673,6.8508,6.86,6.8731,6.8895,6.9087,6.9062,6.9499,6.9747,6.9779,7.0096,7.0332,7.0389,7.0571,7.0823,7.0854,7.0854,7.0854,7.0736,6.9809,6.8801,5.7801,5.7801,5.7801,5.77,5.7519,5.7379,5.5749,5.3307,5.2964,5.2924,5.3186,5.4502,5.4995,5.5003,5.7196,5.923,6.0926,6.2785,6.5097,6.788,6.8092,6.9145,7.0674,7.079,7.079,7.079,7.079,7.079,7.079,7.079,7.079,7.079,7.079,7.079,7.0765,0.0,0.0,0.0,7.0692,7.079,7.079,7.079,7.1047,7.1585,7.11,0.0,7.3861,7.439,7.4473,7.4264,7.4261,0.0,0.0,0.0,0.0,0.0,0.0,0.0,0.0,0.0,0.0,0.0,6.0378,6.0237,5.8404,6.0773,6.3425,6.5505,6.5597,6.5992,6.7243,6.7385,6.7826,6.9011,6.9181,6.8193,6.579,6.6066,6.5781,6.3236,6.4019,6.5362,6.6454,6.7318,6.8194,6.9668,7.0048,7.0019,6.993,6.9761,6.9463,6.8655,6.7685,6.6914,6.683,6.7771,6.8414,6.8495,6.9133,6.9608,6.961,6.9613,6.9587,6.9558,6.9435,6.9323,6.9323,6.9039,6.8986,6.8832,6.8863,6.8579,6.8024,6.8139,6.8378,5.597,5.597,5.595,5.5508,5.4647,5.4073,5.3838,5.3999,5.249,5.236,5.3105,5.3307,5.4683,5.6794,5.7199,5.9639,6.3792,6.5083,6.6793,6.888,6.9868,7.0465,7.079,7.079,7.079,7.079,7.079,7.079,7.079,7.079,7.079,7.079,7.079,7.079,7.0692,6.8819,6.8355,6.9217,7.021,7.079,7.079,7.079,7.1941,7.4269,7.2479,7.2751,7.5483,7.5272,7.4654,7.3677,7.4064,7.2086,6.752,6.6209,6.4469,0.0,5.9755,0.0,0.0,0.0,0.0,0.0,0.0,0.0,0.0,5.7302,6.0491,6.1873,6.0999,6.0886,6.2099,6.2212,6.2748,6.3926,6.4159,6.3941,6.356,6.2487,6.1585,6.1217,6.2066,6.2652,6.321,6.4661,6.644,6.8047,6.8309,6.7986,6.752,6.746,6.7431,6.7206,6.6914,6.7027,6.7129,6.785,6.8466,6.8477,6.9015,6.9434,6.9463,6.9196,6.8967,6.8937,6.8809,6.8736,6.8882,6.8723,6.8648,6.8402,6.8418,6.772,6.5719,6.5839,6.6825,5.5628,5.5568,5.5085,5.3777,5.2047,5.1665,5.1815,5.2007,5.1242,5.1745,5.2982,5.2982,5.4145,5.6182,5.7339,5.9288,6.2011,6.4114,6.5936,6.7267,6.8428,6.9209,6.9795,6.9771,7.0088,7.0741,7.0088,6.9795,6.9771,6.9209,6.8916,6.8916,6.8916,6.8624,6.8013,6.7062,6.6867,6.7306,6.8941,7.0088,7.0765,7.079,7.1489,7.2998,7.2011,7.2528,7.4549,7.3655,7.2765,7.1842,7.0187,6.7516,6.3961,6.1309,5.9449,0.0,0.0,0.0,0.0,0.0,0.0,0.0,0.0,0.0,0.0,0.0,5.5581,5.6118,5.6963,5.7952,5.905,5.9163,5.967,6.0999,6.1111,6.081,5.9903,6.0025,5.9753,5.8808,6.0413,6.1907,6.2607,6.4166,6.5806,6.7209,6.5584,6.4902,6.6426,6.6275,6.6364,6.7535,6.775,6.7879,6.8397,6.8756,6.8721,6.8041,6.8529,6.9049,6.9049,6.8895,6.8525,6.7726,6.702,6.6344,6.5597,6.4839,6.4286,6.4439,6.4998,6.5123,6.3941,6.4796,6.5908,5.4663,5.4562,5.3955,5.2274,5.0062,5.0288,5.0435,5.0543,5.0545,5.1337,5.2692,5.2541,5.308,5.436,5.6302,5.7978,5.9524,6.2315,6.3938,6.4792,6.611,6.733,6.8217,6.8242,6.8746,6.9453,6.8721,6.812,6.7828,6.7135,6.6867,6.7037,6.6061,6.5207,6.4426,6.4621,6.4987,6.55,6.7459,6.932,7.0937,7.1414,7.2062,7.2889,7.2262,7.2546,7.3609,7.2176,7.0671,6.9282,6.6057,6.272,5.9614,5.6287,0.0,0.0,0.0,0.0,0.0,0.0,0.0,0.0,0.0,4.4031,4.2843,0.0,5.0425,0.0,5.2534,5.4622,5.6034,5.6287,0.0,0.0,5.863,5.814,5.6971,5.7907,5.8097,5.6806,5.9117,6.1059,6.1631,6.3141,6.4384,6.4977,6.2799,6.2235,6.5033,6.4949,6.5393,6.6991,6.7092,6.7317,6.7942,6.7922,6.7132,6.6394,6.6857,6.7358,6.7411,6.7293,6.6865,6.5784,6.4854,6.4091,6.3194,6.2011,6.1048,5.9666,6.0843,6.2237,6.2524,6.403,6.541,5.1967,5.1996,5.2054,5.0916,4.9225,5.0111,5.0771,5.1171,5.0935,5.141,5.2237,5.1457,5.106,5.1016,5.2947,0.0,5.8198,6.0297,6.1302,6.1498,6.3596,6.5134,6.6134,6.6134,6.6183,6.6256,6.6183,6.5646,6.4719,6.4573,6.5036,6.589,6.2108,6.0107,6.0082,6.0936,6.2401,6.4437,6.6211,6.8544,7.1781,7.3361,7.5003,7.6607,7.452,7.3559,7.4107,7.1902,6.9073,6.5718,6.3002,5.936,5.4709,0.0,0.0,0.0,0.0,0.0,0.0,0.0,0.0,0.0,0.0,0.0,0.0,0.0,0.0,0.0,4.7484,0.0,5.228,5.2506,0.0,0.0,0.0,5.6005,5.5923,5.5978,5.6006,5.5925,0.0,0.0,5.8118,6.0034,6.1196,6.0211,6.0745,6.1333,6.1615,6.2635,6.3679,6.4719,6.3769,6.3284,6.4503,6.3701,6.3232,6.3634,6.3386,6.3353,6.333,6.2991,6.2608,6.2387,6.287,6.3087,6.3131,6.2736,6.1403,5.6404,5.7659,5.9718,6.0708,6.287,6.4911,5.1481,4.919,4.8659,4.7705,4.6494,4.7001,4.7329,4.7318,4.7365,4.8458,5.0088,4.9797,5.0169,5.1215,5.1946,0.0,0.0,0.0,5.6544,5.7227,5.8716,6.0375,6.1986,6.1954,6.2352,6.2913,6.2327,6.1815,6.14,6.0766,6.0415,6.0165,0.0,0.0,5.8637,5.7719,5.8605,6.1572,6.4412,6.6787,6.8877,7.1745,7.3445,7.3749,7.2796,7.1547,6.9874,6.8165,6.5577,6.1877,5.86,5.5189,0.0,0.0,0.0,0.0,0.0,0.0,0.0,0.0,0.0,0.0,0.0,3.3246,3.2959,0.0,0.0,0.0,4.3534,4.6034,4.8491,4.8669,0.0,0.0,0.0,0.0,0.0,0.0,0.0,4.925,5.313,5.615,5.6362,5.5954,5.6089,5.7133,5.6343,5.6795,5.9729,0.0,6.1118,6.2759,6.2946,6.3232,6.4156,6.3871,6.3425,6.3021,6.151,6.0268,5.9837,5.9577,5.9299,5.9013,5.9072,5.903,5.8277,5.9762,5.9957,5.7092,5.7287,5.8484,5.9737,6.1575,6.3342,4.9616,0.0,0.0,0.0,0.0,4.5068,4.5179,4.4876,4.5222,4.6309,4.7864,4.7864,0.0,0.0,0.0,0.0,0.0,0.0,5.2224,5.3274,5.4372,5.5836,5.7642,5.7666,5.8032,5.8691,5.7984,5.7645,5.7623,5.5937,5.4969,5.4624,0.0,0.0,0.0,0.0,5.6784,5.9963,6.3575,6.6414,6.823,7.1742,7.317,7.2333,7.1363,6.9385,6.6529,6.4836,6.2132,5.8008,5.4729,0.0,0.0,0.0,0.0,0.0,0.0,0.0,0.0,0.0,0.0,0.0,0.0,0.0,0.0,0.0,0.0,0.0,0.0,0.0,4.3376,4.4643,4.5896,0.0,0.0,0.0,0.0,0.0,0.0,0.0,0.0,0.0,5.3454,5.1914,5.1643,0.0,0.0,5.4087,5.7269,5.853,5.9726,6.1562,6.256,0.0,6.4374,6.3763,6.2838,6.192,5.9446,5.7628,5.7526,5.7376,5.7258,5.7278,5.7394,5.7163,5.5945,5.6979,5.7487,5.6644,5.6677,5.7316,5.8428,6.0007,6.1512,0.0,0.0,0.0,0.0,0.0,0.0,0.0,0.0,4.5582,4.5599,0.0,4.544,0.0,0.0,0.0,0.0,4.6807,4.7832,0.0,0.0,5.1161,5.2243,5.3269,5.3318,5.3318,5.3343,5.3318,5.3345,5.3226,5.0047,0.0,0.0,0.0,0.0,0.0,0.0,5.7874,6.022,6.4204,6.8032,7.1381,7.4426,7.5362,7.4057,7.0719,6.7675,6.5238,6.2635,5.905,5.4258,5.2079,0.0,0.0,0.0,0.0,0.0,0.0,0.0,0.0,0.0,0.0,0.0,0.0,0.0,0.0,0.0,0.0,0.0,0.0,0.0,0.0,4.026,0.0,0.0,0.0,0.0,0.0,0.0,0.0,0.0,0.0,0.0,4.8722,4.8089,4.8404,5.0164,0.0,0.0,0.0,0.0,6.0313,6.1157,6.2167,6.3063,6.3941,6.1516,5.9483,5.9418,0.0,0.0,5.6736,5.6578,5.6665,5.802,5.8802,5.9063,5.7423,5.5615,5.4271,5.3946,5.4962,5.5941,5.6262,5.7985,5.9537,0.0,0.0,0.0,0.0,0.0,0.0,0.0,0.0,0.0,4.0077,0.0,4.0804,0.0,0.0,0.0,0.0,0.0,0.0,0.0,0.0,4.804,4.9207,5.0992,5.1043,5.1471,0.0,5.136,4.9907,0.0,0.0,0.0,0.0,0.0,0.0,0.0,0.0,5.4327,5.8165,6.1395,6.4766,6.8238,7.1051,7.2736,7.3074,6.9491,6.5662,6.1595,5.8604,5.5675,0.0,0.0,0.0,0.0,0.0,0.0,0.0,0.0,0.0,0.0,0.0,0.0,0.0,0.0,0.0,0.0,0.0,0.0,0.0,0.0,0.0,0.0,0.0,3.8015,0.0,0.0,0.0,0.0,0.0,0.0,0.0,0.0,0.0,4.4228,4.632,4.8179,4.8657,5.068,5.1923,5.1437,0.0,0.0,0.0,0.0,0.0,0.0,0.0,5.8839,5.7914,5.7761,5.7632,5.7149,5.667,5.674,5.8093,0.0,0.0,5.5709,5.5748,5.5544,5.4483,5.3051,5.2989,5.6005,5.5673,5.5602,0.0,0.0,0.0,0.0,0.0,0.0,0.0,0.0,0.0,3.5158,3.5866,0.0,0.0,0.0,0.0,0.0,0.0,0.0,0.0,0.0,0.0,0.0,4.7564,4.762,0.0,0.0,0.0,0.0,0.0,0.0,0.0,0.0,0.0,0.0,0.0,0.0,5.2946,5.7136,5.9856,6.2957,6.652,6.8815,7.0168,7.0591,6.7798,6.413,5.9618,0.0,0.0,0.0,0.0,0.0,0.0,0.0,0.0,0.0,0.0,0.0,0.0,0.0,0.0,0.0,0.0,0.0,0.0,0.0,0.0,0.0,0.0,0.0,0.0,0.0,3.3072,0.0,0.0,0.0,0.0,0.0,0.0,0.0,0.0,0.0,0.0,0.0,4.5936,4.774,4.9186,5.0053,4.998,5.2406,5.4258,0.0,0.0,0.0,0.0,0.0,0.0,0.0,0.0,0.0,0.0,0.0,0.0,0.0,0.0,5.2669,5.2916,5.3161,5.2975,5.1957,0.0,0.0,0.0,0.0,0.0,0.0,0.0,0.0,0.0,0.0,0.0,0.0,0.0,0.0,0.0,3.1006,0.0,0.0,3.0511,0.0,0.0,0.0,0.0,0.0,0.0,0.0,0.0,0.0,0.0,0.0,0.0,0.0,0.0,0.0,0.0,0.0,0.0,0.0,0.0,0.0,0.0,5.3751,5.7359,5.9752,6.2912,6.6548,6.7996,6.8175,6.6886,6.5718,6.3261,5.9533,0.0,0.0,0.0,0.0,0.0,0.0,0.0,0.0,0.0,0.0,0.0,0.0,0.0,0.0,0.0,0.0,0.0,0.0,0.0,0.0,0.0,0.0,0.0,0.0,0.0,0.0,3.0261,3.2685,3.4403,0.0,0.0,0.0,0.0,0.0,0.0,0.0,0.0,0.0,4.6898,4.8503,4.9094,4.9148,5.2853,5.5505,5.5578,5.8051,6.0044,5.9875,5.8473,5.8057,0.0,0.0,0.0,0.0,0.0,0.0,0.0,0.0,0.0,0.0,0.0,0.0,0.0,0.0,0.0,0.0,0.0,0.0,0.0,0.0,0.0,0.0,0.0,0.0,0.0,0.0,0.0,0.0,0.0,0.0,0.0,0.0,0.0,0.0,0.0,0.0,0.0,0.0,0.0,0.0,0.0,0.0,0.0,0.0,0.0,0.0,0.0,0.0,0.0,0.0,0.0,0.0,0.0,0.0,5.1739,5.3719,5.6992,6.0008,6.2889,6.5125,6.6057,6.5569,6.351,6.1326,0.0,0.0,0.0,0.0,0.0,0.0,0.0,0.0,0.0,0.0,0.0,0.0,0.0,0.0,0.0,0.0,0.0,0.0,0.0,0.0,0.0,0.0,0.0,0.0,0.0,0.0,0.0,0.0,2.9701,3.0122,2.9954,0.0,0.0,0.0,0.0,0.0,0.0,0.0,0.0,0.0,0.0,4.7135,4.7157,5.0475,5.2926,5.2926,5.4546,5.5783,5.5751,5.6085,5.6608,5.7266,0.0,0.0,0.0,0.0,0.0,0.0,0.0,0.0,0.0,0.0,0.0,0.0,0.0,0.0,0.0,0.0,0.0,0.0,0.0,0.0,0.0,0.0,0.0,0.0,0.0,0.0,0.0,0.0,0.0,0.0,0.0,0.0,0.0,0.0,0.0,0.0,0.0,0.0,0.0,0.0,0.0,0.0,0.0,0.0,0.0,0.0,0.0,0.0,0.0,0.0,0.0,0.0,0.0,5.0041,5.2134,5.4709,5.7528,6.0434,6.1619,6.2621,6.3352,6.0935,5.8797,0.0,0.0,0.0,0.0,0.0,0.0,0.0,0.0,0.0,0.0,0.0,0.0,0.0,0.0,0.0,0.0,0.0,0.0,0.0,0.0,0.0,0.0,0.0,0.0,0.0,0.0,0.0,0.0,2.8168,2.8413,2.7555,0.0,0.0,0.0,0.0,0.0,0.0,0.0,0.0,0.0,0.0,4.508,4.6697,4.9619,0.0,0.0,5.3145,5.4058,5.363,5.4303,5.4804,5.4593,5.4655,0.0,0.0,0.0,0.0,0.0,0.0,0.0,0.0,0.0,0.0,0.0,0.0,0.0,0.0,0.0,0.0,0.0,0.0,0.0,0.0,0.0,0.0,0.0,0.0,0.0,0.0,0.0,0.0,0.0,0.0,0.0,0.0,0.0,0.0,0.0,0.0,0.0,0.0,0.0,0.0,0.0,0.0,0.0,0.0,0.0,0.0,0.0,0.0,0.0,0.0,0.0,0.0,4.88,5.1919,5.3236,5.5747,5.9227,5.8292,5.8632,6.0511,5.8262,5.6167,0.0,0.0,0.0,0.0,0.0,0.0,0.0,0.0,0.0,0.0,0.0,0.0,0.0,0.0,0.0,0.0,0.0,0.0,0.0,0.0,0.0,0.0,0.0,0.0,0.0,0.0,0.0,0.0,0.0,0.0,0.0,0.0,0.0,0.0,0.0,0.0,0.0,0.0,0.0,0.0,0.0,4.3118,4.7151,5.0012,5.1719,0.0,5.3395,5.4314,5.3056,5.2751,5.2563,5.2132,0.0,0.0,0.0,0.0,0.0,0.0,0.0,0.0,0.0,0.0,0.0,0.0,0.0,0.0,0.0,0.0,0.0,0.0,0.0,0.0,0.0,0.0,0.0,0.0,0.0,0.0,0.0,0.0,0.0,0.0,0.0,0.0,0.0,0.0,0.0,0.0,0.0,0.0,0.0,0.0,0.0,0.0,0.0,0.0,0.0,0.0,0.0,0.0,0.0,0.0,0.0,0.0,0.0,0.0,5.0936,5.3416,5.5978,5.8355,5.9031,5.9609,6.0172,5.8708,0.0,0.0,0.0,0.0,0.0,0.0,0.0,0.0,0.0,0.0,0.0,0.0,0.0,0.0,0.0,0.0,0.0,0.0,0.0,0.0,0.0,0.0,0.0,0.0,0.0,0.0,0.0,2.4561,0.0,0.0,0.0,0.0,0.0,0.0,0.0,0.0,0.0,0.0,0.0,0.0,0.0,0.0,4.2482,4.4127,4.9888,5.2827,0.0,0.0,5.3304,5.1085,4.985,4.9181,0.0,0.0,0.0,0.0,0.0,0.0,0.0,0.0,0.0,0.0,0.0,0.0,0.0,0.0,0.0,0.0,0.0,0.0,0.0,0.0,0.0,0.0,0.0,0.0,0.0,0.0,0.0,0.0,0.0,0.0,0.0,0.0,0.0,0.0,0.0,0.0,0.0,0.0,0.0,0.0,0.0,0.0,0.0,0.0,0.0,0.0,0.0,0.0,0.0,0.0,0.0,0.0,0.0,0.0,4.7749,5.0512,5.3269,5.5552,5.7218,5.7374,5.791,5.886,5.7642,5.5544,0.0,0.0,0.0,0.0,0.0,0.0,0.0,0.0,0.0,0.0,0.0,0.0,0.0,0.0,0.0,0.0,0.0,0.0,0.0,0.0,0.0,0.0,0.0,0.0,0.0,0.0,0.0,0.0,0.0,0.0,0.0,0.0,0.0,0.0,0.0,0.0,0.0,0.0,0.0,0.0,0.0,0.0,4.4023,4.9308,0.0,0.0,0.0,5.2732,5.0209,0.0,0.0,0.0,0.0,0.0,0.0,0.0,0.0,0.0,0.0,0.0,0.0,0.0,0.0,0.0,0.0,0.0,0.0,0.0,0.0,0.0,0.0,0.0,0.0,0.0,0.0,0.0,0.0,0.0,0.0,0.0,0.0,0.0,0.0,0.0,0.0,0.0,0.0,0.0,0.0,0.0,0.0,0.0,0.0,0.0,0.0,0.0,0.0,0.0,0.0,0.0,0.0,0.0,0.0,0.0,0.0,0.0,5.0497,5.2941,5.4817,5.6079,5.5002,5.5259,5.7439,5.6268,5.3894,0.0,0.0,0.0,0.0,0.0,0.0,0.0,0.0,0.0,0.0,0.0,0.0,0.0,0.0,0.0,0.0,0.0,0.0,0.0,0.0,0.0,0.0,0.0,0.0,0.0,0.0,0.0,0.0,0.0,0.0,0.0,0.0,0.0,0.0,0.0,0.0,0.0,0.0,0.0,0.0,0.0,4.2123,4.4752,4.8321,5.011,0.0,0.0,5.1518,4.8994,4.6995,0.0,0.0,0.0,0.0,0.0,0.0,0.0,0.0,0.0,0.0,0.0,0.0,0.0,0.0,0.0,0.0,0.0,0.0,0.0,0.0,0.0,0.0,0.0,0.0,0.0,0.0,0.0,0.0,0.0,0.0,0.0,0.0,0.0,0.0,0.0,0.0,0.0,0.0,0.0,0.0,0.0,0.0,0.0,0.0,0.0,0.0,0.0,0.0,0.0,0.0,0.0,0.0,0.0,0.0,0.0,0.0,5.0478,5.2573,5.4563,5.6338,5.5211,5.5789,5.8279,5.701,5.4095,0.0,0.0,0.0,0.0,0.0,0.0,0.0,0.0,0.0,0.0,0.0,0.0,0.0,0.0,0.0,0.0,0.0,0.0,0.0,0.0,0.0,0.0,0.0,0.0,0.0,0.0,0.0,0.0,0.0,0.0,0.0,0.0,0.0,0.0,0.0,0.0,0.0,0.0,0.0,0.0,0.0,4.0197,4.1485,4.6333,0.0,0.0,0.0,0.0,4.2386,4.0214,0.0,0.0,0.0,0.0,0.0,0.0,0.0,0.0,0.0,0.0,0.0,0.0,0.0,0.0,0.0,0.0,0.0,0.0,0.0,0.0,0.0,0.0,0.0,0.0,0.0,0.0,0.0,0.0,0.0,0.0,0.0,0.0,0.0,0.0,0.0,0.0,0.0,0.0,0.0,0.0,0.0,0.0,0.0,0.0,0.0,0.0,0.0,0.0,0.0,0.0,0.0,0.0,0.0,0.0,0.0,0.0,5.1345,5.2584,5.4219,5.644,5.4703,5.4949,5.7529,5.6317,5.3455,0.0,0.0,0.0,0.0,0.0,0.0,0.0,0.0,0.0,0.0,0.0,0.0,0.0,0.0,0.0,0.0,0.0,0.0,0.0,0.0,0.0,0.0,0.0,0.0,0.0,0.0,0.0,0.0,0.0,0.0,0.0,0.0,0.0,0.0,0.0,0.0,0.0,0.0,0.0,0.0,3.6083,3.7997,3.9867,0.0,0.0,0.0,0.0,0.0,0.0,3.7581,3.5794,0.0,0.0,0.0,0.0,0.0,0.0,0.0,0.0,0.0,0.0,0.0,0.0,0.0,0.0,0.0,0.0,0.0,0.0,0.0,0.0,0.0,0.0,0.0,0.0,0.0,0.0,0.0,0.0,0.0,0.0,0.0,0.0,0.0,0.0,0.0,0.0,0.0,0.0,0.0,0.0,0.0,0.0,0.0,0.0,0.0,0.0,0.0,0.0,0.0,0.0,0.0,0.0,0.0,0.0,0.0,5.1939,5.2,5.329,5.5795,5.3524,5.3432,5.5795,5.4887,5.2318,4.8045,0.0,0.0,0.0,0.0,0.0,0.0,0.0,0.0,0.0,0.0,0.0,0.0,0.0,0.0,0.0,0.0,0.0,0.0,0.0,0.0,0.0,0.0,0.0,0.0,0.0,0.0,0.0,0.0,0.0,0.0,0.0,0.0,0.0,0.0,0.0,0.0,0.0,0.0,0.0,3.3259,3.5546,0.0,0.0,0.0,0.0,0.0,0.0,0.0,0.0,3.4208,0.0,0.0,0.0,0.0,0.0,0.0,0.0,0.0,0.0,0.0,0.0,0.0,0.0,0.0,0.0,0.0,0.0,0.0,0.0,0.0,0.0,0.0,0.0,0.0,0.0,0.0,0.0,0.0,0.0,0.0,0.0,0.0,0.0,0.0,0.0,0.0,0.0,0.0,0.0,0.0,0.0,0.0,0.0,0.0,0.0,0.0,0.0,0.0,0.0,0.0,0.0,0.0,0.0,0.0,0.0,0.0,4.9213,5.0526,5.3106,5.1693,5.1662,5.3187,5.3106,5.0566,4.534,0.0,0.0,0.0,0.0,0.0,0.0,0.0,0.0,0.0,0.0,0.0,0.0,0.0,0.0,0.0,0.0,0.0,0.0,0.0,0.0,0.0,0.0,0.0,0.0,0.0,0.0,0.0,0.0,0.0,0.0,0.0,0.0,0.0,0.0,0.0,0.0,0.0,0.0,2.7642,3.0122,0.0,0.0,0.0,0.0,0.0,0.0,0.0,0.0,3.1624,0.0,0.0,0.0,0.0,0.0,0.0,0.0,0.0,0.0,0.0,0.0,0.0,0.0,0.0,0.0,0.0,0.0,0.0,0.0,0.0,0.0,0.0,0.0,0.0,0.0,0.0,0.0,0.0,0.0,0.0,0.0,0.0,0.0,0.0,0.0,0.0,0.0,0.0,0.0,0.0,0.0,0.0,0.0,0.0,0.0,0.0,0.0,0.0,0.0,0.0,0.0,0.0,0.0,0.0,0.0,0.0,0.0,0.0,4.9482,5.3475,5.0956,5.0566,5.2492,5.0557,4.7854,0.0,0.0,0.0,0.0,0.0,0.0,0.0,0.0,0.0,0.0,0.0,0.0,0.0,0.0,0.0,0.0,0.0,0.0,0.0,0.0,0.0,0.0,0.0,0.0,0.0,0.0,0.0,0.0,0.0,0.0,0.0,0.0,0.0,0.0,0.0,0.0,0.0,0.0,0.0,0.0,0.0,0.0,0.0,0.0,0.0,0.0,0.0,0.0,0.0,0.0,0.0,0.0,0.0,0.0,0.0,0.0,0.0,0.0,0.0,0.0,0.0,0.0,0.0,0.0,0.0,0.0,0.0,0.0,0.0,0.0,0.0,0.0,0.0,0.0,0.0,0.0,0.0,0.0,0.0,0.0,0.0,0.0,0.0,0.0,0.0,0.0,0.0,0.0,0.0,0.0,0.0,0.0,0.0,0.0,0.0,0.0,0.0,0.0,0.0,0.0,0.0,0.0,0.0,0.0,0.0,0.0,0.0,0.0,4.8215,5.3517,5.0381,4.9767,5.2154,4.8222,4.5274,0.0,0.0,0.0,0.0,0.0,0.0,0.0,0.0,0.0,0.0,0.0,0.0,0.0,0.0,0.0,0.0,0.0,0.0,0.0,0.0,0.0,0.0,0.0,0.0,0.0,0.0,0.0,0.0,0.0,0.0,0.0,0.0,0.0,0.0,0.0,0.0,0.0,0.0,0.0,0.0,0.0,0.0,0.0,0.0,0.0,0.0,0.0,0.0,3.0075,0.0,0.0,0.0,0.0,0.0,0.0,0.0,0.0,0.0,0.0,0.0,0.0,0.0,0.0,0.0,0.0,0.0,0.0,0.0,0.0,0.0,0.0,0.0,0.0,0.0,0.0,0.0,0.0,0.0,0.0,0.0,0.0,0.0,0.0,0.0,0.0,0.0,0.0,0.0,0.0,0.0,0.0,0.0,0.0,0.0,0.0,0.0,0.0,0.0,0.0,0.0,0.0,0.0,0.0,0.0,0.0,0.0,0.0,0.0,4.5416,5.0833,4.9429,4.9306,5.0557,4.6809,4.3527,0.0,0.0,0.0,0.0,0.0,0.0,0.0,0.0,0.0,0.0,0.0,0.0,0.0,0.0,0.0,0.0,0.0,0.0,0.0,0.0,0.0,0.0,0.0,0.0,0.0,0.0,0.0,0.0,0.0,0.0,0.0,0.0,0.0,0.0,0.0,0.0,0.0,0.0,0.0,0.0,0.0,0.0,0.0,0.0,0.0,0.0,0.0,0.0,0.0,0.0,0.0,0.0,0.0,0.0,0.0,0.0,0.0,0.0,0.0,0.0,0.0,0.0,0.0,0.0,0.0,0.0,0.0,0.0,0.0,0.0,0.0,0.0,0.0,0.0,0.0,0.0,0.0,0.0,0.0,0.0,0.0,0.0,0.0,0.0,0.0,0.0,0.0,0.0,0.0,0.0,0.0,0.0,0.0,0.0,0.0,0.0,0.0,0.0,0.0,0.0,0.0,0.0,0.0,0.0,0.0,0.0,0.0,0.0,4.4655,4.9306,4.8845,4.8845,4.9359,4.5427,4.2386,0.0,0.0,0.0,0.0,0.0,0.0,0.0,0.0,0.0,0.0,0.0,0.0,0.0,0.0,0.0,0.0,0.0,0.0,0.0,0.0,0.0,0.0,0.0,0.0,0.0,0.0,0.0,0.0,0.0,0.0,0.0,0.0,0.0,0.0,0.0,0.0,0.0,0.0,0.0,0.0,0.0,0.0,0.0,0.0,0.0,0.0,0.0,0.0,0.0,0.0,0.0,0.0,0.0,0.0,0.0,0.0,0.0,0.0,0.0,0.0,0.0,0.0,0.0,0.0,0.0,0.0,0.0,0.0,0.0,0.0,0.0,0.0,0.0,0.0,0.0,0.0,0.0,0.0,0.0,0.0,0.0,0.0,0.0,0.0,0.0,0.0,0.0,0.0,0.0,0.0,0.0,0.0,0.0,0.0,0.0,0.0,0.0,0.0,0.0,0.0,0.0,0.0,0.0,0.0,0.0,0.0,0.0,0.0,0.0,4.6846,4.7376,4.7338,4.6908,4.3339,4.0603,0.0,0.0,0.0,0.0,0.0,0.0,0.0,0.0,0.0,0.0,0.0,0.0,0.0,0.0,0.0,0.0,0.0,0.0,0.0,0.0,0.0,0.0,0.0,0.0,0.0,0.0,0.0,0.0,0.0,0.0,0.0,0.0,0.0,0.0,0.0,0.0,0.0,0.0,0.0,0.0,0.0,0.0,0.0,0.0,0.0,0.0,0.0,0.0,0.0,0.0,0.0,0.0,0.0,0.0,0.0,0.0,0.0,0.0,0.0,0.0,0.0,0.0,0.0,0.0,0.0,0.0,0.0,0.0,0.0,0.0,0.0,0.0,0.0,0.0,0.0,0.0,0.0,0.0,0.0,0.0,0.0,0.0,0.0,0.0,0.0,0.0,0.0,0.0,0.0,0.0,0.0,0.0,0.0,0.0,0.0,0.0,0.0,0.0,0.0,0.0,0.0,0.0,0.0,0.0,0.0,0.0,0.0,0.0,0.0,4.2878,4.4111,4.4107,4.2783,4.0112,3.7442,0.0,0.0,0.0,0.0,0.0,0.0,0.0,0.0,0.0,0.0,0.0,0.0,0.0,0.0,0.0,0.0,0.0,0.0,0.0,0.0,0.0,0.0,0.0,0.0,0.0,0.0,0.0,0.0,0.0,0.0,0.0,0.0,0.0,0.0,0.0,0.0,0.0,0.0,0.0,0.0,0.0,0.0,0.0,0.0,0.0,0.0,0.0,0.0,0.0,0.0,0.0,0.0,0.0,0.0,0.0,0.0,0.0,0.0,0.0,0.0,0.0,0.0,0.0,0.0,0.0,0.0,0.0,0.0,0.0,0.0,0.0,0.0,0.0,0.0,0.0,0.0,0.0,0.0,0.0,0.0,0.0,0.0,0.0,0.0,0.0,0.0,0.0,0.0,0.0,0.0,0.0,0.0,0.0,0.0,0.0,0.0,0.0,0.0,0.0,0.0,0.0,0.0,0.0,0.0,0.0,0.0,0.0,0.0,0.0,3.7656,4.039,4.1713,4.1156,3.7749,3.5417,3.4343,0.0,0.0,0.0,0.0,0.0,0.0,0.0,0.0,0.0,0.0,0.0,0.0,0.0,0.0,0.0,0.0,0.0,0.0,0.0,0.0,0.0,0.0,0.0,0.0,0.0,0.0,0.0,0.0,0.0,0.0,0.0,0.0,0.0,0.0,0.0,0.0,0.0,0.0,0.0,0.0,0.0,0.0,0.0,0.0,0.0,0.0,0.0,0.0,0.0,0.0,0.0,0.0,0.0,0.0,0.0,0.0,0.0,0.0,0.0,0.0,0.0,0.0,0.0,0.0,0.0,0.0,0.0,0.0,0.0,0.0,0.0,0.0,0.0,0.0,0.0,0.0,0.0,0.0,0.0,0.0,0.0,0.0,0.0,0.0,0.0,0.0,0.0,0.0,0.0,0.0,0.0,0.0,0.0,0.0,0.0,0.0,0.0,0.0,0.0,0.0,0.0,0.0,0.0,0.0,0.0,0.0,0.0,0.0,3.4496,3.7933,3.9438,3.8516,3.5417,3.3146,0.0,0.0,0.0,0.0,0.0,0.0,0.0,0.0,0.0,0.0,0.0,0.0,0.0,0.0,0.0,0.0,0.0,0.0,0.0,0.0,0.0,0.0,0.0,0.0,0.0,0.0,0.0,0.0,0.0,0.0,0.0,0.0,0.0,0.0,0.0,0.0,0.0,0.0,0.0,0.0,0.0,0.0,0.0,0.0,0.0,0.0,0.0,0.0,0.0,0.0,0.0,0.0,0.0,0.0,0.0,0.0,0.0,0.0,0.0,0.0,0.0,0.0,0.0,0.0,0.0,0.0,0.0,0.0,0.0,0.0,0.0,0.0,0.0,0.0,0.0,0.0,0.0,0.0,0.0,0.0,0.0,0.0,0.0,0.0,0.0,0.0,0.0,0.0,0.0,0.0,0.0,0.0,0.0,0.0,0.0,0.0,0.0,0.0,0.0,0.0,0.0,0.0,0.0,0.0,0.0,0.0,0.0,0.0,2.8879,3.4131,3.6921,3.7074,3.4588,3.3084,3.0469,0.0,0.0,0.0,0.0,0.0,0.0,0.0,0.0,0.0,0.0,0.0,0.0,0.0,0.0,0.0,0.0,0.0,0.0,0.0,0.0,0.0,0.0,0.0,0.0,0.0,0.0,0.0,0.0,0.0,0.0,0.0,0.0,0.0,0.0,0.0,0.0,0.0,0.0,0.0,0.0,0.0,0.0,0.0,0.0,0.0,0.0,0.0,0.0,0.0,0.0,0.0,0.0,0.0,0.0,0.0,0.0,0.0,0.0,0.0,0.0,0.0,0.0,0.0,0.0,0.0,0.0,0.0,0.0,0.0,0.0,0.0,0.0,0.0,0.0,0.0,0.0,0.0,0.0,0.0,0.0,0.0,0.0,0.0,0.0,0.0,0.0,0.0,0.0,0.0,0.0,0.0,0.0,0.0,0.0,0.0,0.0,0.0,0.0,0.0,0.0,0.0,0.0,0.0,0.0,0.0,0.0,0.0,0.0,0.0,2.8749,0.0,3.3311,0.0,3.1254,2.9425,0.0,0.0,0.0,0.0,0.0,0.0,0.0,0.0,0.0,0.0,0.0,0.0,0.0,0.0,0.0,0.0,0.0,0.0,0.0,0.0,0.0,0.0,0.0,0.0,0.0,0.0,0.0,0.0,0.0,0.0,0.0,0.0,0.0,0.0,0.0,0.0,0.0,0.0,0.0,0.0,0.0,0.0,0.0,0.0,0.0,0.0,0.0,0.0,0.0,0.0,0.0,0.0,0.0,0.0,0.0,0.0,0.0,0.0,0.0,0.0,0.0,0.0,0.0,0.0,0.0,0.0,0.0,0.0,0.0,0.0,0.0,0.0,0.0,0.0,0.0,0.0,0.0,0.0,0.0,0.0,0.0,0.0,0.0,0.0,0.0,0.0,0.0,0.0,0.0,0.0,0.0,0.0,0.0,0.0,0.0,0.0,0.0,0.0,0.0,0.0,0.0,0.0,0.0,0.0,0.0,0.0,0.0,0.0,0.0,2.7417,2.8695,3.0507,3.2581,2.993,2.8503,0.0,0.0,0.0,0.0,0.0,0.0,0.0,0.0,0.0,0.0,0.0,0.0,0.0,0.0,0.0,0.0,0.0,0.0,0.0,0.0,0.0,0.0,0.0,0.0,0.0,0.0,0.0,0.0,0.0,0.0,0.0,0.0,0.0,0.0,0.0,0.0,0.0,0.0,0.0,0.0,0.0,0.0,0.0,0.0,0.0,0.0,0.0,0.0,0.0,0.0,0.0,0.0,0.0,0.0,0.0,0.0,0.0,0.0,0.0,0.0,0.0,0.0,0.0,0.0,0.0,0.0,0.0,0.0,0.0,0.0,0.0,0.0,0.0,0.0,0.0,0.0,0.0,0.0,0.0,0.0,0.0,0.0,0.0,0.0,0.0,0.0,0.0,0.0,0.0,0.0,0.0,0.0,0.0,0.0,0.0,0.0,0.0,0.0,0.0,0.0,0.0,0.0,0.0,0.0,0.0,0.0,0.0,0.0,0.0,0.0,2.8588,2.8757,3.007,2.8933,2.7643,0.0,0.0,0.0,0.0,0.0,0.0,0.0,0.0,0.0,0.0,0.0,0.0,0.0,0.0,0.0,0.0,0.0,0.0,0.0,0.0,0.0,0.0,0.0,0.0,0.0,0.0,0.0,0.0,0.0,0.0,0.0,0.0,0.0,0.0,0.0,0.0,0.0,0.0,0.0,0.0,0.0,0.0,0.0,0.0,0.0,0.0,0.0,0.0,0.0,0.0,0.0,0.0,0.0,0.0,0.0,0.0,0.0,0.0,0.0,0.0,0.0,0.0,0.0,0.0,0.0,0.0,0.0,0.0,0.0,0.0,0.0,0.0,0.0,0.0,0.0,0.0,0.0,0.0,0.0,0.0,0.0,0.0,0.0,0.0,0.0,0.0,0.0,0.0,0.0,0.0,0.0,0.0,0.0,0.0,0.0,0.0,0.0,0.0,0.0,0.0,0.0,0.0,0.0,0.0,0.0,0.0,0.0,0.0,0.0,0.0,2.6032,0.0,2.717,2.6986,2.666,2.623,0.0,0.0,0.0,0.0,0.0,0.0,0.0,0.0,0.0,0.0,0.0,0.0,0.0,0.0,0.0,0.0,0.0,0.0,0.0,0.0,0.0,0.0,0.0,0.0,0.0,0.0,0.0,0.0,0.0,0.0,0.0,0.0,0.0,0.0,0.0,0.0,0.0,0.0,0.0,0.0,0.0,0.0,0.0,0.0,0.0,0.0,0.0,0.0,0.0,0.0,0.0,0.0,0.0,0.0,0.0,0.0,0.0,0.0,0.0,0.0,0.0,0.0,0.0,0.0,0.0,0.0,0.0,0.0,0.0,0.0,0.0,0.0,0.0,0.0,0.0,0.0,0.0,0.0,0.0,0.0,0.0,0.0,0.0,0.0,0.0,0.0,0.0,0.0,0.0,0.0,0.0,0.0,0.0,0.0,0.0,0.0,0.0,0.0,0.0,0.0,0.0,0.0,0.0,0.0,0.0,0.0,0.0,0.0,0.0,0.0,2.5241,2.604,2.6115,2.6147,0.0,0.0,0.0,0.0,0.0,0.0,0.0,0.0,0.0,0.0,0.0,0.0,0.0,0.0,0.0,0.0,0.0,0.0,0.0,0.0,0.0,0.0,0.0,0.0,0.0,0.0,0.0,0.0,0.0,0.0,0.0,0.0,0.0,0.0,0.0,0.0,0.0,0.0,0.0,0.0,0.0,0.0,0.0,0.0,0.0,0.0,0.0,0.0,0.0,0.0,0.0,0.0,0.0,0.0,0.0,0.0,0.0,0.0,0.0,0.0,0.0,0.0,0.0,0.0,0.0,0.0,0.0,0.0,0.0,0.0,0.0,0.0,0.0,0.0,0.0,0.0,0.0,0.0,0.0,0.0,0.0,0.0,0.0,0.0,0.0,0.0,0.0,0.0,0.0,0.0,0.0,0.0,0.0,0.0,0.0,0.0,0.0,0.0,0.0,0.0,0.0,0.0,0.0,0.0,0.0,0.0,0.0,0.0,0.0,0.0,0.0,2.4498,2.5775,2.6079,0.0,2.5888,0.0,0.0,0.0,0.0,0.0,0.0,0.0,0.0,0.0,0.0,0.0,0.0,0.0,0.0,0.0,0.0,0.0,0.0,0.0,0.0,0.0,0.0,0.0,0.0,0.0,0.0,0.0,0.0,0.0,0.0,0.0,0.0,0.0,0.0,0.0,0.0,0.0,0.0,0.0,0.0,0.0,0.0,0.0,0.0,0.0,0.0,0.0,0.0,0.0,0.0,0.0,0.0,0.0,0.0,0.0,0.0,0.0,0.0,0.0,0.0,0.0,0.0,0.0,0.0,0.0,0.0,0.0,0.0,0.0,0.0,0.0,0.0,0.0,0.0,0.0,0.0,0.0,0.0,0.0,0.0,0.0,0.0,0.0,0.0,0.0,0.0,0.0,0.0,0.0,0.0,0.0,0.0,0.0,0.0,0.0,0.0,0.0,0.0,0.0,0.0,0.0,0.0,0.0,0.0,0.0,0.0,0.0,0.0,0.0,0.0,0.0,0.0,2.6279,2.6473,2.4529,0.0,0.0,0.0,0.0,0.0,0.0,0.0,0.0,0.0,0.0,0.0,0.0,0.0,0.0,0.0,0.0,0.0,0.0,0.0,0.0,0.0,0.0,0.0,0.0,0.0,0.0,0.0,0.0,0.0,0.0,0.0,0.0,0.0,0.0,0.0,0.0,0.0,0.0,0.0,0.0,0.0,0.0,0.0,0.0,0.0,0.0,0.0,0.0,0.0,0.0,0.0,0.0,0.0,0.0,0.0,0.0,0.0,0.0,0.0,0.0,0.0,0.0,0.0,0.0,0.0,0.0,0.0,0.0,0.0,0.0,0.0,0.0,0.0,0.0,0.0,0.0,0.0,0.0,0.0,0.0,0.0,0.0,0.0,0.0,0.0,0.0,0.0,0.0,0.0,0.0,0.0,0.0,0.0,0.0,0.0,0.0,0.0,0.0,0.0,0.0,0.0,0.0,0.0,0.0,0.0,0.0,0.0,0.0,0.0,0.0,2.5053,2.3825,2.5726,2.5868,2.3935,0.0,0.0,0.0,0.0,0.0,0.0,0.0,0.0,0.0,0.0,0.0,0.0,0.0,0.0,0.0,0.0,0.0,0.0,0.0,0.0,0.0,0.0,0.0,0.0,0.0,0.0,0.0,0.0,0.0,0.0,0.0,0.0,0.0,0.0,0.0,0.0,0.0,0.0,0.0,0.0,0.0,0.0,0.0,0.0,0.0,0.0,0.0,0.0,0.0,0.0,0.0,0.0,0.0,0.0,0.0,0.0,0.0,0.0,0.0,0.0,0.0,0.0,0.0,0.0,0.0,0.0,0.0,0.0,0.0,0.0,0.0,0.0,0.0,0.0,0.0,0.0,0.0,0.0,0.0,0.0,0.0,0.0,0.0,0.0,0.0,0.0,0.0,0.0,0.0,0.0,0.0,0.0,0.0,0.0,0.0,0.0,0.0,0.0,0.0,0.0,0.0,0.0,0.0,0.0,0.0,0.0,0.0,0.0,0.0,0.0,0.0,0.0,0.0,0.0,2.4044,0.0,0.0,0.0,0.0,0.0,0.0,0.0,0.0,0.0,0.0,0.0,0.0,0.0,0.0,0.0,0.0,0.0,0.0,0.0,0.0,0.0,0.0,0.0,0.0,0.0,0.0,0.0,0.0,0.0,0.0,0.0,0.0,0.0,0.0,0.0,0.0,0.0,0.0,0.0,0.0,0.0,0.0,0.0,0.0,0.0,0.0,0.0,0.0,0.0,0.0,0.0,0.0,0.0,0.0,0.0,0.0,0.0,0.0,0.0,0.0,0.0,0.0,0.0,0.0,0.0,0.0,0.0,0.0,0.0,0.0,0.0,0.0,0.0,0.0,0.0,0.0,0.0,0.0,0.0,0.0,0.0,0.0,0.0,0.0,0.0,0.0,0.0,0.0,0.0,0.0,0.0,0.0,0.0,0.0,0.0,0.0,0.0,0.0,0.0,0.0,0.0,0.0,0.0,0.0,0.0,0.0,0.0,0.0,0.0,0.0,0.0,0.0,0.0,0.0,0.0,0.0,0.0,0.0,0.0,0.0,0.0,0.0,0.0,0.0,0.0,0.0,0.0,0.0,0.0,0.0,0.0,0.0,0.0,0.0,0.0,0.0,0.0,0.0,0.0,0.0,0.0,0.0,0.0,0.0,0.0,0.0,0.0,0.0,0.0,0.0,0.0,0.0,0.0,0.0,0.0,0.0,0.0,0.0,0.0,0.0,0.0,0.0,0.0,0.0,0.0,0.0,0.0,0.0,0.0,0.0,0.0,0.0,0.0,0.0,0.0,0.0,0.0,0.0,0.0,0.0,0.0,0.0,0.0,0.0,0.0,0.0,0.0,0.0,0.0,0.0,0.0,0.0,0.0,0.0,0.0,0.0,0.0,0.0,0.0,0.0,0.0,0.0,0.0,0.0,0.0,0.0,0.0,0.0,0.0,0.0,0.0,0.0,0.0,0.0,0.0,0.0,0.0,0.0,0.0,0.0,0.0,0.0,0.0,0.0,0.0,0.0,0.0,0.0,0.0,0.0,0.0,0.0,0.0,0.0,0.0,0.0,0.0,0.0,0.0,0.0,0.0,0.0,0.0,0.0,0.0,0.0,0.0,0.0,0.0,0.0,0.0,0.0,0.0,0.0,0.0,0.0,0.0,0.0,0.0,0.0,0.0,0.0,0.0,0.0,0.0,0.0,0.0,0.0,0.0,0.0,0.0,0.0,0.0,0.0,0.0,0.0,0.0,0.0,0.0,0.0,0.0,0.0,0.0,0.0,0.0,0.0,0.0,0.0,0.0,0.0,0.0,0.0,0.0,0.0,0.0,0.0,0.0,0.0,0.0,0.0,0.0,0.0,0.0,0.0,0.0,0.0,0.0,0.0,0.0,0.0,0.0,0.0,0.0,0.0,0.0,0.0,0.0,0.0,0.0,0.0,0.0,0.0,0.0,0.0,0.0,0.0,0.0,0.0,0.0,0.0,0.0,0.0,0.0,0.0,0.0,0.0,0.0,0.0,0.0,0.0,0.0,0.0,0.0,0.0,0.0,0.0,0.0,0.0,0.0,0.0,0.0,0.0,0.0,0.0,0.0,0.0,0.0,0.0,0.0,0.0,0.0,0.0,0.0,0.0,0.0,0.0,0.0,0.0,0.0,0.0,0.0,0.0,0.0,0.0,0.0,0.0,0.0,0.0,0.0,0.0,0.0,0.0,0.0,0.0,0.0,0.0,0.0,0.0,0.0,0.0,0.0,0.0,0.0,0.0,0.0,0.0,0.0,0.0,0.0,0.0,0.0,0.0,0.0,0.0,0.0,0.0,0.0,0.0,0.0,0.0,0.0,0.0,0.0,0.0,0.0,0.0,0.0,0.0,0.0,0.0,0.0,0.0,0.0,0.0,0.0,0.0,0.0,0.0,0.0,0.0,0.0,0.0,0.0,0.0,0.0,0.0,0.0,0.0,0.0,0.0,0.0,0.0,0.0,0.0,0.0,0.0,0.0,0.0,0.0,0.0,0.0,0.0,0.0,0.0,0.0,0.0,0.0,0.0,0.0,0.0,0.0,0.0,0.0,0.0,0.0,0.0,0.0,0.0,0.0,0.0,0.0,0.0,0.0,0.0,0.0,0.0,0.0,0.0,0.0,0.0,0.0,0.0,0.0,0.0,0.0,0.0,0.0,0.0,0.0,0.0,0.0,0.0,0.0,0.0,0.0,0.0,0.0,0.0,0.0,0.0,0.0,0.0,0.0,0.0,0.0,0.0,0.0,0.0,0.0,0.0,0.0,0.0,0.0,0.0,0.0,0.0,0.0,0.0,0.0,0.0,0.0,0.0,0.0,0.0,0.0,0.0,0.0,0.0,0.0,0.0,0.0,0.0,0.0,0.0,0.0,0.0,0.0,0.0,0.0,0.0,0.0,0.0,0.0,0.0,0.0,0.0,0.0,0.0,0.0,0.0,0.0,0.0,0.0,0.0,0.0,0.0,0.0,0.0,0.0,0.0,0.0,0.0,0.0,0.0,0.0,0.0,0.0,0.0,0.0,0.0,0.0,0.0,0.0,0.0,0.0,0.0,0.0,0.0,0.0,0.0,0.0,0.0,0.0,0.0,0.0,0.0,0.0,0.0,0.0,0.0,0.0,0.0,0.0,0.0,0.0,0.0,0.0,0.0,0.0,0.0,0.0,0.0,0.0,0.0,0.0,0.0,0.0,0.0,0.0,0.0,0.0,0.0,0.0,0.0,0.0,0.0,0.0,0.0,0.0,0.0,0.0,0.0,0.0,0.0,0.0,0.0,0.0,0.0,0.0,0.0,0.0,0.0,0.0,0.0,0.0,0.0,0.0,0.0,0.0,0.0,0.0,0.0,0.0,0.0,0.0,0.0,0.0,0.0,0.0,0.0,0.0,0.0,0.0,0.0,0.0,0.0,0.0,0.0,0.0,0.0,0.0,0.0,0.0,0.0,0.0,0.0,0.0,0.0,0.0,0.0,0.0,0.0,0.0,0.0,0.0,0.0,0.0,0.0,0.0,0.0,0.0,0.0,0.0,0.0,0.0,0.0,0.0,0.0,0.0,0.0,0.0,0.0,0.0,0.0,0.0,0.0,0.0,0.0,0.0,0.0,0.0,0.0,0.0,0.0,0.0,0.0,0.0,0.0,0.0,0.0,0.0,0.0,0.0,0.0,0.0,0.0,0.0,0.0,0.0,0.0,0.0,0.0,0.0,0.0,0.0,0.0,0.0,0.0,0.0,0.0,0.0,0.0,0.0,0.0,0.0,0.0,0.0,0.0,0.0,0.0,0.0,0.0,0.0,0.0,0.0,0.0,0.0,0.0,0.0,0.0,0.0,0.0,0.0,0.0,0.0,0.0,0.0,0.0,0.0,0.0,0.0,0.0,0.0,0.0,0.0,0.0,0.0,0.0,0.0,0.0,0.0,0.0,0.0,0.0,0.0,0.0,0.0,0.0,0.0,0.0,0.0,0.0,0.0,0.0,0.0,0.0,0.0,0.0,0.0,0.0,0.0,0.0,0.0,0.0,0.0,0.0,0.0,0.0,0.0,0.0,0.0,0.0,0.0,0.0,0.0,0.0,0.0,0.0,0.0,0.0,0.0,0.0,0.0,0.0,0.0,0.0,0.0,0.0,0.0,0.0,0.0,0.0,0.0,0.0,0.0,0.0,0.0,0.0,0.0,0.0,0.0,0.0,0.0,0.0,0.0,0.0,0.0,0.0,0.0,0.0,0.0,0.0,0.0,0.0,0.0,0.0,0.0,0.0,0.0,0.0,0.0,0.0,0.0,0.0,0.0,0.0,0.0,0.0,0.0,0.0,0.0,0.0,0.0,0.0,0.0,0.0,0.0,0.0,0.0,0.0,0.0,0.0,0.0,0.0,0.0,0.0,0.0,0.0,0.0,0.0,0.0,0.0,0.0,0.0,0.0,0.0,0.0,0.0,0.0,0.0,0.0,0.0,0.0,0.0,0.0,0.0,0.0,0.0,0.0,0.0,0.0,0.0,0.0,0.0,0.0,0.0,0.0,0.0,0.0,0.0,0.0,0.0,0.0,0.0,0.0,0.0,0.0,0.0,0.0,0.0,0.0,0.0,0.0,0.0,0.0,0.0,0.0,0.0,0.0,0.0,0.0,0.0,0.0,0.0,0.0,0.0,0.0,0.0,0.0,0.0,0.0,0.0,0.0,0.0,0.0,0.0,0.0,0.0,0.0,0.0,0.0,0.0,0.0,0.0,0.0,0.0,0.0,0.0,0.0,0.0,0.0,0.0,0.0,0.0,0.0,0.0,0.0,0.0,0.0,0.0,0.0,0.0,0.0,0.0,0.0,0.0,0.0,0.0,0.0,0.0,0.0,0.0,0.0,0.0,0.0,0.0,0.0,0.0]}]]]